[[{"header":{"parameterUnit":"m.s-1","parameterCategory":1,"la1":30.6,"la2":28.766,"lo1":-90.7593,"lo2":-88.6598,"dy":0.0162,"dx":0.0183,"nx":116,"ny":114,"refTime":"2023-11-01T12:00:00:Z","depth":0,"parameterNumber":2,"parameterNumberName":"U-component_of_WINDS"},"data":[0.0,0.0,0.0,0.0,0.0,0.0,0.0,0.0,0.0,0.0,0.0,0.0,0.0,0.0,0.0,0.0,0.0,0.0,0.0,0.0,0.0,0.0,0.0,0.0,0.0,0.0,0.0,0.0,0.0,0.0,0.0,0.0,0.0,0.0,0.0,0.0,0.0,0.0,0.0,0.0,0.0,0.0,0.0,0.0,0.0,0.0,0.0,0.0,0.0,0.0,0.0,0.0,0.0,0.0,0.0,0.0,0.0,0.0,0.0,0.0,0.0,0.0,0.0,0.0,0.0,0.0,0.0,0.0,0.0,0.0,0.0,0.0,0.0,0.0,0.0,0.0,0.0,0.0,0.0,0.0,0.0,0.0,0.0,0.0,0.0,0.0,0.0,0.0,0.0,0.0,0.0,0.0,0.0,0.0,0.0,0.0,0.0,0.0,0.0,0.0,0.0,0.0,0.0,0.0,0.0,0.0,0.0,0.0,0.0,0.0,0.0,0.0,0.0,0.0,0.0,0.0,0.0,0.0,0.0,0.0,0.0,0.0,0.0,0.0,0.0,0.0,0.0,0.0,0.0,0.0,0.0,0.0,0.0,0.0,0.0,0.0,0.0,0.0,0.0,0.0,0.0,0.0,0.0,0.0,0.0,0.0,0.0,0.0,0.0,0.0,0.0,0.0,0.0,0.0,0.0,0.0,0.0,0.0,0.0,0.0,0.0,0.0,0.0,0.0,0.0,0.0,0.0,0.0,0.0,0.0,0.0,0.0,0.0,0.0,0.0,0.0,0.0,0.0,0.0,0.0,0.0,0.0,0.0,0.0,0.0,0.0,0.0,0.0,0.0,0.0,0.0,0.0,0.0,0.0,0.0,0.0,0.0,0.0,0.0,0.0,0.0,0.0,0.0,0.0,0.0,0.0,0.0,0.0,0.0,0.0,0.0,0.0,0.0,0.0,0.0,0.0,0.0,0.0,0.0,0.0,0.0,0.0,0.0,0.0,0.0,0.0,0.0,0.0,0.0,0.0,0.0,0.0,0.0,0.0,0.0,0.0,0.0,0.0,0.0,0.0,0.0,0.0,0.0,0.0,0.0,0.0,0.0,0.0,0.0,0.0,0.0,0.0,0.0,0.0,0.0,0.0,0.0,0.0,0.0,0.0,0.0,0.0,0.0,0.0,0.0,0.0,0.0,0.0,0.0,0.0,0.0,0.0,0.0,0.0,0.0,0.0,0.0,0.0,0.0,0.0,0.0,0.0,0.0,0.0,0.0,0.0,0.0,0.0,0.0,0.0,0.0,0.0,0.0,0.0,0.0,0.0,0.0,0.0,0.0,0.0,0.0,0.0,0.0,0.0,0.0,0.0,0.0,0.0,0.0,0.0,0.0,0.0,0.0,0.0,0.0,0.0,0.0,0.0,0.0,0.0,0.0,0.0,0.0,0.0,0.0,0.0,0.0,0.0,0.0,0.0,0.0,0.0,0.0,0.0,0.0,0.0,0.0,0.0,0.0,0.0,0.0,0.0,0.0,0.0,0.0,0.0,0.0,0.0,0.0,0.0,0.0,0.0,0.0,0.0,0.0,0.0,0.0,0.0,0.0,0.0,0.0,0.0,0.0,0.0,0.0,0.0,0.0,0.0,0.0,0.0,0.0,0.0,0.0,0.0,0.0,0.0,0.0,0.0,0.0,0.0,0.0,0.0,0.0,0.0,0.0,0.0,0.0,0.0,0.0,0.0,0.0,0.0,0.0,0.0,0.0,0.0,0.0,0.0,0.0,0.0,0.0,0.0,0.0,0.0,0.0,0.0,0.0,0.0,0.0,0.0,0.0,0.0,0.0,0.0,0.0,0.0,0.0,0.0,0.0,0.0,0.0,0.0,0.0,0.0,0.0,0.0,0.0,0.0,0.0,0.0,0.0,0.0,0.0,0.0,0.0,0.0,0.0,0.0,0.0,0.0,0.0,0.0,0.0,0.0,0.0,0.0,0.0,0.0,0.0,0.0,0.0,0.0,0.0,0.0,0.0,0.0,0.0,0.0,0.0,0.0,0.0,0.0,0.0,0.0,0.0,0.0,0.0,0.0,0.0,0.0,0.0,0.0,0.0,0.0,0.0,0.0,0.0,0.0,0.0,0.0,0.0,0.0,0.0,0.0,0.0,0.0,0.0,0.0,0.0,0.0,0.0,0.0,0.0,0.0,0.0,0.0,0.0,0.0,0.0,0.0,0.0,0.0,0.0,0.0,0.0,0.0,0.0,0.0,0.0,0.0,0.0,0.0,0.0,0.0,0.0,0.0,0.0,0.0,0.0,0.0,0.0,0.0,0.0,0.0,0.0,0.0,0.0,0.0,0.0,0.0,0.0,0.0,0.0,0.0,0.0,0.0,0.0,0.0,0.0,0.0,0.0,0.0,0.0,0.0,0.0,0.0,0.0,0.0,0.0,0.0,0.0,0.0,0.0,0.0,0.0,0.0,0.0,0.0,0.0,0.0,0.0,0.0,0.0,0.0,0.0,0.0,0.0,0.0,0.0,0.0,0.0,0.0,0.0,0.0,0.0,0.0,0.0,0.0,0.0,0.0,0.0,0.0,0.0,0.0,0.0,0.0,0.0,0.0,0.0,0.0,0.0,0.0,0.0,0.0,0.0,0.0,0.0,0.0,0.0,0.0,0.0,0.0,0.0,0.0,0.0,0.0,0.0,0.0,0.0,0.0,0.0,0.0,0.0,0.0,0.0,0.0,0.0,0.0,0.0,0.0,0.0,0.0,0.0,0.0,0.0,0.0,0.0,0.0,0.0,0.0,0.0,0.0,0.0,0.0,0.0,0.0,0.0,0.0,0.0,0.0,0.0,0.0,0.0,0.0,0.0,0.0,0.0,0.0,0.0,0.0,0.0,0.0,0.0,0.0,0.0,0.0,0.0,0.0,0.0,0.0,0.0,0.0,0.0,0.0,0.0,0.0,0.0,0.0,0.0,0.0,0.0,0.0,0.0,0.0,0.0,0.0,0.0,0.0,0.0,0.0,0.0,0.0,0.0,0.0,0.0,0.0,0.0,0.0,0.0,0.0,0.0,0.0,0.0,0.0,0.0,0.0,0.0,0.0,0.0,0.0,0.0,0.0,0.0,0.0,0.0,0.0,0.0,0.0,0.0,0.0,0.0,0.0,0.0,0.0,0.0,0.0,0.0,0.0,0.0,0.0,0.0,0.0,0.0,0.0,0.0,0.0,0.0,0.0,0.0,0.0,0.0,0.0,0.0,0.0,0.0,0.0,0.0,0.0,0.0,0.0,0.0,0.0,0.0,0.0,0.0,0.0,0.0,0.0,0.0,0.0,0.0,0.0,0.0,0.0,0.0,0.0,0.0,0.0,0.0,0.0,0.0,0.0,0.0,0.0,0.0,0.0,0.0,0.0,0.0,0.0,0.0,0.0,0.0,0.0,0.0,0.0,0.0,0.0,0.0,0.0,0.0,0.0,0.0,0.0,0.0,0.0,0.0,0.0,0.0,0.0,0.0,0.0,0.0,0.0,0.0,0.0,0.0,0.0,0.0,0.0,0.0,0.0,0.0,0.0,0.0,0.0,0.0,0.0,0.0,0.0,0.0,0.0,0.0,0.0,0.0,0.0,0.0,0.0,0.0,0.0,0.0,0.0,0.0,0.0,0.0,0.0,0.0,0.0,0.0,0.0,0.0,0.0,0.0,0.0,0.0,0.0,0.0,0.0,0.0,0.0,0.0,0.0,0.0,0.0,0.0,0.0,0.0,0.0,0.0,0.0,0.0,0.0,0.0,0.0,0.0,0.0,0.0,0.0,0.0,0.0,0.0,0.0,0.0,0.0,0.0,0.0,0.0,0.0,0.0,0.0,0.0,0.0,0.0,0.0,0.0,0.0,0.0,0.0,0.0,0.0,0.0,0.0,0.0,0.0,0.0,0.0,0.0,0.0,0.0,0.0,0.0,0.0,0.0,0.0,0.0,0.0,0.0,0.0,0.0,0.0,0.0,0.0,0.0,0.0,0.0,0.0,0.0,0.0,0.0,0.0,0.0,0.0,0.0,0.0,0.0,0.0,0.0,0.0,0.0,0.0,0.0,0.0,0.0,0.0,0.0,0.0,0.0,0.0,0.0,0.0,0.0,0.0,0.0,0.0,0.0,0.0,0.0,0.0,0.0,0.0,0.0,0.0,0.0,0.0,0.0,0.0,0.0,0.0,0.0,0.0,0.0,0.0,0.0,0.0,0.0,0.0,0.0,0.0,0.0,0.0,0.0,0.0,0.0,0.0,0.0,0.0,0.0,0.0,0.0,0.0,0.0,0.0,0.0,0.0,0.0,0.0,0.0,0.0,0.0,0.0,0.0,0.0,0.0,0.0,0.0,0.0,0.0,0.0,0.0,0.0,0.0,0.0,0.0,0.0,0.0,0.0,0.0,0.0,0.0,0.0,0.0,0.0,0.0,0.0,0.0,0.0,0.0,0.0,0.0,0.0,0.0,0.0,0.0,0.0,0.0,0.0,0.0,0.0,0.0,0.0,0.0,0.0,0.0,0.0,0.0,0.0,0.0,0.0,0.0,0.0,0.0,0.0,0.0,0.0,0.0,0.0,0.0,0.0,0.0,0.0,0.0,0.0,0.0,0.0,0.0,0.0,0.0,0.0,0.0,0.0,0.0,0.0,0.0,0.0,0.0,0.0,0.0,0.0,0.0,0.0,0.0,0.0,0.0,0.0,0.0,0.0,0.0,0.0,0.0,0.0,0.0,0.0,0.0,0.0,0.0,0.0,0.0,0.0,0.0,0.0,0.0,0.0,0.0,0.0,0.0,0.0,0.0,0.0,0.0,0.0,0.0,0.0,0.0,0.0,0.0,0.0,0.0,0.0,0.0,0.0,0.0,0.0,0.0,0.0,0.0,0.0,0.0,0.0,0.0,0.0,0.0,0.0,0.0,0.0,0.0,0.0,0.0,0.0,0.0,0.0,0.0,0.0,0.0,0.0,0.0,0.0,0.0,0.0,0.0,0.0,0.0,0.0,0.0,0.0,0.0,0.0,0.0,0.0,0.0,0.0,0.0,0.0,0.0,0.0,0.0,0.0,0.0,0.0,0.0,0.0,0.0,0.0,0.0,0.0,0.0,0.0,0.0,0.0,0.0,0.0,0.0,0.0,0.0,0.0,0.0,0.0,0.0,0.0,0.0,0.0,0.0,0.0,0.0,0.0,0.0,0.0,0.0,0.0,0.0,0.0,0.0,0.0,0.0,0.0,0.0,0.0,0.0,0.0,0.0,0.0,0.0,0.0,0.0,0.0,0.0,0.0,0.0,0.0,0.0,0.0,0.0,0.0,0.0,0.0,0.0,0.0,0.0,0.0,0.0,0.0,0.0,0.0,0.0,0.0,0.0,0.0,0.0,0.0,0.0,0.0,0.0,0.0,0.0,0.0,0.0,0.0,0.0,0.0,0.0,0.0,0.0,0.0,0.0,0.0,0.0,0.0,0.0,0.0,0.0,0.0,0.0,0.0,0.0,0.0,0.0,0.0,0.0,0.0,0.0,0.0,0.0,0.0,0.0,0.0,0.0,0.0,0.0,0.0,0.0,0.0,0.0,0.0,0.0,0.0,0.0,0.0,0.0,0.0,0.0,0.0,0.0,0.0,0.0,0.0,0.0,0.0,0.0,0.0,0.0,0.0,0.0,0.0,0.0,0.0,0.0,0.0,0.0,0.0,0.0,0.0,0.0,0.0,0.0,0.0,0.0,0.0,0.0,0.0,0.0,0.0,0.0,0.0,0.0,0.0,0.0,0.0,0.0,0.0,0.0,0.0,0.0,0.0,0.0,0.0,0.0,0.0,0.0,0.0,0.0,0.0,0.0,0.0,0.0,0.0,0.0,0.0,0.0,0.0,0.0,0.0,0.0,0.0,0.0,0.0,0.0,0.0,0.0,0.0,0.0,0.0,0.0,0.0,0.0,0.0,0.0,0.0,0.0,0.0,0.0,0.0,0.0,0.0,0.0,0.0,0.0,0.0,0.0,0.0,0.0,0.0,0.0,0.0,0.0,0.0,0.0,0.0,0.0,0.0,0.0,0.0,0.0,0.0,0.0,0.0,0.0,0.0,0.0,0.0,0.0,0.0,0.5492,0.0,0.0,0.0,0.0,0.0,0.0,0.0,0.0,0.0,0.0,0.0,0.0,0.0,0.0,0.0,0.0,0.0,0.0,0.0,0.0,0.0,0.0,0.0,0.0,0.0,0.0,0.0,0.0,0.0,0.0,0.0,0.0,0.0,0.0,0.0,0.0,0.0,0.0,-1.1909,-1.1539,-1.1498,-1.1758,-1.0875,-0.9171,-0.6765,0.0,0.0,0.0,0.0,0.0,0.0,0.0,0.0,0.0,0.0,0.0,0.0,0.0,0.0,0.0,0.0,0.0,0.0,0.0,0.0,0.0,0.0,0.0,0.0,0.0,0.0,0.0,0.0,0.0,0.0,0.0,0.0,0.0,0.0,0.0,0.0,0.0,0.0,0.0,0.0,0.0,0.0,0.0,0.0,0.0,0.0,0.0,0.0,0.0,0.0,0.0,0.0,0.0,0.0,0.0,0.0,0.0,0.0,0.0,0.0,0.0,0.0,0.0,0.0,0.0,0.0,0.0,0.0,0.0,0.0,0.0,0.5618,0.0,0.0,0.0,0.0,0.0,0.0,0.0,0.0,0.0,0.0,0.0,0.0,0.0,0.0,0.0,0.0,0.0,0.0,0.0,0.0,0.0,0.0,0.0,-1.126,-1.1354,-1.1822,-1.1449,-1.1319,0.0,0.0,0.0,0.0,0.0,0.0,0.0,-1.2233,-1.2855,-1.3663,-1.3319,-1.3206,-1.3343,-1.3701,-1.2124,-0.8982,-0.8106,0.0,0.0,0.0,0.0,0.0,0.0,0.0,0.0,0.0,0.0,0.0,0.0,0.0,0.0,0.0,0.0,0.0,0.0,0.0,0.0,0.0,0.0,0.0,0.0,0.0,0.0,0.0,0.0,0.0,0.0,0.0,0.0,0.0,0.0,0.0,0.0,0.0,0.0,0.0,0.0,0.0,0.0,0.0,0.0,0.0,0.0,0.0,0.0,0.0,0.0,0.0,0.0,0.0,0.0,0.0,0.0,0.0,0.0,0.0,0.0,0.0,0.0,0.0,0.1335,0.1738,0.2148,0.2174,0.2871,0.4001,0.4943,0.5655,0.6026,0.0,0.0,0.0,0.0,0.0,0.0,0.0,0.0,0.0,0.0,0.0,0.0,0.0,0.0,0.0,0.0,0.0,0.0,0.0,0.0,0.0,0.0,-1.093,-1.1065,-1.1558,-1.1437,-1.1378,-1.1535,0.0,0.0,0.0,0.0,0.0,-1.17,-1.222,-1.3026,-1.4061,-1.4791,-1.4995,-1.4825,-1.4922,-1.4434,-1.3282,-1.0672,-0.9341,-0.8928,0.0,0.0,0.0,0.0,0.0,0.0,0.0,0.0,0.0,0.0,0.0,0.0,0.0,0.0,0.0,0.0,0.0,0.0,0.0,0.0,0.0,0.0,0.0,0.0,0.0,0.0,0.0,0.0,0.0,0.0,0.0,0.0,0.0,0.0,0.0,0.0,0.0,0.0,0.0,0.0,0.0,-0.0321,-0.0332,0.0,0.0,0.0,0.0,0.0,0.0,0.0,0.0,0.0,0.0,0.0,0.0,0.0,0.0,0.0119,-0.0364,-0.0374,0.013,0.0527,0.0808,0.1242,0.166,0.2512,0.3676,0.4298,0.0,0.5653,0.559,0.0,0.0,0.0,0.0,0.0,0.0,0.0,0.0,0.0,0.0,0.0,0.0,0.0,0.0,0.0,0.0,0.0,0.0,0.0,0.0,0.0,-1.1135,-1.1352,-1.1951,-1.1809,-1.1729,-1.179,-1.1875,0.0,0.0,0.0,-1.2043,-1.1727,-1.2619,-1.3529,-1.4602,-1.598,-1.638,-1.5999,-1.6673,-1.664,-1.5808,-1.4091,-1.211,-0.9938,-0.8595,0.0,0.0,0.0,0.0,0.0,0.0,0.0,0.0,0.0,0.0,0.0,0.0,0.0,0.0,0.0,0.0,0.0,0.0,0.0,0.0,0.0,0.0,0.0,0.0,0.0,0.0,0.0,0.0,0.0,0.0,0.0,0.0,0.0,0.0,0.0,0.0,0.0,0.0,0.0,-0.1483,-0.1305,-0.0883,-0.055,-0.0435,0.0,0.0,0.0,0.0,0.0,0.0,0.0,0.0,0.0,-0.0598,-0.0966,-0.0861,0.0,-0.026,0.0133,0.0945,0.1095,0.1532,0.2127,0.2268,0.2988,0.4144,0.4403,0.5011,0.593,0.6235,0.6724,0.7361,0.0,0.0,0.0,0.0,0.0,0.9652,0.0,0.0,0.0,0.0,0.0,0.0,0.0,0.0,0.0,0.0,0.0,0.0,-1.1064,-1.1316,-1.1649,-1.2115,-1.196,-1.1839,-1.1787,-1.1836,-1.1665,-1.1163,-1.186,-1.2147,-1.1871,-1.313,-1.4321,-1.5286,-1.6773,-1.7261,-1.6964,-1.7698,-1.7793,-1.7265,-1.6612,-1.4536,-1.1364,-1.0619,-0.9009,-0.684,0.0,0.0,0.0,0.0,0.0,0.0,0.0,0.0,0.0,0.0,0.0,0.0,0.0,0.0,0.0,0.0,0.0,0.0,0.0,0.0,0.0,0.0,0.0,0.0,0.0,0.0,0.0,0.0,0.0,0.0,0.0,0.0,0.0,0.0,0.0,0.0,0.0,-0.2311,-0.2011,-0.1458,-0.1252,-0.1022,0.0,0.0,0.0,0.0,0.0,0.0,-0.0965,-0.1333,-0.1231,-0.0635,-0.0898,-0.0653,0.0268,0.0274,0.0692,0.1667,0.1684,0.2129,0.2874,0.3016,0.359,0.4597,0.474,0.5425,0.6344,0.6901,0.7412,0.7727,0.7953,0.8418,0.8983,0.9051,0.9445,0.9848,0.0,0.0,0.0,0.0,0.0,0.0,0.0,0.0,0.0,0.0,0.0,-1.06,-1.0606,-1.1467,-1.1849,-1.1693,-1.1426,-1.1324,-1.1372,-1.1066,-1.0931,-1.093,-1.1306,-1.1674,-1.1902,-1.3975,-1.5399,-1.6273,-1.686,-1.7358,-1.7555,-1.7371,-1.7384,-1.7582,-1.7265,-1.6276,-1.4666,-1.2258,-1.0923,-1.0308,-0.7748,0.0,0.0,0.0,0.0,0.0,0.0,0.0,0.0,0.0,0.0,0.0,0.0,0.0,0.0,0.0,0.0,0.0,0.0,0.0,0.0,0.0,0.0,0.0,0.0,0.0,0.0,0.0,0.0,0.0,0.0,0.0,0.0,0.0,0.0,0.0,0.0,0.0,0.0,-0.2755,-0.1948,0.0,0.0,0.0,0.0,-0.1323,-0.1359,-0.1138,-0.0514,-0.0521,-0.0133,0.0546,0.0137,0.0276,0.1119,0.07,0.0987,0.1712,0.1713,0.2157,0.2914,0.3348,0.393,0.466,0.5386,0.6253,0.6954,0.668,0.7,0.7742,0.814,0.8705,0.9368,0.9638,0.9996,1.0276,0.0,0.0,0.0,0.0,0.0,0.0,0.0,0.0,-0.8104,-0.8371,-0.9199,-0.9955,-1.0399,-1.1097,-1.1671,-1.2068,-1.191,-1.1806,-1.1782,-1.1521,-1.1305,-1.1149,-1.1227,-1.1719,-1.2621,-1.3861,-1.498,-1.5829,-1.6168,-1.6377,-1.6482,-1.6782,-1.6886,-1.6782,-1.7095,-1.6533,-1.5227,-1.4049,-1.2573,-1.0896,-0.9474,-0.8352,0.0,0.0,0.0,0.0,0.0,0.0,0.0,0.0,0.0,0.0,0.0,0.0,0.0,0.0,0.0,0.0,0.0,0.0,0.0,0.0,0.0,0.0,0.0,0.0,0.0,0.0,0.0,0.0,0.0,0.0,0.0,0.0,0.0,0.0,0.0,0.0,0.0,-0.2603,-0.2158,0.0,0.0,-0.1394,-0.1155,-0.1166,-0.0924,-0.0672,-0.0545,-0.0411,-0.0276,0.0279,0.0281,0.0707,0.1137,0.1576,0.2018,0.2897,0.3184,0.3626,0.4374,0.4519,0.5222,0.6188,0.6383,0.6958,0.7616,0.7856,0.8033,0.8301,0.852,0.8921,0.9365,0.9639,1.0228,1.0829,0.0,0.0,0.0,0.0,0.0,0.0,0.0,0.0,-0.7708,-0.8171,-0.895,-0.9671,-1.0241,-1.0971,-1.1656,-1.1973,-1.1895,-1.1798,-1.1674,-1.1542,-1.1243,-1.0783,-1.108,-1.1764,-1.2876,-1.3701,-1.4527,-1.5374,-1.5422,-1.5615,-1.5811,-1.6022,-1.6125,-1.6226,-1.652,-1.6348,-1.5725,-1.5243,-1.3936,-1.2152,-1.1385,-1.0501,-0.9409,0.0,0.0,0.0,0.0,0.0,0.0,0.0,0.0,0.0,0.0,0.0,0.0,0.0,0.0,0.0,0.0,0.0,0.0,0.0,0.0,0.0,0.0,0.0,0.0,0.0,0.0,0.0,0.0,0.0,0.0,0.0,0.0,0.0,0.0,0.0,-0.2621,-0.2394,-0.1959,-0.1593,-0.1301,-0.1062,-0.0811,-0.0682,-0.0415,-0.028,0.0,0.0142,0.0284,0.0711,0.086,0.1296,0.1728,0.2323,0.2915,0.3646,0.408,0.4665,0.525,0.5683,0.6235,0.6905,0.7255,0.7824,0.8479,0.8842,0.9115,0.9303,0.9243,0.9417,0.9769,1.0181,1.0725,1.1191,0.0,0.0,0.0,0.0,0.0,0.0,0.0,-0.6933,-0.7543,-0.8207,-0.9158,-0.9862,-1.0138,-1.1075,-1.1625,-1.1438,-1.1501,-1.125,-1.0737,-1.079,-1.0464,-0.964,-1.0701,-1.1672,-1.2535,-1.3378,-1.4123,-1.4922,-1.4778,-1.485,-1.5359,-1.4903,-1.5131,-1.589,-1.5591,-1.5749,-1.6217,-1.5696,-1.4978,-1.4197,-1.3583,-1.2652,-1.1512,0.0,0.0,0.0,0.0,0.0,0.0,0.0,0.0,0.0,0.0,0.0,0.0,0.0,0.0,0.0,0.0,0.0,0.0,0.0,0.0,0.0,0.0,0.0,0.0,0.0,0.0,0.0,0.0,0.0,0.0,0.0,0.0,0.0,-0.2282,-0.2355,-0.2276,-0.2024,-0.1464,-0.1089,-0.0928,-0.0686,-0.0281,0.0,0.0,0.043,0.1146,0.116,0.1459,0.175,0.175,0.2187,0.2919,0.2919,0.3356,0.4085,0.4522,0.4959,0.5253,0.641,0.699,0.7135,0.786,0.8584,0.9302,0.9302,1.0023,1.1012,1.0451,1.0321,1.0737,1.1281,1.1496,1.1603,0.0,0.0,0.0,0.0,0.0,0.0,0.0,-0.6007,-0.657,-0.7074,-0.807,-0.8767,-0.8855,-0.975,-1.0348,-1.0298,-1.0171,-1.0158,-1.0058,-0.9894,-0.9759,-0.9687,-1.069,-1.1502,-1.1925,-1.2775,-1.3362,-1.3593,-1.3399,-1.3308,-1.3297,-1.3132,-1.333,-1.3865,-1.3948,-1.4272,-1.4815,-1.46,-1.4415,-1.4177,-1.3688,-1.3296,-1.2846,0.0,0.0,0.0,0.0,0.0,0.0,0.0,0.0,0.0,0.0,0.0,0.0,0.0,0.0,0.0,0.0,0.0,0.0,0.0,0.0,0.0,0.0,0.0,0.0,0.0,0.0,0.0,0.0,0.0,0.0,0.0,0.0,-0.1707,-0.1739,-0.2174,-0.2372,-0.1903,-0.1395,-0.085,-0.0284,0.0143,0.0433,0.0866,0.0869,0.1161,0.1595,0.1601,0.175,0.2187,0.2187,0.249,0.2958,0.3254,0.3862,0.4646,0.5046,0.5612,0.6643,0.6873,0.7425,0.8295,0.8729,0.9302,0.9735,1.0311,1.0881,1.1442,1.0883,1.1087,1.1587,1.171,1.2127,1.2839,0.0,0.0,0.0,0.0,0.0,0.0,0.0,-0.4939,-0.5463,-0.6067,-0.6905,-0.7615,-0.7757,-0.8378,-0.8932,-0.9175,-0.8954,-0.8863,-0.896,-0.8729,-0.8745,-0.9112,-0.9824,-1.0486,-1.0849,-1.1629,-1.2018,-1.2124,-1.2006,-1.1952,-1.1836,-1.1539,-1.1856,-1.2457,-1.2595,-1.3093,-1.3619,-1.3727,-1.3835,-1.3825,-1.3378,-1.3404,-1.3413,-1.246,-1.1709,-1.0943,-0.9936,-0.9026,-0.8079,-0.7156,0.0,0.0,0.0,0.0,0.0,0.0,0.0,0.0,0.0,0.0,0.0,0.0,0.0,0.0,0.0,0.0,0.0,0.0,0.0,0.0,0.0,0.0,0.0,0.0,-0.0598,-0.0995,-0.0889,-0.1444,-0.176,-0.1249,-0.0996,-0.0578,0.0145,0.0438,0.088,0.146,0.1467,0.1765,0.2205,0.2364,0.2519,0.2815,0.3111,0.3419,0.3746,0.4045,0.4499,0.5406,0.5515,0.6068,0.7068,0.7306,0.8005,0.0,0.9446,0.9879,1.0462,1.1031,1.1599,0.0,0.0,0.0,0.0,0.0,1.3133,1.413,0.0,0.0,0.0,0.0,0.0,0.0,0.0,-0.3747,-0.4322,-0.498,-0.5732,-0.6358,-0.6679,-0.7066,-0.7394,-0.7739,-0.7594,-0.7516,-0.7603,-0.7387,-0.7491,-0.8027,-0.8401,-0.8862,-0.9471,-0.9946,-1.0289,-1.0519,-1.045,-1.045,-1.0534,-1.0153,-1.0364,-1.123,-1.1248,-1.1693,-1.2417,-1.2743,-1.2852,-1.2861,-1.2673,-1.2891,-1.336,-1.3295,-1.2715,-1.1859,-1.1142,-1.0208,-0.914,-0.8418,0.0,0.0,0.0,0.0,0.0,0.0,0.0,0.0,0.0,0.0,0.0,0.0,0.0,0.0,0.0,0.0,0.0,0.0,0.0,0.0,0.0,0.0,0.0,0.0,-0.0122,-0.0251,0.0129,-0.0402,-0.0689,-0.0413,-0.0286,0.0,0.0718,0.0734,0.1186,0.1901,0.1922,0.2234,0.298,0.0,0.0,0.0,0.0,0.4545,0.5007,0.5002,0.5277,0.6127,0.611,0.6511,0.7181,0.7888,0.8604,0.9468,0.9885,1.0468,1.1208,1.1613,1.2323,1.2896,1.261,1.2753,1.3159,1.3552,1.4457,1.5367,0.0,0.0,0.0,0.0,0.0,0.0,0.0,-0.2018,-0.2713,-0.3483,-0.4124,-0.4572,-0.469,-0.547,-0.5737,-0.545,-0.5797,-0.6049,-0.629,-0.5987,-0.6049,-0.6574,-0.7186,-0.7535,-0.7581,-0.7999,-0.8242,-0.836,-0.8064,-0.7938,-0.8084,-0.7948,-0.8233,-0.8723,-0.8849,-0.9204,-0.9669,-0.9779,-0.9896,-1.0139,-1.027,-1.1338,-1.297,-1.3141,-1.2664,-1.2055,-1.1527,-1.098,-1.0208,-0.8778,-0.7889,-0.7283,-0.5896,-0.5219,0.0,0.0,0.0,0.0,0.0,0.0,0.0,0.0,0.0,0.0,0.0,0.0,0.0,0.0,0.0,0.0,0.0,0.0,0.0,0.0839,0.0755,0.0913,0.118,0.1226,0.0978,0.0419,0.0724,0.1031,0.1455,0.1933,0.2252,0.2668,0.2847,0.3018,0.347,0.3629,0.0,0.4238,0.4238,0.4715,0.5529,0.5474,0.58,0.6674,0.0,0.0,0.837,0.8948,0.9449,1.0029,1.0938,1.1385,1.1782,1.2661,1.3468,1.4189,1.4047,1.4332,1.46,1.4824,1.521,1.5447,0.0,0.0,0.0,0.0,0.0,0.0,0.0,-0.0175,-0.0635,-0.118,-0.1886,-0.24,-0.2445,-0.3165,-0.3519,-0.3388,-0.3794,-0.4041,-0.4117,-0.4164,-0.4279,-0.468,-0.5092,-0.5472,-0.5806,-0.5769,-0.5929,-0.6202,-0.593,-0.5858,-0.5964,-0.586,-0.6128,-0.6664,-0.6609,-0.6806,-0.7354,-0.7621,-0.7853,-0.8029,-0.832,-0.9085,-1.0162,-1.1405,-1.1587,-1.1269,-1.1295,-1.0785,-1.0137,-0.9241,-0.8402,-0.7573,-0.6388,-0.553,-0.4766,0.0,0.0,0.0,0.0,0.0,0.0,0.0,0.0,0.0,0.0,0.0,0.0,0.0,0.0,0.1893,0.0,0.0,0.1817,0.1847,0.1676,0.1731,0.2131,0.2208,0.1983,0.1275,0.1457,0.1783,0.208,0.2556,0.3021,0.3602,0.3643,0.3984,0.4624,0.4805,0.4976,0.5289,0.5755,0.6065,0.622,0.6641,0.7103,0.777,0.7825,0.8536,0.944,0.9717,1.0222,1.0944,1.1378,1.1935,1.2728,1.3507,1.4332,1.5044,1.5044,1.5186,1.5301,1.5523,1.5662,1.5659,0.0,0.0,0.0,0.0,0.0,0.0,0.0,0.1669,0.137,0.1064,0.039,-0.0098,-0.01,-0.0789,-0.1353,-0.1491,-0.1713,-0.1765,-0.1826,-0.1999,-0.2176,-0.2468,-0.28,-0.3131,-0.3575,-0.3411,-0.3496,-0.3941,-0.3806,-0.3773,-0.3947,-0.3725,-0.3969,-0.447,-0.4341,-0.4593,-0.5111,-0.5586,-0.5814,-0.5996,-0.6125,-0.626,-0.6532,-0.8543,-0.951,-0.9933,-1.0243,-0.9876,-0.9232,-0.911,-0.8331,-0.7285,-0.6492,-0.5608,-0.4676,-0.395,-0.3099,0.0,0.0,0.0,0.0,0.0,0.0,0.0,0.0,0.0,0.1978,0.2018,0.2511,0.2911,0.2508,0.2673,0.2845,0.2789,0.2629,0.2696,0.3105,0.3203,0.2998,0.2445,0.25,0.2696,0.2875,0.3195,0.381,0.4558,0.4609,0.5128,0.5962,0.6017,0.6204,0.668,0.7318,0.7603,0.7217,0.7972,0.8552,0.8804,0.8913,0.9476,1.0625,1.0447,1.0969,1.201,1.2004,1.2783,1.3753,1.4365,1.5079,1.5744,1.5744,1.5867,1.5943,1.5876,1.6048,1.6236,0.0,0.0,0.0,0.0,0.0,0.0,0.0,0.0,0.2907,0.2657,0.2194,0.1721,0.1437,0.0776,0.0194,0.0,0.0299,0.031,0.0106,0.0328,0.0224,-0.0229,-0.0564,-0.0671,-0.0559,-0.0881,-0.121,-0.1338,-0.1402,-0.1498,-0.1631,-0.1605,-0.1609,-0.1635,-0.204,-0.2369,-0.2625,-0.2621,-0.2839,-0.3176,-0.3223,-0.3383,-0.3774,-0.437,-0.5925,-0.7908,-0.8153,-0.7971,-0.7423,-0.7057,-0.658,-0.6093,-0.5346,-0.4856,-0.4228,-0.3055,0.0,-0.2215,-0.1424,-0.092,-0.0209,0.0859,0.1192,0.1436,0.0,0.0,0.2998,0.3704,0.3645,0.3687,0.3954,0.4263,0.4177,0.3279,0.3594,0.4054,0.4237,0.4306,0.4409,0.4858,0.4342,0.4082,0.4086,0.4478,0.5134,0.5999,0.6062,0.642,0.7213,0.6911,0.7072,0.785,0.7694,0.785,0.8622,0.8992,0.9449,0.9842,1.0089,1.0702,1.1664,1.1573,1.1904,1.2621,1.349,1.4483,1.5337,1.5228,1.5767,1.6593,1.632,1.6627,1.7261,1.6353,1.656,1.7145,0.0,0.0,0.0,0.0,0.0,0.0,0.0,0.0,0.0,0.4833,0.4475,0.42,0.3921,0.3074,0.2502,0.2568,0.2547,0.2466,0.2506,0.2756,0.2629,0.2322,0.1945,0.1702,0.1702,0.1341,0.1112,0.0895,0.0875,0.0862,0.0752,0.0755,0.0646,0.0537,0.0539,0.0436,0.0111,0.0,-0.0219,-0.0443,-0.0781,-0.1011,-0.1132,-0.1485,-0.2302,-0.3364,-0.5101,-0.5743,0.0,-0.5196,-0.4903,-0.4599,-0.3882,-0.3495,-0.298,-0.1884,-0.1415,0.0,0.0,0.0544,0.0,0.0,0.2057,0.2355,0.2729,0.3279,0.3725,0.4025,0.4336,0.4508,0.4508,0.4825,0.5004,0.0,0.4999,0.5384,0.5411,0.5834,0.6119,0.6371,0.6305,0.6084,0.5556,0.5887,0.6368,0.7309,0.7656,0.8015,0.8707,0.8554,0.8711,0.9336,0.9179,0.9306,0.9864,1.0435,1.1053,1.1417,1.1766,1.2332,1.3123,1.2977,1.3367,1.4115,1.4914,1.5685,1.632,1.669,1.6954,1.7017,1.7439,1.7576,1.7781,1.7412,1.7286,1.7356,0.0,0.0,0.0,0.0,0.0,0.0,0.0,0.0,0.0,0.0,0.6364,0.6109,0.579,0.5121,0.4736,0.4999,0.4788,0.475,0.499,0.5072,0.5066,0.495,0.4538,0.4144,0.4011,0.3627,0.3372,0.3245,0.3206,0.3164,0.3234,0.326,0.304,0.2801,0.3043,0.2973,0.2682,0.2551,0.245,0.2365,0.181,0.1588,0.1589,0.1029,0.0799,0.034,-0.2189,-0.3292,-0.3427,-0.3119,-0.298,-0.2841,-0.2235,-0.1887,-0.1642,-0.0777,-0.0217,0.032,0.1435,0.0,0.0,0.2498,0.3072,0.3537,0.3592,0.4189,0.4693,0.4693,0.5276,0.5606,0.5212,0.5522,0.5833,0.5723,0.6126,0.6533,0.6745,0.7187,0.7619,0.7708,0.8225,0.8195,0.7619,0.7581,0.789,0.8759,0.9236,0.974,1.0144,1.015,1.0307,1.078,1.078,1.089,1.1107,1.1882,1.2501,1.2965,1.3231,1.3763,1.4541,1.4464,1.4762,1.5452,1.6169,1.6734,1.7017,1.7721,1.7861,1.7872,1.8422,1.855,1.849,1.8694,1.8372,1.7884,0.0,0.0,0.0,0.0,0.0,0.0,0.0,0.0,0.0,0.0,0.0,0.0,0.0,0.6605,0.6688,0.6688,0.6801,0.7006,0.7386,0.7448,0.7533,0.7655,0.697,0.6633,0.6878,0.5952,0.5564,0.5699,0.5468,0.5468,0.5686,0.5595,0.5604,0.5686,0.5482,0.5275,0.5027,0.5225,0.526,0.5272,0.4893,0.4808,0.4685,0.3577,0.2923,0.2301,0.0223,-0.0439,-0.0425,-0.0732,-0.0821,-0.0611,-0.0317,-0.0324,-0.0109,0.0437,0.1067,0.1673,0.249,0.0,0.3211,0.4064,0.4519,0.4955,0.5273,0.5792,0.6178,0.6178,0.6579,0.6844,0.6443,0.6982,0.7282,0.6694,0.7044,0.7631,0.7936,0.8183,0.8666,0.9296,0.9634,1.0173,0.0,0.984,0.9582,1.0474,1.0952,1.1417,1.1734,1.1889,1.2044,1.2353,1.2044,1.2044,1.2501,1.2811,1.3428,1.4184,1.4182,1.4708,1.5896,1.5811,1.609,1.6725,1.7147,1.7429,1.7861,1.8272,1.8552,1.8982,1.8993,1.9254,1.9757,2.0419,2.0146,1.9434,0.0,0.0,0.0,0.0,0.0,0.0,0.0,0.0,0.0,0.0,0.0,0.0,0.0,0.0,0.0,0.0,0.8543,0.866,0.8959,0.9489,0.9684,0.938,0.9225,0.8957,0.8691,0.8231,0.7933,0.7913,0.7885,0.7844,0.7792,0.7919,0.7913,0.7798,0.8009,0.7856,0.7489,0.7726,0.7617,0.7328,0.7018,0.665,0.6242,0.5686,0.5138,0.4592,0.0,0.2221,0.0891,0.1296,0.1184,0.1077,0.1339,0.1446,0.1527,0.1934,0.2715,0.3557,0.3972,0.0,0.5207,0.5406,0.5643,0.5945,0.5794,0.6349,0.6904,0.658,0.7061,0.7549,0.7417,0.7549,0.7822,0.8117,0.8488,0.8911,0.9672,0.9947,1.04,1.0925,1.1475,0.0,0.0,0.0,0.0,1.1869,1.2192,1.2501,1.2656,1.2656,1.2811,1.3274,1.3112,1.3421,1.4199,1.4507,1.5122,1.6033,1.616,1.6453,1.6887,1.7181,1.7511,1.7872,1.8282,1.8703,1.8982,1.9401,1.9552,1.9831,2.0249,2.0605,2.0796,2.1245,2.1437,2.1447,0.0,0.0,0.0,0.0,0.0,0.0,0.0,0.0,0.0,0.0,0.0,0.0,0.0,0.0,0.0,0.0,0.0,1.051,1.0844,1.1466,1.1769,1.1585,1.1533,1.1143,1.0647,1.0256,0.9846,0.9625,0.9798,0.9806,0.9663,0.9941,0.9957,0.9768,1.0137,1.0129,0.9822,0.9982,0.9846,0.9363,0.897,0.8412,0.7834,0.722,0.6763,0.0,0.6012,0.4701,0.3323,0.3231,0.2946,0.2776,0.3083,0.3293,0.3373,0.372,0.4382,0.5126,0.5342,0.6063,0.6802,0.6771,0.7027,0.7205,0.6969,0.7546,0.7987,0.7488,0.807,0.8524,0.835,0.8508,0.8926,0.9311,0.9769,1.0251,1.0993,1.1461,1.1966,1.267,1.3235,0.0,0.0,0.0,0.0,1.3414,1.3737,1.4068,1.4129,1.423,1.4384,1.4756,1.4895,1.5171,1.5582,1.6111,1.6726,1.7407,1.7663,1.794,1.8214,1.8195,1.841,1.8986,1.9447,1.968,1.9959,2.0527,2.0665,2.0527,2.1207,2.1484,2.1596,2.2102,2.2443,2.2674,0.0,0.0,0.0,0.0,0.0,0.0,0.0,0.0,0.0,0.0,0.0,0.0,0.0,0.0,0.0,0.0,0.0,0.0,1.2856,1.334,1.3836,1.4254,1.3646,1.3226,1.2792,1.1991,1.1381,1.0961,1.1169,1.1254,1.1327,1.154,1.1629,1.1629,1.1824,1.1904,1.1792,1.2003,1.175,1.1226,1.072,1.0116,0.9389,0.8343,0.7844,0.7694,0.7318,0.7127,0.6801,0.5094,0.4526,0.4676,0.4975,0.5201,0.539,0.5588,0.597,0.6413,0.6945,0.7459,0.8004,0.8127,0.8529,0.884,0.8711,0.913,0.9404,0.8887,0.9343,0.9774,0.0,0.0,1.0473,1.0473,1.0885,1.1502,1.2231,1.2689,1.3153,0.0,0.0,0.0,0.0,0.0,0.0,1.5259,0.0,1.5812,1.5983,1.6146,1.6283,1.6458,1.7089,1.7152,1.6959,1.7615,1.8221,1.8764,1.855,1.8895,1.9626,1.9159,1.9228,2.006,2.0519,2.0816,2.0804,2.1496,2.1622,2.1346,2.176,2.2035,2.2448,2.2709,2.3119,2.3324,0.0,0.0,0.0,0.0,0.0,0.0,0.0,0.0,0.0,0.0,0.0,0.0,0.0,0.0,0.0,0.0,0.0,0.0,1.3964,1.4878,1.5102,1.4642,1.47,1.4536,1.3956,1.3314,1.2996,1.2921,1.2961,1.2815,1.2521,1.2658,1.2679,1.2324,1.2708,1.2581,1.2255,1.2423,1.2153,1.1521,1.1403,1.0906,1.0203,0.987,0.9458,0.9,0.869,0.8519,0.8299,0.6976,0.6594,0.6597,0.6481,0.6714,0.7074,0.7231,0.7744,0.8406,0.8921,0.9277,0.9607,0.991,0.9982,1.0002,0.9962,1.027,1.0404,1.0009,1.0134,1.0329,0.0,0.0,0.0,1.1726,1.208,0.0,1.393,1.398,0.0,1.4983,0.0,1.635,1.6768,1.7553,0.0,0.0,1.7255,1.6968,1.7023,1.713,1.713,1.7176,1.7941,1.8217,1.8168,1.9139,1.9887,2.0425,2.0192,2.0376,2.0808,2.0485,2.053,2.0769,2.1542,2.1685,2.1634,2.231,2.2585,2.2448,2.2585,2.2996,2.3515,2.3011,2.3621,2.4573,0.0,0.0,0.0,0.0,0.0,0.0,0.0,0.0,0.0,0.0,0.0,0.0,0.0,0.0,0.0,0.0,0.0,0.0,0.0,1.5966,1.6353,1.5858,1.571,1.5445,1.4999,1.421,1.3704,1.3483,1.3661,1.3576,1.3267,1.343,1.3378,1.3255,1.3424,1.3281,1.2974,1.3143,1.2736,0.0,0.0,1.157,1.0794,1.0674,1.0404,1.0158,0.9689,0.9981,1.0331,0.9579,0.902,0.8567,0.8214,0.8445,0.8816,0.8851,0.0,0.9916,1.0521,1.0826,1.0974,1.1456,1.1337,1.1136,1.1069,1.1225,1.1321,1.0882,1.118,0.0,0.0,0.0,0.0,0.0,0.0,0.0,1.5266,1.5468,1.5726,0.0,1.7428,0.0,1.8261,1.919,1.9704,0.0,1.8785,1.8207,1.8306,1.8369,1.8511,1.8612,1.9233,1.969,2.0136,2.0793,2.1337,2.1487,2.1347,2.1437,2.1722,2.1594,2.1691,2.1976,0.0,2.2649,2.277,2.3187,2.3406,2.3543,2.3543,2.4088,2.4617,2.4295,2.4622,2.5427,0.0,0.0,0.0,0.0,0.0,0.0,0.0,0.0,0.0,0.0,0.0,0.0,0.0,0.0,0.0,0.0,0.0,0.0,0.0,0.0,1.7212,1.7221,1.6608,1.6169,1.5842,1.4761,1.4071,1.366,1.3824,1.3882,1.3829,1.3884,1.3909,1.4087,1.3815,1.372,1.3815,1.3755,1.3331,1.2741,1.2763,1.2292,1.1487,0.0,1.1185,1.1096,1.0783,1.1439,1.2413,1.2219,1.1518,1.0651,1.0077,1.0175,1.0555,1.0593,1.0848,1.1318,1.1829,1.2142,1.2358,1.2697,1.2664,1.2381,1.2316,1.2383,1.2209,1.1802,0.0,1.2492,1.2285,1.2817,1.3554,1.4052,0.0,1.4925,1.6274,1.6808,1.7348,1.803,1.9305,2.0125,2.0069,2.1003,2.1475,2.121,2.0156,1.9626,1.9674,1.9984,2.0288,2.0638,2.0933,2.138,2.2293,2.2367,2.2396,2.2545,2.2396,2.2396,2.2545,2.2583,2.2898,2.3297,0.0,0.0,2.4178,2.4327,2.4459,2.4703,2.4703,2.5081,2.5592,2.5547,2.5831,2.613,0.0,0.0,0.0,0.0,0.0,0.0,0.0,0.0,0.0,0.0,1.7913,0.0,0.0,0.0,0.0,0.0,0.0,0.0,0.0,0.0,0.0,1.7332,1.6873,1.658,1.6654,1.5575,1.4935,1.4825,1.4627,1.4498,1.4282,1.4104,1.403,1.4104,1.3684,1.3597,1.3697,1.3572,1.3334,1.3027,1.2803,1.2631,1.2403,1.1946,0.0,0.0,1.2294,1.2545,1.3093,1.3117,1.2876,1.2518,1.1905,1.2051,1.244,1.2247,1.263,1.3168,1.3233,1.3409,1.3674,1.3922,1.3959,1.3751,1.356,1.3405,0.0,0.0,1.2943,1.2859,1.2745,1.3461,1.4135,1.469,0.0,0.0,0.0,0.0,1.8317,0.0,0.0,0.0,0.0,0.0,0.0,0.0,0.0,2.1372,2.0827,2.1429,2.1989,2.2797,2.2578,2.2768,2.3664,2.3625,2.3896,2.4193,2.3896,2.3896,2.4193,2.3831,2.397,2.4471,0.0,0.0,2.5228,2.5857,2.6082,2.5844,2.5844,2.5952,2.5965,2.5426,2.5753,2.662,0.0,0.0,0.0,0.0,0.0,0.0,0.0,0.0,0.0,1.996,1.9915,1.973,0.0,0.0,0.0,0.0,0.0,0.0,0.0,0.0,0.0,0.0,1.6994,1.6722,1.6733,1.5633,1.5148,1.509,0.0,1.4657,1.4559,1.4321,1.4321,1.4391,1.4055,1.3984,1.4082,1.3874,1.3604,1.343,1.3334,1.3309,1.3259,0.0,0.0,0.0,0.0,1.4085,1.4592,1.4395,1.4697,1.5012,1.3527,1.3474,1.3788,1.3572,1.3967,1.4421,1.4644,1.4537,1.4563,1.4896,1.4844,1.4659,1.4321,0.0,0.0,0.0,1.381,1.3718,1.3832,1.4386,0.0,1.5799,1.6445,0.0,0.0,0.0,0.0,0.0,0.0,0.0,0.0,0.0,0.0,0.0,0.0,2.2843,2.196,2.268,2.3192,2.3642,2.3948,2.4166,2.4623,2.477,2.4918,2.4918,2.5065,2.5212,2.5212,2.5506,2.5716,2.5997,2.6128,0.0,2.6379,2.6779,2.6785,2.6618,2.6618,2.6827,2.6934,2.6816,2.7067,2.76,0.0,0.0,0.0,0.0,0.0,0.0,0.0,2.0145,2.0421,2.1107,2.1636,2.1662,2.0997,2.0873,2.0588,0.0,0.0,0.0,0.0,0.0,0.0,0.0,0.0,0.0,0.0,0.0,0.0,1.5274,1.5091,0.0,0.0,0.0,0.0,0.0,1.467,1.4544,1.4573,1.4321,1.4122,0.0,0.0,1.4128,0.0,0.0,0.0,0.0,0.0,1.5187,1.567,1.5535,1.6076,1.6751,1.5002,1.4721,1.514,1.4683,1.4988,1.5411,1.5696,1.5607,1.5515,1.5918,1.5669,1.5472,1.5184,1.5087,0.0,0.0,1.457,1.4733,1.495,0.0,1.6138,0.0,1.7497,1.8307,0.0,0.0,0.0,0.0,0.0,0.0,0.0,0.0,0.0,0.0,0.0,0.0,2.3467,2.4013,2.4486,2.4605,2.5228,2.5589,2.5736,2.5974,2.5946,2.5639,2.6385,2.6531,2.6239,2.6808,2.71,2.723,2.741,0.0,0.0,2.7599,2.7571,2.7536,2.7673,2.7725,2.7976,2.8402,2.8607,2.866,0.0,0.0,0.0,0.0,0.0,0.0,0.0,2.0539,2.1273,2.2061,2.2557,2.2592,2.2172,2.1952,2.1373,0.0,0.0,0.0,0.0,0.0,0.0,0.0,0.0,0.0,0.0,0.0,0.0,1.5877,1.5791,0.0,0.0,0.0,0.0,0.0,0.0,1.5092,1.5006,1.4741,0.0,0.0,0.0,0.0,0.0,0.0,0.0,0.0,0.0,1.5442,1.556,1.6014,1.6179,1.6229,1.6222,1.6332,1.6414,1.5565,0.0,0.0,1.6276,1.6588,1.7078,1.7096,1.6898,1.6623,1.6495,0.0,0.0,1.5791,1.5601,1.5587,1.6102,1.6636,1.7236,1.7625,1.8459,1.9328,2.0564,0.0,0.0,0.0,0.0,0.0,0.0,0.0,0.0,0.0,0.0,0.0,2.5245,2.5472,2.602,2.6878,2.6514,2.6517,2.7245,2.6983,2.6969,2.7245,2.7405,2.7405,2.7405,2.755,2.7695,2.7985,0.0,0.0,0.0,2.8916,2.8996,2.8678,2.8959,2.8873,2.8704,2.9149,2.9543,2.9783,0.0,0.0,0.0,0.0,0.0,0.0,0.0,2.0919,2.1353,2.2447,2.2775,2.287,2.2538,2.2557,2.2007,0.0,0.0,0.0,0.0,0.0,0.0,0.0,0.0,0.0,0.0,0.0,0.0,0.0,0.0,0.0,0.0,0.0,0.0,0.0,0.0,1.5818,1.5701,1.5362,0.0,0.0,0.0,0.0,0.0,0.0,0.0,0.0,0.0,0.0,1.5973,1.6002,1.6373,1.6621,1.6186,1.6634,1.7067,0.0,1.6775,1.7291,1.7686,1.7814,1.7897,1.8244,1.789,1.7375,1.697,0.0,1.6113,1.6184,1.6018,1.6151,1.6696,1.7414,1.816,1.872,1.9516,2.0427,2.133,0.0,0.0,0.0,0.0,0.0,0.0,0.0,0.0,0.0,0.0,0.0,2.7316,2.7029,2.7021,2.7391,2.7629,2.7806,2.7891,2.777,2.771,2.784,2.813,2.8274,2.8274,2.8707,2.8995,2.9138,0.0,0.0,0.0,2.9871,2.9802,2.9477,2.9617,2.9666,2.9917,3.0273,3.0617,3.1025,0.0,0.0,0.0,0.0,0.0,1.9683,2.0862,2.1135,2.1511,2.2656,2.2991,2.2924,2.2538,2.2593,2.2189,2.0855,0.0,0.0,0.0,0.0,0.0,0.0,0.0,0.0,0.0,0.0,0.0,0.0,0.0,0.0,0.0,0.0,0.0,0.0,0.0,0.0,0.0,0.0,0.0,0.0,0.0,0.0,0.0,0.0,0.0,0.0,0.0,0.0,0.0,0.0,0.0,1.6964,1.6534,1.6885,1.73,1.7044,1.7427,1.8072,1.8782,1.8948,1.903,1.9463,1.9013,1.8178,0.0,0.0,1.6661,1.682,1.6813,1.7098,1.7812,1.8512,1.9092,1.9915,2.0557,2.1244,2.2203,2.3154,0.0,0.0,0.0,0.0,0.0,0.0,0.0,0.0,0.0,0.0,0.0,2.8759,2.8414,2.8278,2.8618,2.8819,2.8718,2.8609,2.8707,2.8707,2.9138,2.9138,2.9282,2.9855,3.014,3.0283,0.0,0.0,0.0,3.0852,3.0701,3.0467,3.0467,3.0717,3.1081,3.1461,3.1823,3.2212,0.0,0.0,0.0,0.0,0.0,0.0,0.0,2.1021,2.2032,2.259,2.3056,2.2982,2.2115,2.2153,2.1898,2.0762,0.0,0.0,0.0,0.0,0.0,0.0,0.0,0.0,0.0,0.0,0.0,0.0,0.0,0.0,0.0,0.0,0.0,0.0,0.0,0.0,0.0,0.0,0.0,0.0,0.0,0.0,0.0,0.0,0.0,0.0,0.0,0.0,0.0,0.0,0.0,0.0,0.0,1.736,1.7016,1.6686,1.7923,1.9259,1.9181,1.9993,2.0869,2.059,2.0081,1.9568,0.0,1.8109,1.7623,1.7886,1.8036,1.8428,1.957,1.9794,2.0231,2.1438,2.1437,2.1752,2.3413,2.4139,0.0,0.0,0.0,0.0,0.0,0.0,0.0,0.0,0.0,0.0,0.0,3.0908,3.0607,3.0233,2.9579,2.9498,3.0227,3.0033,2.9997,3.0442,3.0442,3.0442,3.0442,3.0442,3.0584,0.0,0.0,0.0,0.0,3.1965,3.1824,3.1559,3.1965,3.2105,3.2246,3.2963,3.3242,3.34,0.0,0.0,0.0,0.0,0.0,0.0,0.0,2.0701,2.0866,2.1957,2.2171,2.2236,2.2025,2.2061,2.1823,2.1164,0.0,0.0,0.0,0.0,0.0,0.0,0.0,0.0,0.0,0.0,0.0,0.0,0.0,0.0,0.0,0.0,0.0,0.0,0.0,0.0,0.0,0.0,0.0,0.0,0.0,0.0,0.0,0.0,0.0,0.0,0.0,0.0,0.0,0.0,0.0,0.0,0.0,0.0,0.0,1.7822,1.8223,1.8868,1.9546,1.9866,2.0099,2.0292,1.9813,1.9233,1.8451,1.8276,1.8273,1.8293,1.8892,1.9584,2.0327,2.0769,2.1362,2.2245,2.2662,2.3142,0.0,0.0,0.0,0.0,0.0,0.0,0.0,0.0,0.0,0.0,0.0,0.0,0.0,3.143,3.1201,3.0729,3.0746,3.0779,3.0825,3.0973,3.0907,3.0805,3.1069,3.133,3.1622,3.1895,0.0,0.0,0.0,0.0,0.0,3.2421,3.2544,3.2684,3.2824,3.3242,3.3678,3.3955,3.4418,3.4939,0.0,0.0,0.0,0.0,0.0,0.0,0.0,2.0195,2.0371,2.1191,2.1542,2.1646,2.1662,2.1753,2.157,2.0928,0.0,0.0,0.0,0.0,0.0,0.0,0.0,0.0,0.0,0.0,0.0,0.0,0.0,0.0,0.0,0.0,0.0,0.0,0.0,0.0,0.0,0.0,0.0,0.0,0.0,0.0,1.7846,0.0,0.0,0.0,0.0,0.0,0.0,0.0,0.0,0.0,0.0,0.0,0.0,0.0,1.902,1.9193,2.013,2.0346,2.0536,2.0718,2.0241,0.0,1.8857,1.8877,1.9098,1.9234,1.9971,2.0735,2.1399,2.1835,2.2398,2.3185,2.3567,2.4076,0.0,0.0,0.0,0.0,0.0,0.0,0.0,0.0,0.0,0.0,0.0,0.0,0.0,3.2604,3.2552,3.2261,3.1918,3.1851,3.1895,3.2278,3.2278,3.204,3.2142,3.2339,3.2629,3.2619,0.0,0.0,0.0,0.0,0.0,3.3726,3.3902,3.4195,3.4342,3.4678,3.5116,3.5255,3.5565,3.6055,0.0,0.0,0.0,0.0,0.0,0.0,0.0,0.0,0.0,2.0453,2.0959,2.1286,2.0998,2.1177,2.1032,0.0,0.0,0.0,0.0,0.0,0.0,0.0,0.0,0.0,0.0,0.0,0.0,1.9668,1.9526,1.9622,2.0037,0.0,0.0,0.0,0.0,0.0,0.0,0.0,0.0,0.0,1.761,1.7544,0.0,0.0,0.0,0.0,0.0,0.0,0.0,0.0,0.0,0.0,0.0,0.0,0.0,0.0,0.0,0.0,0.0,2.1274,0.0,0.0,0.0,0.0,1.9921,1.9903,0.0,2.0633,2.1375,2.2054,2.2927,2.3119,2.336,2.4285,2.4269,0.0,0.0,0.0,0.0,0.0,0.0,0.0,0.0,0.0,0.0,0.0,0.0,0.0,0.0,3.4062,3.4587,3.464,3.3168,3.2798,3.3454,3.3762,3.3907,3.3854,3.3517,3.334,3.3447,3.3091,0.0,0.0,0.0,0.0,0.0,3.5265,3.5642,3.5762,3.6142,3.6295,3.6295,3.6578,3.6881,3.692,0.0,0.0,0.0,0.0,0.0,0.0,0.0,0.0,0.0,0.0,2.0061,2.0316,2.0483,2.0748,2.0744,0.0,0.0,0.0,0.0,0.0,0.0,0.0,0.0,0.0,0.0,0.0,0.0,1.983,2.0019,2.0436,2.0958,2.05,0.0,0.0,0.0,0.0,0.0,0.0,0.0,0.0,1.8208,1.7963,0.0,0.0,0.0,0.0,1.7735,1.8155,0.0,0.0,0.0,0.0,0.0,0.0,0.0,0.0,2.0251,2.045,2.0787,0.0,0.0,2.0219,2.0426,2.0479,0.0,2.0707,2.1586,2.1723,2.2466,2.3247,2.3904,2.4033,2.4261,2.4952,0.0,0.0,0.0,0.0,0.0,0.0,0.0,0.0,0.0,0.0,0.0,0.0,0.0,0.0,0.0,3.5121,3.5139,3.5758,3.5156,3.4665,3.4168,3.4599,3.4439,3.3872,3.4067,3.4305,3.4594,3.4503,0.0,0.0,0.0,0.0,3.5746,3.5934,3.6237,3.6444,3.654,3.672,3.7022,3.7144,3.75,3.8078,0.0,0.0,0.0,0.0,0.0,0.0,0.0,0.0,0.0,0.0,0.0,0.0,0.0,0.0,0.0,0.0,0.0,0.0,0.0,0.0,0.0,0.0,0.0,0.0,0.0,0.0,0.0,0.0,0.0,2.0516,0.0,0.0,0.0,0.0,0.0,0.0,0.0,0.0,0.0,0.0,1.837,0.0,0.0,0.0,0.0,0.0,1.7765,1.8326,0.0,1.9502,1.9918,2.0292,0.0,0.0,0.0,0.0,2.0617,2.0751,2.1043,2.0992,2.0938,2.0864,2.1156,2.1341,2.0918,2.1708,2.2544,2.2815,2.3533,2.4239,2.4923,2.5284,0.0,0.0,2.6946,0.0,0.0,0.0,0.0,0.0,0.0,0.0,0.0,0.0,0.0,0.0,0.0,0.0,0.0,3.6305,3.6346,3.6793,3.6607,3.6054,3.5298,3.5646,3.5464,3.503,3.5358,3.5539,3.56,3.5743,0.0,0.0,0.0,0.0,3.7022,3.7429,3.7611,3.7881,3.8078,3.8157,3.8442,3.8442,3.8743,3.9249,0.0,0.0,0.0,0.0,0.0,0.0,0.0,0.0,0.0,0.0,0.0,0.0,0.0,0.0,0.0,0.0,0.0,0.0,0.0,0.0,0.0,0.0,0.0,0.0,0.0,0.0,0.0,0.0,0.0,0.0,0.0,0.0,0.0,0.0,0.0,0.0,0.0,0.0,0.0,0.0,1.8228,0.0,0.0,0.0,0.0,0.0,0.0,0.0,0.0,1.9872,2.0446,2.0961,2.1128,0.0,0.0,0.0,0.0,0.0,2.1361,2.1804,2.2225,2.2119,2.2445,2.2602,2.2367,2.2752,2.3431,2.3933,2.4556,2.5128,2.5767,2.6496,0.0,0.0,0.0,0.0,0.0,0.0,0.0,0.0,0.0,0.0,0.0,0.0,0.0,0.0,0.0,0.0,0.0,3.7321,3.7677,3.7601,3.7677,3.7402,3.6645,3.6812,3.6754,3.6361,3.6632,3.6694,3.6437,3.6739,3.692,0.0,0.0,0.0,3.8226,3.8838,3.9226,3.9211,3.9573,3.9714,3.9714,3.9714,4.0063,4.0412,0.0,0.0,0.0,0.0,0.0,0.0,0.0,0.0,0.0,0.0,0.0,0.0,0.0,0.0,0.0,0.0,0.0,0.0,0.0,0.0,0.0,0.0,0.0,0.0,0.0,0.0,0.0,0.0,0.0,0.0,2.0925,2.1179,2.068,0.0,0.0,0.0,0.0,0.0,0.0,1.8222,1.7978,0.0,0.0,0.0,0.0,0.0,0.0,0.0,0.0,2.0051,2.024,2.0506,2.038,0.0,0.0,0.0,0.0,0.0,2.2063,2.2928,2.3459,2.256,2.3004,2.3706,2.3272,2.3861,2.4599,2.465,2.5128,2.5896,2.6791,2.703,2.751,0.0,0.0,0.0,0.0,0.0,0.0,0.0,0.0,0.0,0.0,0.0,0.0,0.0,0.0,0.0,0.0,0.0,3.8543,3.8906,3.8813,3.872,3.87,3.7696,3.7047,3.6758,3.7066,3.7286,3.7144,3.7164,3.7783,0.0,0.0,3.8823,3.9369,3.951,3.9674,3.9614,3.9694,3.9714,3.9714,3.9714,4.0266,4.1027,0.0,0.0,0.0,0.0,0.0,0.0,0.0,0.0,0.0,0.0,0.0,0.0,0.0,0.0,0.0,0.0,0.0,0.0,0.0,0.0,0.0,0.0,0.0,0.0,0.0,0.0,0.0,0.0,0.0,2.1012,2.1707,2.1274,2.0609,1.9568,0.0,0.0,0.0,0.0,0.0,1.8476,0.0,0.0,0.0,0.0,0.0,0.0,0.0,0.0,0.0,0.0,2.0514,2.0885,2.0836,0.0,0.0,0.0,0.0,0.0,2.2034,2.3111,2.3871,2.3678,2.4547,2.5276,2.4945,2.5222,2.5735,2.5848,0.0,0.0,0.0,0.0,2.9678,0.0,0.0,0.0,0.0,0.0,0.0,0.0,0.0,0.0,0.0,0.0,0.0,0.0,0.0,0.0,0.0,0.0,3.9346,3.9718,3.9778,3.9878,4.0022,3.9301,3.8485,3.7767,3.8288,3.8477,3.8365,3.8746,3.9231,3.9718,0.0,4.0126,4.074,4.074,4.074,4.0862,4.074,4.0884,4.142,4.1648,4.2022,4.2335,0.0,0.0,0.0,0.0,0.0,0.0,0.0,0.0,0.0,0.0,0.0,0.0,0.0,0.0,0.0,0.0,0.0,0.0,0.0,0.0,0.0,0.0,0.0,0.0,0.0,0.0,1.9828,2.1027,2.0592,2.0997,2.2193,2.136,2.038,0.0,0.0,0.0,0.0,0.0,1.9033,1.8559,0.0,0.0,0.0,0.0,0.0,0.0,0.0,0.0,0.0,0.0,0.0,0.0,0.0,0.0,0.0,2.1296,2.1318,2.1554,2.2231,2.3073,2.4023,2.483,2.56,2.627,2.6554,0.0,0.0,0.0,0.0,0.0,0.0,3.0316,0.0,0.0,0.0,0.0,0.0,0.0,0.0,0.0,0.0,0.0,0.0,0.0,0.0,0.0,0.0,0.0,0.0,0.0,4.0249,4.0453,4.0555,4.074,4.1025,4.074,3.9983,3.8926,3.9553,3.9697,3.9374,4.0004,4.0515,4.074,4.0781,4.1292,4.1931,4.1699,4.1883,4.2337,4.1968,4.2137,4.2784,4.3358,4.3653,4.3525,0.0,0.0,0.0,0.0,0.0,0.0,0.0,0.0,0.0,0.0,0.0,0.0,0.0,0.0,0.0,0.0,0.0,0.0,0.0,0.0,0.0,0.0,0.0,0.0,0.0,1.9641,1.9928,2.022,2.0945,2.1446,2.1677,2.1309,2.0408,1.9295,0.0,0.0,0.0,0.0,0.0,1.8163,1.8163,0.0,0.0,0.0,0.0,0.0,0.0,0.0,0.0,0.0,0.0,0.0,0.0,0.0,2.1366,2.1334,2.1522,2.1874,2.2972,2.3476,2.409,2.538,2.5622,2.5938,2.7644,2.7445,0.0,2.9112,0.0,0.0,0.0,3.2276,0.0,0.0,0.0,0.0,0.0,0.0,0.0,0.0,0.0,0.0,0.0,0.0,0.0,0.0,0.0,0.0,0.0,0.0,0.0,4.0843,4.1503,4.1735,4.1473,4.1473,4.1025,4.0126,4.0289,4.0289,4.0269,4.0289,4.0966,4.206,4.1212,4.1791,4.3252,4.238,4.2529,4.3273,4.2848,4.2699,4.2826,4.372,4.4078,4.4004,0.0,0.0,0.0,0.0,0.0,0.0,0.0,0.0,0.0,0.0,0.0,0.0,0.0,0.0,0.0,0.0,0.0,0.0,0.0,0.0,0.0,0.0,0.0,1.8533,1.9078,1.937,1.9955,2.1048,2.1387,2.146,2.1338,2.0922,0.0,0.0,0.0,0.0,0.0,0.0,0.0,1.8761,1.8236,1.7927,0.0,0.0,0.0,0.0,0.0,0.0,0.0,0.0,2.0169,2.075,2.0775,2.0925,2.113,2.142,2.1725,2.208,2.269,2.3874,2.5099,2.5377,2.6101,2.7111,2.8553,2.8867,2.9349,3.068,3.0879,0.0,0.0,0.0,0.0,0.0,0.0,0.0,0.0,0.0,0.0,0.0,0.0,0.0,0.0,0.0,0.0,0.0,0.0,0.0,0.0,0.0,0.0,4.1903,4.2193,4.2569,4.3034,4.245,4.2458,4.3034,4.1603,4.1046,4.1046,4.131,4.1678,4.1989,4.1973,4.2513,4.3408,4.3486,4.3968,4.4604,4.4713,4.4612,4.4344,4.4711,4.4901,4.4663,0.0,0.0,0.0,0.0,0.0,0.0,0.0,0.0,0.0,0.0,0.0,0.0,0.0,0.0,0.0,0.0,0.0,0.0,0.0,0.0,0.0,0.0,0.0,1.8452,1.8774,1.9213,2.0012,2.1113,2.1218,2.0988,2.0769,0.0,0.0,0.0,0.0,0.0,0.0,0.0,0.0,0.0,1.8464,1.8093,0.0,0.0,0.0,0.0,0.0,0.0,0.0,0.0,2.0095,2.0623,2.0947,2.113,2.1216,2.1725,2.2197,2.2707,2.3152,2.4368,2.5516,2.6104,2.7061,2.8282,2.9868,3.0244,3.0692,3.2256,3.2546,0.0,0.0,0.0,0.0,0.0,0.0,0.0,0.0,0.0,0.0,0.0,0.0,0.0,0.0,0.0,0.0,0.0,0.0,0.0,0.0,0.0,0.0,0.0,4.2721,4.3013,4.348,4.3013,4.3187,4.4124,4.2621,4.1983,4.211,4.2082,4.2223,4.2677,4.2707,4.3314,4.432,4.4629,4.5113,4.5733,4.6078,4.602,4.5742,4.5772,4.5603,4.5362,0.0,0.0,0.0,0.0,0.0,0.0,0.0,0.0,0.0,0.0,0.0,0.0,0.0,0.0,0.0,0.0,0.0,0.0,0.0,0.0,0.0,0.0,0.0,1.8452,1.8774,1.9418,1.9916,2.0237,2.0212,2.0086,1.9771,1.9771,0.0,0.0,0.0,0.0,0.0,0.0,0.0,0.0,1.8743,1.8303,1.7823,0.0,0.0,0.0,0.0,0.0,0.0,0.0,1.986,2.0085,2.1006,2.1522,2.1725,2.203,2.2859,2.384,2.4541,2.4788,2.5283,2.7852,2.8505,2.9294,3.1841,3.1421,3.115,3.3746,3.4336,3.4693,0.0,0.0,0.0,0.0,0.0,0.0,0.0,0.0,0.0,0.0,0.0,0.0,0.0,0.0,0.0,0.0,0.0,0.0,0.0,0.0,0.0,0.0,4.3023,4.3023,4.2581,4.3001,4.3163,4.3163,4.3163,4.3122,4.3271,4.2372,4.2698,4.3818,4.3359,4.4397,4.6379,4.5393,4.5572,4.6513,4.7006,4.6894,4.6513,4.6566,4.6308,4.591,0.0,0.0,0.0,0.0,0.0,0.0,0.0,0.0,0.0,0.0,0.0,0.0,0.0,0.0,0.0,0.0,0.0,0.0,0.0,0.0,0.0,0.0,0.0,0.0,0.0,0.0,1.9483,2.0237,1.9656,1.9548,0.0,0.0,0.0,1.9328,0.0,0.0,0.0,0.0,0.0,0.0,0.0,1.8649,0.0,0.0,0.0,0.0,0.0,0.0,0.0,0.0,0.0,0.0,2.1172,2.1788,2.2348,2.2198,2.2877,2.3859,2.3803,2.5076,2.67,2.7735,2.9399,0.0,0.0,3.3154,0.0,0.0,3.5981,3.616,0.0,0.0,0.0,0.0,0.0,0.0,0.0,0.0,0.0,0.0,0.0,0.0,0.0,0.0,0.0,0.0,0.0,0.0,0.0,0.0,0.0,0.0,4.3719,4.4013,4.4369,4.4013,4.447,4.5281,4.4447,4.3786,4.3639,4.3346,4.3507,4.4219,4.442,4.4954,4.5976,4.6667,4.7295,4.7881,4.7726,4.7558,4.7254,4.6468,4.602,4.5866,0.0,0.0,0.0,0.0,0.0,0.0,0.0,0.0,0.0,0.0,1.853,1.8501,0.0,0.0,0.0,0.0,0.0,0.0,0.0,0.0,0.0,0.0,0.0,0.0,0.0,1.8419,1.8957,0.0,0.0,0.0,0.0,0.0,0.0,1.9362,0.0,2.0082,0.0,0.0,0.0,1.9256,1.9029,1.882,1.8474,0.0,0.0,0.0,0.0,0.0,0.0,0.0,0.0,0.0,2.161,2.2078,2.2604,2.3134,2.3791,2.4456,2.5343,2.6625,2.7989,2.9437,3.1058,3.2785,3.4654,0.0,0.0,0.0,0.0,0.0,0.0,0.0,0.0,0.0,0.0,0.0,0.0,0.0,0.0,0.0,0.0,0.0,0.0,0.0,0.0,0.0,0.0,0.0,0.0,0.0,0.0,0.0,4.4135,4.4546,4.4977,4.4886,4.5274,4.6143,4.5455,4.4995,4.4973,4.4492,4.4514,4.5157,4.5794,4.632,4.678,4.7599,4.8232,4.8546,4.8255,4.8232,4.8331,4.7163,4.6782,4.6737,0.0,0.0,0.0,0.0,0.0,0.0,0.0,0.0,0.0,0.0,1.8124,1.8175,0.0,0.0,0.0,0.0,0.0,0.0,0.0,0.0,0.0,0.0,0.0,0.0,0.0,0.0,0.0,0.0,0.0,0.0,0.0,0.0,1.9626,1.9512,0.0,2.0929,0.0,2.0012,1.9792,1.9861,1.9197,1.8784,1.8686,1.8716,0.0,0.0,0.0,0.0,0.0,0.0,0.0,0.0,2.2315,2.2451,2.269,2.4562,2.4968,2.5516,2.8228,2.8765,2.925,3.2346,3.3206,0.0,3.6777,3.741,3.7843,0.0,0.0,0.0,0.0,0.0,0.0,0.0,0.0,0.0,0.0,0.0,0.0,0.0,0.0,0.0,0.0,0.0,0.0,0.0,0.0,0.0,0.0,0.0,0.0,0.0,4.4411,4.4548,4.4868,4.5483,4.5873,0.0,4.6352,4.6603,4.7072,4.5703,4.5585,4.653,4.7339,4.8021,4.8352,4.8407,4.876,4.905,4.8714,4.8957,4.9365,4.8232,4.8086,4.8232,0.0,0.0,0.0,0.0,0.0,0.0,0.0,0.0,0.0,0.0,0.0,0.0,0.0,0.0,0.0,0.0,0.0,0.0,0.0,0.0,0.0,0.0,0.0,0.0,0.0,0.0,0.0,0.0,0.0,0.0,0.0,0.0,0.0,1.9718,0.0,2.0128,1.9199,1.955,1.931,1.8725,1.922,1.9,1.8405,1.8799,1.8586,0.0,0.0,0.0,0.0,0.0,0.0,0.0,2.2598,2.3349,2.3972,2.4221,2.5182,2.6354,2.7308,2.8589,3.0185,3.2382,3.4792,3.7124,3.8636,3.9522,3.9945,0.0,0.0,0.0,0.0,0.0,0.0,0.0,0.0,0.0,0.0,0.0,0.0,0.0,0.0,0.0,0.0,0.0,0.0,0.0,0.0,0.0,0.0,0.0,0.0,4.4663,4.521,4.5667,4.5806,4.6472,4.698,0.0,4.7493,4.7913,4.831,4.679,4.6553,4.7362,4.8298,4.8737,4.8937,4.9222,4.9414,4.9514,4.9385,4.9365,4.9365,4.8523,4.84,4.8186,0.0,0.0,0.0,0.0,0.0,0.0,0.0,0.0,0.0,0.0,0.0,0.0,0.0,0.0,0.0,0.0,0.0,0.0,0.0,0.0,0.0,0.0,0.0,0.0,0.0,0.0,0.0,0.0,0.0,0.0,0.0,0.0,0.0,2.0043,0.0,2.0236,1.9257,1.9837,1.9626,1.8955,1.932,1.929,0.0,0.0,1.892,1.9036,1.9431,0.0,0.0,0.0,0.0,0.0,0.0,0.0,2.4122,2.4999,2.5609,2.6498,2.8803,3.0135,3.1469,3.4231,3.6764,3.8865,3.9646,4.0619,4.1453,0.0,0.0,0.0,0.0,0.0,0.0,0.0,0.0,0.0,0.0,0.0,0.0,0.0,0.0,0.0,0.0,0.0,0.0,0.0,0.0,0.0,0.0,4.5849,4.5851,4.5714,4.6261,4.6631,4.7028,4.7677,4.8075,4.8357,4.8592,4.885,4.9132,4.8252,4.8223,4.8957,4.9468,4.984,5.0072,5.0072,5.0072,5.0049,4.9793,4.9829,4.9764,4.9037,4.873,4.8499,0.0,0.0,0.0,0.0,0.0,0.0,0.0,0.0,0.0,0.0,0.0,0.0,0.0,0.0,0.0,0.0,0.0,0.0,0.0,0.0,0.0,0.0,0.0,0.0,0.0,0.0,0.0,0.0,0.0,0.0,0.0,0.0,0.0,2.0286,0.0,0.0,1.9714,2.0134,1.9926,1.9445,1.9275,0.0,0.0,0.0,0.0,0.0,2.0053,2.0925,2.1982,2.2218,0.0,0.0,0.0,0.0,2.3835,2.5839,2.6162,2.6654,3.0306,3.1672,3.2907,3.6556,3.8621,0.0,4.0303,4.1362,4.2548,4.3132,0.0,0.0,0.0,0.0,0.0,0.0,0.0,0.0,0.0,0.0,0.0,0.0,0.0,0.0,0.0,0.0,0.0,0.0,0.0,0.0,4.6705,4.6993,4.7001,4.6957,4.7209,4.7581,4.8122,4.8685,4.9085,4.9462,4.9606,4.9699,4.9793,4.9806,5.0039,5.0449,5.0577,5.0881,5.1342,5.0951,5.0755,5.0755,5.0387,5.0336,5.0453,4.97,4.9252,4.898,0.0,0.0,0.0,0.0,0.0,0.0,0.0,0.0,0.0,0.0,1.5856,0.0,0.0,0.0,0.0,0.0,0.0,0.0,0.0,0.0,0.0,0.0,0.0,0.0,0.0,0.0,0.0,0.0,0.0,0.0,0.0,0.0,0.0,2.0286,0.0,0.0,0.0,0.0,0.0,0.0,0.0,0.0,0.0,0.0,0.0,0.0,0.0,0.0,2.169,2.2839,2.3171,0.0,0.0,0.0,2.4096,2.5327,2.6494,2.7707,2.8513,3.1327,3.4825,3.797,3.9487,4.0303,0.0,0.0,4.3611,0.0,0.0,0.0,0.0,0.0,0.0,0.0,0.0,0.0,0.0,0.0,0.0,0.0,0.0,0.0,0.0,0.0,0.0,0.0,0.0,0.0,4.7654,4.7045,4.7165,4.7839,4.7886,4.8145,4.8662,4.9435,4.9814,5.0009,5.0364,5.0627,5.077,5.0696,5.0835,5.099,5.1332,5.1852,5.2353,5.223,5.219,5.2166,5.2011,5.1656,5.1345,5.0889,5.01,4.9318,0.0,0.0,0.0,0.0,0.0,0.0,0.0,0.0,0.0,0.0,0.0,1.5147,0.0,0.0,0.0,1.3704,1.3664,1.3423,1.3114,1.3069,0.0,0.0,0.0,0.0,0.0,0.0,0.0,0.0,0.0,0.0,0.0,1.8658,1.9473,0.0,0.0,0.0,0.0,0.0,0.0,0.0,0.0,0.0,0.0,0.0,0.0,0.0,0.0,0.0,0.0,0.0,2.3075,2.329,2.3966,0.0,0.0,0.0,2.6628,2.8239,3.1103,3.3901,3.6717,3.9896,4.0962,4.1507,4.2535,4.3567,4.4405,0.0,0.0,0.0,0.0,0.0,0.0,0.0,0.0,0.0,0.0,0.0,0.0,0.0,0.0,0.0,0.0,0.0,0.0,0.0,0.0,4.7978,4.7997,4.775,4.7993,4.866,4.8962,4.9081,4.9038,5.0167,5.0857,5.1105,5.139,5.1537,5.1632,5.1632,5.1772,5.1953,5.1953,5.238,5.2892,5.283,5.257,5.2112,5.2048,5.1479,5.0767,5.0599,5.0123,4.9462,0.0,0.0,0.0,0.0,0.0,0.0,0.0,0.0,0.0,0.0,0.0,0.0,0.0,0.0,0.0,0.0,1.2794,1.2723,1.2388,1.2203,0.0,0.0,0.0,0.0,0.0,0.0,0.0,0.0,0.0,0.0,1.7909,1.825,1.9181,0.0,2.0089,0.0,0.0,0.0,0.0,0.0,0.0,0.0,0.0,0.0,0.0,0.0,0.0,0.0,0.0,0.0,0.0,0.0,0.0,0.0,0.0,0.0,0.0,2.8369,3.2851,3.5077,3.6939,4.038,4.1495,4.2123,0.0,0.0,4.5191,0.0,0.0,0.0,0.0,0.0,0.0,0.0,0.0,0.0,0.0,0.0,0.0,0.0,0.0,0.0,0.0,0.0,0.0,0.0,0.0,4.8197,4.8594,4.8628,4.8858,4.965,4.979,4.979,4.9674,5.0737,5.143,5.1961,5.1941,5.2235,5.2744,5.2477,5.262,5.3072,5.266,5.2774,5.337,5.3251,5.2791,5.2136,5.2136,5.1521,5.0622,5.0622,5.0268,4.9652,0.0,0.0,0.0,0.0,0.0,0.0,0.0,0.0,0.0,0.0,0.0,0.0,0.0,1.3743,1.3222,1.2772,1.2386,1.1859,1.1165,1.131,1.1727,0.0,0.0,0.0,0.0,0.0,0.0,0.0,0.0,0.0,1.7601,1.7909,1.8918,2.0337,2.0316,2.007,1.9687,0.0,0.0,0.0,0.0,0.0,0.0,0.0,0.0,0.0,0.0,0.0,0.0,0.0,0.0,0.0,0.0,0.0,0.0,0.0,0.0,0.0,3.1082,3.2564,3.4061,3.7806,3.9908,4.1568,0.0,0.0,0.0,0.0,0.0,0.0,0.0,0.0,0.0,0.0,0.0,0.0,0.0,0.0,0.0,0.0,0.0,0.0,0.0,0.0,0.0,0.0,0.0,4.8618,4.9558,4.9379,4.965,5.0648,5.0222,5.0222,5.0648,5.1071,5.1376,5.187,5.1913,5.2693,5.4131,5.2792,5.3278,5.4794,5.3449,5.3155,5.3774,5.359,5.3397,5.3077,5.3077,5.2427,5.1489,5.1489,5.0867,5.0104,0.0,0.0,0.0,0.0,0.0,0.0,0.0,0.0,0.0,0.0,0.0,0.0,0.0,1.3054,1.2541,1.2027,1.159,1.1241,1.0992,1.1222,1.1663,1.2341,0.0,0.0,0.0,0.0,0.0,0.0,0.0,1.6317,1.7041,1.7397,1.8211,1.9398,1.9612,1.9996,2.0461,2.0151,0.0,0.0,0.0,0.0,0.0,0.0,0.0,0.0,0.0,0.0,0.0,0.0,0.0,0.0,0.0,0.0,0.0,0.0,0.0,2.853,3.1338,3.2555,3.3963,3.7623,3.987,4.1629,4.3872,4.5759,4.7282,0.0,0.0,0.0,0.0,0.0,0.0,0.0,0.0,0.0,0.0,0.0,0.0,0.0,0.0,0.0,0.0,0.0,0.0,0.0,0.0,0.0,4.9818,4.9758,4.9979,5.0696,5.0554,5.0837,5.1401,5.1452,5.1901,5.2594,5.3137,5.3661,5.423,5.4084,5.4377,5.4992,5.44,5.4206,5.457,5.4227,5.3593,5.2987,5.2962,5.2188,5.0984,5.1244,5.0982,5.0554,0.0,0.0,0.0,0.0,0.0,0.0,0.0,0.0,0.0,0.0,0.0,0.0,0.0,0.0,1.2301,1.1607,1.123,1.102,1.103,1.1337,1.1738,1.233,1.3481,0.0,0.0,0.0,0.0,0.0,0.0,0.0,0.0,1.7277,1.8088,1.9154,1.9287,1.9975,0.0,0.0,0.0,2.1394,0.0,0.0,2.3762,0.0,0.0,0.0,0.0,0.0,0.0,0.0,0.0,0.0,0.0,0.0,0.0,0.0,0.0,0.0,3.0756,3.1793,3.3175,3.7088,3.8859,4.0646,4.4107,4.5777,4.7138,4.9057,0.0,0.0,0.0,0.0,0.0,0.0,0.0,0.0,0.0,0.0,0.0,0.0,0.0,0.0,0.0,0.0,0.0,0.0,0.0,0.0,4.9438,4.9631,4.9993,5.0407,5.06,5.1047,5.155,5.163,5.2178,5.3039,5.3445,5.3948,5.4692,5.4745,5.5016,5.546,5.5088,5.4991,5.4695,5.4328,5.3619,5.2816,5.2622,5.1968,5.1338,5.1284,5.1313,5.132,0.0,0.0,0.0,0.0,0.0,0.0,0.0,0.0,0.0,0.0,0.0,0.0,0.0,0.0,0.0,1.1456,1.1134,1.1,1.1,1.1475,1.1971,1.2382,1.3734,0.0,0.0,0.0,0.0,0.0,0.0,0.0,0.0,0.0,1.8683,1.9724,1.9377,1.992,2.1249,0.0,2.1264,2.165,0.0,2.3461,2.3094,0.0,0.0,0.0,2.5645,2.5454,0.0,0.0,0.0,0.0,0.0,0.0,0.0,0.0,0.0,0.0,0.0,0.0,0.0,3.5625,3.6838,3.8413,4.3854,4.4914,4.5644,4.9115,0.0,0.0,0.0,0.0,0.0,0.0,0.0,0.0,0.0,0.0,0.0,0.0,0.0,0.0,0.0,0.0,0.0,0.0,0.0,4.8828,4.8853,4.9363,4.9761,4.9878,5.0431,5.0877,5.1034,5.155,5.2238,5.2929,5.3039,5.3861,5.534,5.4521,5.4964,5.6194,5.5779,5.5164,5.4324,5.374,5.3154,5.2768,5.2233,5.2299,5.2509,5.1571,5.1917,5.2695,0.0,0.0,0.0,0.0,0.0,0.0,0.0,0.0,0.0,0.0,0.0,0.0,0.0,0.0,0.0,1.1945,1.1886,1.1857,1.2053,1.2352,1.2703,1.3239,1.4594,1.5208,1.5005,1.616,1.6613,1.6086,1.6316,1.6687,0.0,0.0,0.0,0.0,1.9744,2.0544,2.1635,2.0883,0.0,0.0,2.2708,2.3678,0.0,0.0,0.0,0.0,0.0,2.6971,0.0,0.0,2.7441,2.6191,0.0,0.0,0.0,0.0,0.0,0.0,2.8784,0.0,0.0,0.0,0.0,0.0,4.0223,4.1895,4.3969,4.781,0.0,0.0,0.0,0.0,0.0,0.0,0.0,0.0,0.0,0.0,0.0,0.0,0.0,0.0,0.0,0.0,0.0,0.0,4.8597,4.8864,4.898,4.9511,5.0041,5.0455,5.1187,5.1467,5.1599,5.2302,5.2654,5.2929,5.3318,5.3718,5.4185,5.4727,5.5321,5.5641,5.5897,5.5754,5.5287,5.5016,5.4422,5.3681,5.3533,5.3069,5.2558,5.2576,5.2686,5.2816,0.0,0.0,0.0,0.0,0.0,0.0,0.0,0.0,0.0,0.0,0.0,0.0,0.0,0.0,0.0,0.0,1.2819,1.2819,1.307,1.3282,1.359,1.3886,1.5108,1.5729,1.5635,1.6613,1.6927,1.6594,1.7065,1.7442,1.754,0.0,0.0,0.0,0.0,0.0,0.0,0.0,0.0,0.0,2.3021,0.0,0.0,2.5656,2.6661,0.0,0.0,0.0,2.7783,2.9258,2.8648,0.0,0.0,0.0,0.0,0.0,0.0,0.0,0.0,0.0,0.0,0.0,0.0,0.0,3.9491,4.1249,4.3336,0.0,4.8854,0.0,0.0,0.0,0.0,0.0,0.0,0.0,0.0,0.0,0.0,0.0,0.0,0.0,0.0,0.0,0.0,4.8246,4.8355,4.8731,4.9266,4.9664,5.0222,5.0756,5.1419,5.182,5.2099,5.2515,5.2792,5.2929,5.3231,5.3747,5.434,5.4879,5.5433,5.6031,5.5962,5.5722,5.5551,5.5471,5.4852,5.4227,5.3753,5.3512,5.3612,5.3106,5.3246,5.3741,0.0,0.0,0.0,0.0,0.0,0.0,0.0,0.0,0.0,0.0,0.0,0.0,0.0,0.0,0.0,0.0,1.3872,1.3803,1.3998,1.4255,0.0,1.4388,1.5363,1.6025,1.6373,1.6841,1.7155,1.7213,1.791,1.8306,1.8405,0.0,0.0,0.0,0.0,0.0,0.0,0.0,0.0,2.2645,2.4006,2.4476,0.0,0.0,2.729,0.0,2.8427,2.8652,2.8569,2.9636,2.9655,0.0,0.0,0.0,0.0,0.0,2.7857,0.0,0.0,0.0,0.0,0.0,0.0,0.0,3.9898,4.1266,4.2627,4.7283,4.8551,0.0,0.0,0.0,0.0,0.0,0.0,0.0,0.0,0.0,0.0,0.0,0.0,0.0,0.0,4.9949,4.8743,4.8075,4.8026,4.8533,4.947,4.9903,5.0444,5.096,5.1525,5.2099,5.2377,5.2515,5.2654,5.2929,5.2929,5.3709,5.4924,5.4794,5.5349,5.6352,5.5685,5.5365,5.5265,5.5138,5.4885,5.4336,5.3495,5.3911,5.4935,5.3304,5.3689,5.4745,0.0,0.0,0.0,0.0,0.0,0.0,0.0,0.0,0.0,0.0,0.0,0.0,0.0,0.0,0.0,0.0,0.0,1.4572,0.0,0.0,1.4783,1.5261,1.5849,1.6355,1.6576,1.7237,1.7663,1.8108,1.8207,1.8503,1.9011,0.0,0.0,0.0,0.0,0.0,0.0,0.0,0.0,2.4245,2.4683,0.0,2.6245,2.7724,2.8756,2.968,2.9968,3.0102,3.0221,0.0,3.0323,3.0376,0.0,0.0,0.0,0.0,0.0,0.0,0.0,0.0,0.0,0.0,0.0,0.0,3.5525,3.6673,3.8477,4.1867,4.2812,0.0,0.0,0.0,0.0,0.0,0.0,0.0,0.0,0.0,0.0,0.0,0.0,0.0,5.1405,5.0613,4.9669,4.8625,4.8445,4.8821,4.976,5.0037,5.0444,5.0985,5.1803,5.2377,5.2377,5.2654,5.3067,5.3341,5.3341,5.3579,5.3833,5.4581,5.4719,5.4376,5.5039,5.5139,5.4829,5.481,5.4581,5.4303,5.4075,5.4404,5.4986,5.401,5.4299,5.4868,0.0,0.0,0.0,0.0,0.0,0.0,0.0,0.0,0.0,0.0,0.0,0.0,0.0,0.0,0.0,0.0,0.0,0.0,0.0,0.0,1.5403,1.5642,1.6357,1.6796,1.7092,1.7837,1.8412,1.874,1.9305,1.9706,1.9948,2.088,0.0,0.0,0.0,0.0,0.0,0.0,2.377,2.444,2.5308,0.0,2.7418,2.8954,2.9836,3.0411,3.0858,3.1269,3.1572,3.134,3.1306,0.0,0.0,2.9952,3.0028,0.0,2.9429,3.0003,0.0,0.0,0.0,3.1856,0.0,0.0,0.0,3.6207,3.7767,4.0539,4.1436,4.2334,4.4586,0.0,0.0,0.0,0.0,0.0,0.0,0.0,0.0,0.0,0.0,0.0,5.2051,5.1224,5.0193,4.8992,4.8837,4.919,4.9867,5.0439,5.0861,5.1135,5.2092,5.2641,5.2503,5.2916,5.3341,5.3725,5.3725,5.4014,5.4458,5.4606,5.4721,5.4721,5.4879,5.4813,5.4678,5.4822,5.4861,5.4696,5.4555,5.4937,5.5391,5.439,5.4474,5.4917,1.379,0.0,0.0,0.0,0.0,0.0,0.0,0.0,0.0,0.0,0.0,0.0,0.0,0.0,0.0,0.0,0.0,0.0,0.0,0.0,0.0,0.0,1.6898,1.7471,1.7881,1.8542,1.9182,1.9573,2.0476,2.0985,2.0997,2.1778,0.0,0.0,0.0,0.0,0.0,0.0,0.0,2.5061,0.0,2.7027,2.792,2.9699,3.0477,3.0567,3.1544,3.2217,3.2747,3.2547,0.0,3.1923,3.1295,3.0999,0.0,0.0,0.0,0.0,0.0,0.0,0.0,0.0,0.0,3.3747,0.0,0.0,0.0,3.9699,0.0,0.0,0.0,0.0,0.0,0.0,0.0,0.0,0.0,0.0,0.0,0.0,0.0,0.0,0.0,5.1202,5.0102,4.9332,4.9032,4.9311,4.9956,5.0795,5.1362,5.1362,5.2211,5.2699,5.275,5.3207,5.3623,5.4106,5.4106,5.4499,5.5235,5.4653,5.477,5.538,5.5051,5.4794,5.4693,5.5101,5.5203,5.5254,5.4949,5.5331,5.5796,5.4766,5.4721,5.5113,1.3454,1.3499,0.0,0.0,0.0,0.0,0.0,0.0,0.0,0.0,0.0,0.0,0.0,0.0,0.0,0.0,0.0,0.0,1.7378,0.0,0.0,0.0,0.0,0.0,1.9051,1.9406,1.9937,2.0759,2.079,2.1097,2.1558,2.2215,0.0,0.0,2.4278,0.0,0.0,0.0,2.6592,0.0,2.7863,2.763,0.0,2.8799,2.9949,3.0996,3.2376,3.3155,3.3391,0.0,3.2985,3.2721,0.0,3.2276,0.0,0.0,0.0,0.0,0.0,0.0,0.0,0.0,3.372,0.0,0.0,0.0,3.5466,3.5953,0.0,0.0,0.0,0.0,0.0,0.0,0.0,0.0,0.0,0.0,0.0,0.0,0.0,0.0,0.0,4.9515,4.9051,4.9874,4.9081,4.8927,5.0001,5.0842,5.1407,5.1407,5.2046,5.2583,5.3017,5.3094,5.3618,5.4511,5.4511,5.4537,5.4614,5.5022,5.4885,5.4253,5.5139,5.5292,5.4858,5.5369,5.5714,5.5812,5.5254,5.5406,5.5846,5.548,5.5584,5.5677,1.3165,1.3244,0.0,0.0,1.3435,0.0,0.0,0.0,0.0,0.0,0.0,0.0,0.0,0.0,0.0,0.0,0.0,0.0,0.0,0.0,0.0,0.0,0.0,0.0,0.0,2.0189,2.0601,2.1113,2.142,2.1928,2.2434,2.2837,0.0,0.0,2.5514,0.0,2.7103,0.0,0.0,0.0,0.0,0.0,0.0,3.0682,3.2256,3.3234,3.408,3.4465,3.4601,0.0,3.3947,0.0,0.0,0.0,0.0,0.0,0.0,0.0,0.0,0.0,0.0,0.0,0.0,0.0,0.0,0.0,3.4372,0.0,0.0,0.0,0.0,0.0,0.0,0.0,4.1053,0.0,0.0,0.0,0.0,0.0,0.0,0.0,0.0,0.0,0.0,0.0,4.891,4.8692,4.9824,5.041,5.0691,5.0947,5.1583,5.2276,5.2902,5.3263,5.3967,5.4805,5.4805,5.4805,5.4805,5.4904,5.4789,5.4808,5.5494,5.5765,5.5867,5.6147,5.6387,5.6446,5.6258,5.6088,5.6012,5.5679,5.5683,5.5775,1.278,0.0,0.0,0.0,0.0,0.0,0.0,0.0,0.0,0.0,0.0,0.0,1.7693,1.8022,0.0,0.0,0.0,1.9128,0.0,0.0,1.9304,0.0,0.0,0.0,0.0,0.0,2.1216,2.1522,2.203,2.2586,2.3314,2.3409,2.423,0.0,0.0,2.7229,2.8314,0.0,0.0,2.8836,2.978,3.0234,3.0641,3.2654,3.4045,3.5018,3.5244,3.5613,3.5755,3.5392,3.5005,0.0,3.5172,0.0,0.0,0.0,0.0,0.0,3.4059,0.0,0.0,0.0,0.0,0.0,0.0,0.0,0.0,0.0,0.0,0.0,0.0,0.0,0.0,0.0,0.0,0.0,0.0,0.0,0.0,0.0,0.0,0.0,0.0,0.0,0.0,4.9468,4.8236,4.8112,4.961,4.9948,5.0229,5.0636,5.1178,5.1974,5.2958,5.34,5.4181,5.5334,5.5334,5.5412,5.5569,5.5273,5.5346,5.5787,5.6106,5.6431,5.6701,5.6861,5.7048,5.708,5.7019,5.6724,5.64,5.6402,5.6251,5.6216,1.2425,1.2745,0.0,0.0,0.0,0.0,0.0,0.0,0.0,0.0,0.0,0.0,0.0,0.0,0.0,0.0,0.0,2.1343,2.1136,0.0,2.0911,0.0,0.0,0.0,0.0,0.0,0.0,0.0,2.2316,2.3028,2.3941,2.3835,2.4188,0.0,2.6402,2.7431,2.8142,2.9278,3.0801,3.2435,3.1622,3.263,3.4569,0.0,3.4242,3.5302,3.5743,0.0,0.0,3.5822,3.6025,0.0,0.0,0.0,0.0,0.0,0.0,0.0,0.0,0.0,0.0,0.0,0.0,0.0,0.0,0.0,3.5569,0.0,0.0,0.0,0.0,0.0,0.0,0.0,0.0,0.0,0.0,0.0,0.0,0.0,0.0,0.0,0.0,0.0,0.0,4.8363,4.6994,4.7057,4.9308,4.9707,5.0211,5.0786,5.0864,5.1675,5.3373,5.34,5.4262,5.5883,5.5883,5.6196,5.6745,5.6745,5.6771,5.6824,5.7399,5.7354,5.7125,5.7292,5.7422,5.7613,5.717,5.705,5.7272,5.7818,5.771,5.732,0.0,0.0,0.0,0.0,0.0,0.0,0.0,1.5623,0.0,0.0,0.0,0.0,0.0,0.0,2.0367,0.0,0.0,2.2226,2.2777,2.199,0.0,0.0,0.0,2.1992,0.0,0.0,0.0,0.0,0.0,2.3349,2.4266,2.3953,2.439,2.5626,0.0,2.8347,0.0,0.0,0.0,0.0,0.0,3.4274,3.6593,0.0,0.0,3.6331,3.6481,3.6875,0.0,3.7188,3.6824,3.6567,3.7282,3.736,3.7288,3.7734,3.809,0.0,0.0,0.0,3.8998,3.6406,0.0,0.0,0.0,0.0,0.0,0.0,0.0,0.0,0.0,0.0,0.0,0.0,0.0,0.0,0.0,0.0,0.0,0.0,0.0,0.0,0.0,0.0,0.0,4.7054,4.6967,4.751,4.8786,4.9113,4.9766,5.076,5.0786,5.1622,5.3373,5.3889,5.4733,5.5909,5.6179,5.6494,5.6798,5.6798,5.7007,5.7373,5.7276,5.7447,5.7694,5.7542,5.7607,5.7689,5.8001,5.8101,5.8099,5.762,5.7309,5.6926,1.2193,0.0,0.0,0.0,0.0,0.0,0.0,0.0,0.0,0.0,1.7806,0.0,1.9337,0.0,2.1062,0.0,2.2326,2.299,2.365,2.3193,0.0,2.5138,2.3636,0.0,0.0,0.0,0.0,0.0,0.0,2.4284,2.5094,2.4776,2.5145,2.6266,0.0,2.8968,3.0122,0.0,3.353,0.0,0.0,3.5919,0.0,0.0,3.7184,3.7032,0.0,3.7384,3.7879,3.8122,3.7954,3.8022,3.9129,3.9147,3.8758,3.9494,3.9646,3.9618,3.914,3.9962,0.0,0.0,3.829,0.0,0.0,0.0,0.0,0.0,0.0,0.0,0.0,0.0,0.0,0.0,0.0,0.0,0.0,3.9194,0.0,0.0,0.0,0.0,0.0,0.0,4.5336,4.6242,4.5929,4.6455,0.0,0.0,4.9061,5.0568,5.0594,5.1538,5.3476,5.399,5.4839,5.6223,5.6521,5.6941,5.7425,5.7425,5.7712,5.8261,5.7837,5.7888,5.8285,5.806,5.7896,5.8,5.8276,5.8548,5.8519,5.7839,5.7295,5.6879,0.0,0.0,0.0,0.0,1.4331,0.0,0.0,0.0,1.6559,0.0,1.8126,1.8885,1.9687,2.0873,2.197,2.2545,2.3231,0.0,2.4188,2.4145,0.0,0.0,2.5162,2.5545,2.6288,0.0,0.0,0.0,0.0,0.0,2.6374,2.6277,2.6399,2.6854,2.7975,0.0,3.0486,3.2534,3.4282,3.5804,3.6792,3.7417,3.7789,3.8385,0.0,3.7461,3.7583,3.7989,3.8608,3.8731,3.9411,4.0432,4.0778,4.1045,4.1364,4.1448,4.1803,4.1818,4.0474,4.0979,4.1429,3.9572,0.0,0.0,0.0,0.0,4.0939,0.0,0.0,0.0,0.0,0.0,0.0,0.0,0.0,0.0,0.0,0.0,0.0,0.0,0.0,0.0,0.0,4.1869,4.2395,4.594,4.4184,4.4281,0.0,0.0,4.8184,5.03,5.0405,5.154,5.3708,5.3836,5.4892,5.6771,5.6798,5.7399,5.847,5.8497,5.881,5.9333,5.89,5.88,5.902,5.8574,5.8454,5.8679,5.822,5.808,5.8237,5.8286,5.7655,5.6861,1.2049,1.2842,1.3624,0.0,1.4299,1.504,0.0,0.0,0.0,0.0,1.9483,2.0449,2.1227,2.2111,2.2941,2.3871,2.4408,0.0,0.0,0.0,0.0,2.8073,2.6791,2.6661,2.8069,2.6285,0.0,2.6122,0.0,0.0,2.6374,2.6277,2.6503,2.7132,0.0,0.0,3.1225,3.2793,3.5108,3.774,3.789,3.8482,0.0,0.0,3.8825,3.8962,3.9209,3.9176,3.9142,3.9969,4.0418,4.0778,4.1387,4.2033,4.2512,4.2233,4.2712,4.343,4.2861,4.3086,4.3323,4.2503,4.194,4.1414,0.0,0.0,0.0,0.0,0.0,0.0,0.0,0.0,0.0,0.0,0.0,0.0,0.0,0.0,0.0,0.0,0.0,0.0,4.0681,4.2075,4.3258,4.4121,4.3944,0.0,0.0,0.0,0.0,4.9337,5.0469,5.1838,5.3503,5.4246,5.5332,5.6577,5.7271,5.7853,5.8289,5.8455,5.8601,5.8732,5.8017,5.8063,5.843,5.7693,5.7575,5.8102,5.7951,5.757,5.7025,5.7206,5.7021,5.6542,1.2064,0.0,0.0,1.4477,0.0,0.0,1.6449,0.0,0.0,1.884,1.9952,0.0,2.1714,2.2903,2.3899,2.4663,2.5236,0.0,0.0,0.0,0.0,2.8815,2.8295,2.8491,2.9526,2.8043,0.0,2.7391,0.0,0.0,2.7062,2.696,2.7195,2.7761,2.8212,2.9481,3.1305,3.3571,3.6121,3.8445,3.8293,0.0,0.0,3.9633,3.9641,3.9881,4.0706,4.0389,3.9724,4.0591,4.1122,4.1538,4.2239,4.3014,4.3525,4.312,4.365,4.4372,4.3974,4.4294,4.4608,4.4433,4.4241,4.3903,4.3387,4.3857,4.4514,0.0,0.0,0.0,0.0,0.0,0.0,0.0,0.0,0.0,0.0,0.0,0.0,0.0,0.0,0.0,3.9122,4.1024,4.2358,4.2356,0.0,0.0,0.0,0.0,0.0,4.9086,5.0393,5.1954,5.3605,5.4246,5.5252,5.6206,5.6792,5.7372,5.7939,5.814,5.8276,5.8603,5.8027,5.7925,5.8289,5.7697,5.745,5.7574,5.7272,5.6663,5.5791,5.5926,5.5993,5.6001,0.0,0.0,0.0,0.0,0.0,0.0,0.0,1.7625,0.0,1.9349,0.0,2.1199,2.1881,2.3499,2.4719,0.0,0.0,2.6813,2.7031,2.8271,2.8911,2.8712,2.991,3.0462,3.0571,2.9977,0.0,0.0,0.0,0.0,2.7941,2.7746,2.8009,2.8485,2.872,0.0,0.0,3.4742,3.7018,0.0,3.8568,3.9274,4.0285,4.0666,4.0626,4.0604,4.1891,4.1594,4.0614,4.1263,4.1798,4.249,4.3185,4.3802,4.4326,4.4111,4.4618,4.4997,4.4525,4.4869,4.545,4.577,4.6202,4.6428,4.606,4.6437,4.7029,4.778,4.7421,0.0,0.0,0.0,0.0,0.0,0.0,0.0,0.0,0.0,0.0,0.0,0.0,0.0,0.0,3.9521,4.0659,0.0,0.0,0.0,0.0,0.0,0.0,4.9152,5.0377,0.0,5.381,0.0,5.4811,5.5804,5.5883,5.6568,5.7564,5.7582,5.79,5.8549,5.8217,5.8136,5.8349,5.785,5.735,5.6872,5.6137,5.5347,5.4574,5.4574,5.4798,5.5091,0.0,0.0,0.0,0.0,0.0,1.7807,1.8668,1.9534,2.0426,2.145,2.2351,0.0,2.379,2.4564,2.5322,2.611,2.6653,0.0,0.0,0.0,0.0,3.1052,3.101,3.0988,3.1373,3.0259,2.9619,0.0,0.0,0.0,2.7941,2.7957,2.8167,2.8714,2.8854,0.0,3.2943,3.5976,0.0,3.8881,3.9946,4.0706,4.1181,4.1415,4.1625,4.1556,4.212,4.2051,4.1885,4.2646,4.3185,4.3559,4.3927,4.4347,4.4693,4.4719,4.5183,4.5668,4.593,4.6263,4.662,4.7159,4.7056,4.7012,4.7569,4.71,4.6974,4.8299,4.8023,4.7631,4.7355,0.0,0.0,0.0,0.0,0.0,0.0,0.0,0.0,0.0,0.0,0.0,0.0,0.0,0.0,0.0,0.0,0.0,0.0,0.0,0.0,0.0,5.0724,0.0,0.0,0.0,5.4755,5.563,5.6103,5.6581,5.6683,5.7077,5.7344,5.741,5.7184,5.7258,5.774,5.6548,5.5757,5.5311,5.4839,5.4388,5.3936,5.3176,5.3327,5.3831,0.0,0.0,0.0,0.0,0.0,0.0,0.0,2.1288,0.0,2.2245,2.2996,2.3704,2.4422,2.5308,2.6149,2.7027,2.7931,2.8929,2.9809,3.0437,3.0887,3.1296,3.152,0.0,3.1841,0.0,3.0519,2.9702,0.0,0.0,0.0,2.7811,2.8041,2.8695,2.9846,3.1671,0.0,0.0,0.0,3.928,4.0529,4.145,4.1978,4.2356,4.2707,4.2837,4.3226,4.345,4.3519,4.3472,4.3852,4.4206,4.4356,4.4663,4.5086,4.5086,4.5894,4.6702,4.6945,4.7656,4.8412,4.8221,4.8433,4.8647,4.8492,4.848,4.8762,4.9499,4.9332,4.8581,4.6823,4.4706,0.0,0.0,0.0,0.0,0.0,0.0,0.0,0.0,0.0,0.0,0.0,0.0,0.0,0.0,0.0,0.0,0.0,0.0,0.0,0.0,0.0,0.0,0.0,0.0,0.0,5.5365,5.5917,5.607,5.5715,5.6695,5.6932,5.6559,5.6548,5.6516,5.6448,5.5436,5.4868,5.457,5.3972,5.3521,5.3068,5.2459,5.2496,5.2855,0.0,1.628,0.0,0.0,1.937,0.0,2.1647,2.2819,2.3623,2.2957,2.3486,2.4317,2.5056,2.6091,2.7033,2.784,2.9117,3.0082,3.0385,3.1226,3.1659,3.1412,3.1962,3.2333,3.224,3.2105,3.1556,0.0,0.0,0.0,0.0,0.0,0.0,0.0,0.0,0.0,0.0,0.0,3.8552,3.9966,4.1114,4.2153,4.3043,4.3431,4.3808,4.4179,4.4347,4.4783,4.4937,4.4161,4.4229,4.4714,4.472,4.4908,4.5331,4.5453,4.6556,4.7714,4.7835,4.8851,4.9672,4.9229,4.9732,5.0113,4.94,4.9684,5.0297,5.046,5.0262,4.9308,4.6785,4.5091,0.0,0.0,0.0,0.0,0.0,0.0,0.0,0.0,0.0,0.0,0.0,0.0,0.0,0.0,0.0,0.0,0.0,0.0,0.0,0.0,0.0,5.2393,5.3814,0.0,5.5154,0.0,5.5543,5.5397,5.4894,5.6044,5.6367,5.5812,5.5937,5.5654,5.5312,5.4695,5.4248,5.4098,5.337,5.2916,5.2459,5.2154,5.2138,5.1991,0.0,0.0,0.0,0.0,0.0,0.0,0.0,2.4094,2.4974,2.4372,2.4861,2.5722,2.6736,2.7266,2.7916,2.895,2.9913,3.0711,3.1856,3.2329,3.2612,3.252,3.2931,3.3038,3.2666,3.2516,3.2363,0.0,0.0,0.0,0.0,0.0,0.0,0.0,0.0,0.0,0.0,3.7979,3.9735,4.1738,4.2305,4.3196,4.4286,4.4617,4.5007,4.5171,4.4697,4.5095,4.5686,4.5182,4.5014,4.5044,4.4812,4.4988,4.5453,4.6059,4.692,4.7835,4.8677,4.9213,4.9629,5.0419,5.0141,4.9743,5.054,4.9956,4.9418,5.024,4.9777,4.8612,4.7008,4.7376,4.7401,0.0,0.0,0.0,0.0,0.0,0.0,0.0,0.0,0.0,0.0,0.0,0.0,0.0,0.0,0.0,0.0,0.0,0.0,4.8572,0.0,5.0569,5.188,5.416,0.0,5.4511,5.4991,5.5034,5.4842,5.4945,5.5139,5.5112,5.4927,5.4721,5.4546,5.4397,5.3972,5.3219,5.3243,5.2764,5.2,5.2,5.1885,5.1492,0.0,0.0,0.0,0.0,0.0,0.0,0.0,2.5495,2.6379,2.6387,2.6773,2.7484,2.832,2.894,2.9597,3.0534,3.1285,3.2002,3.2364,3.278,3.2911,3.2667,3.3073,3.3282,3.2999,3.3276,3.314,0.0,0.0,0.0,0.0,0.0,0.0,0.0,0.0,3.6662,3.7956,3.9757,4.1212,4.248,4.3671,4.4371,4.4844,4.5568,4.6083,4.6299,4.6347,4.668,4.7167,4.6761,4.6154,4.5469,4.55,4.5822,4.6192,4.6437,4.7652,4.8953,4.9445,5.0227,5.1084,5.1107,5.0817,5.0639,5.1129,5.0432,4.9996,5.1012,5.0438,4.9455,4.8028,4.7527,4.7348,0.0,0.0,0.0,0.0,0.0,0.0,0.0,0.0,0.0,0.0,0.0,0.0,0.0,0.0,0.0,0.0,0.0,0.0,4.7292,0.0,5.2036,5.2877,5.4741,5.5472,5.4753,5.5143,5.4731,5.367,5.4606,5.4618,5.4017,5.4299,5.4034,5.3203,5.3518,5.3365,5.3067,5.2593,5.233,5.2307,5.1562,5.124,5.0973,1.9649,0.0,2.2136,0.0,2.3832,2.5068,2.5794,2.7072,2.8059,2.8489,2.8996,2.9361,2.9628,3.029,3.1105,3.1811,3.2566,3.2887,3.3208,3.3517,3.3429,3.3037,3.3441,0.0,3.3418,3.3816,3.386,3.3579,3.3125,0.0,0.0,0.0,0.0,0.0,3.6937,3.8398,3.9543,4.1279,4.2548,4.3471,4.4579,4.5349,4.5802,4.6288,4.6965,4.7497,4.7461,4.7652,4.8101,4.7819,4.7002,4.6238,4.6488,4.6612,4.6861,4.7232,4.8506,4.9867,5.0142,5.1178,5.2015,5.1865,5.1536,5.1341,5.1747,5.1043,5.0517,5.1117,5.0622,4.9784,4.878,4.8035,4.7952,0.0,0.0,0.0,0.0,0.0,0.0,0.0,0.0,4.3018,4.2415,0.0,0.0,0.0,0.0,0.0,0.0,0.0,0.0,0.0,0.0,0.0,0.0,5.5237,5.5842,5.4887,5.506,5.4458,5.3344,5.4239,5.4027,5.3222,5.3618,5.3181,5.2331,5.2688,5.2832,5.2392,5.1939,5.1769,5.1944,5.103,5.0703,5.0478,2.1559,2.2523,2.3228,2.3803,2.5328,2.6599,2.7042,2.8609,2.992,3.0389,3.1413,3.1659,3.0583,3.1021,3.1743,3.2625,3.294,3.3534,3.4274,3.4358,3.427,0.0,0.0,3.422,3.3817,3.4232,3.4694,3.5332,0.0,0.0,3.5376,0.0,3.5962,3.7011,3.8143,3.953,4.1315,4.2221,4.3539,4.51,4.5123,4.5826,4.6965,4.6965,4.7654,4.8526,4.7572,4.7611,4.8178,4.7631,4.7432,4.7432,4.7432,4.7432,4.7683,4.8553,4.9307,5.0017,5.1005,5.1672,5.2245,5.2861,5.2218,5.1566,5.2498,5.179,5.0767,5.0107,4.9662,4.9348,4.8924,4.9595,5.0096,4.9785,0.0,0.0,0.0,0.0,0.0,0.0,4.3337,4.1695,4.1456,0.0,0.0,0.0,0.0,0.0,0.0,0.0,0.0,4.7559,5.049,0.0,5.2071,5.5149,5.5842,5.4511,5.4511,5.4415,5.429,5.3618,5.3056,5.2656,5.2742,5.2696,5.2307,5.2392,5.2,5.1154,5.1221,5.0954,5.0696,5.0762,5.0478,5.0165,2.326,2.4107,2.496,2.554,2.6766,2.8064,2.8816,2.9937,3.0907,3.1885,3.2549,3.3032,3.3206,3.3117,3.3506,0.0,3.4056,3.4302,0.0,3.4972,3.4944,3.5377,3.5257,3.5323,3.5473,3.5749,3.623,3.664,0.0,0.0,0.0,3.8179,3.8925,4.01,4.0918,4.182,4.2741,4.3636,4.4446,4.5146,4.5762,4.6422,4.6965,4.7232,4.763,4.8158,4.8118,4.8435,4.8903,4.8857,4.8935,4.8935,4.8935,4.8812,4.8762,4.9138,4.9896,5.0835,5.1335,5.1838,5.2139,5.2473,5.1895,5.1341,5.1774,5.1514,5.1014,5.0213,5.034,5.0626,5.0207,5.0469,5.0759,5.0933,0.0,0.0,0.0,0.0,0.0,0.0,0.0,4.4284,0.0,4.3102,0.0,0.0,0.0,0.0,0.0,0.0,0.0,0.0,5.0962,0.0,5.3173,5.4834,5.5313,5.4511,5.4241,5.3802,5.3319,5.2903,5.2486,5.2091,5.2181,5.1633,5.0795,5.1319,5.136,5.1107,5.0825,5.0839,5.1002,5.0565,5.0165,4.9695,2.4679,2.5399,2.6139,2.7033,2.8059,2.9186,3.0048,3.1137,3.2199,3.3025,3.3683,3.4206,3.4818,3.4652,0.0,3.5139,3.5175,3.5412,3.5962,3.5805,3.5972,3.6666,3.6276,3.6322,3.6862,0.0,0.0,3.7846,3.8656,3.946,4.0083,4.0497,4.1088,4.1794,4.2587,4.3122,4.3598,4.4451,4.5105,4.5692,4.6288,4.6831,4.7232,4.7364,4.7762,4.8026,4.8445,4.8837,4.9202,4.9461,4.959,4.959,4.9719,4.9748,4.9849,4.9849,5.0458,5.1346,5.1721,5.1936,5.2189,5.2178,5.1691,5.1196,5.1172,5.1321,5.1207,5.0522,5.0819,5.1116,5.0701,5.0891,5.127,5.1757,0.0,5.1541,0.0,0.0,0.0,0.0,0.0,0.0,0.0,4.4792,0.0,0.0,0.0,0.0,0.0,0.0,0.0,4.827,5.1928,0.0,5.4024,5.4815,5.4997,5.4511,5.3997,5.3478,5.2654,5.2377,5.196,5.1541,5.1653,5.101,5.0151,5.0386,5.0378,5.0273,5.0179,5.026,5.0574,5.0164,4.9695,4.9381,2.5848,2.6452,0.0,0.0,2.9148,0.0,3.0875,3.2406,3.3552,3.4049,3.4645,3.5306,3.5605,3.5772,3.579,3.5754,0.0,0.0,0.0,3.6859,3.7066,3.7537,3.7211,3.7306,3.8087,3.7626,3.8047,3.9204,4.0309,4.113,4.1786,4.2235,4.2504,4.2504,4.3151,4.3799,4.4232,4.4902,4.5739,4.6476,4.6855,4.7255,4.7545,4.7521,4.7762,4.8026,4.8445,4.8837,4.9202,4.9461,4.959,4.9744,5.0026,5.041,5.0639,5.0614,5.1068,5.1669,5.1944,5.2109,5.2137,5.2137,5.1539,5.1026,5.1043,5.1239,5.1402,5.1112,5.1186,5.1201,5.0634,5.1213,5.1795,5.2023,5.1995,5.1741,5.0942,0.0,0.0,0.0,0.0,0.0,0.0,4.5551,4.6366,0.0,0.0,0.0,0.0,0.0,4.8311,5.121,5.337,5.45,5.4727,5.5008,5.4813,5.4376,5.3725,5.3067,5.2377,5.196,5.1516,5.1095,5.089,5.0556,4.9985,4.9759,4.9421,4.8974,4.9182,4.9269,4.9299,4.9452,4.9516,4.9381,0.0,0.0,2.9132,2.9824,3.0631,3.1493,3.2588,3.3094,3.3916,3.5389,3.5849,3.6201,3.696,3.7538,3.7594,3.6997,3.6439,3.6675,3.7677,3.775,3.8086,3.8708,3.868,3.8886,3.9698,3.9636,4.0199,4.1817,4.1957,4.2514,4.3228,4.364,4.3914,4.4188,4.4732,4.5048,4.5434,4.5704,4.6412,4.74,4.7131,4.7471,4.805,4.7666,4.7762,4.8026,4.8445,4.8837,4.9202,4.9461,4.9719,5.0052,5.0611,5.1126,5.1536,5.1123,5.0935,5.1092,5.1705,5.1523,5.1308,5.1782,5.1918,5.202,5.22,5.2182,5.2156,5.2182,5.2008,5.175,5.1717,5.1802,5.1745,5.1766,5.1413,5.08,4.9808,0.0,0.0,0.0,4.7216,4.7007,4.7128,4.7328,4.6674,0.0,0.0,0.0,0.0,4.7819,4.9522,5.1681,5.3061,5.4039,5.4447,5.3968,5.3791,5.3725,5.3067,5.2515,5.2377,5.1656,5.1071,5.0813,5.0508,4.9937,4.9292,4.9264,4.9014,4.8657,4.8588,4.8703,4.8962,4.8875,4.8737,4.8591,2.8538,2.9281,2.9984,3.0762,3.1659,3.2714,3.3426,3.3935,3.4823,3.5997,3.6349,3.6664,3.7255,3.793,3.8231,3.8021,3.7773,3.7658,3.8009,3.8379,3.8774,3.9445,3.9349,3.9779,4.0882,4.0634,4.1179,4.2581,4.2797,4.3328,4.4051,4.4693,4.495,4.5163,4.5577,4.5965,4.6215,4.6118,4.6735,4.7702,4.7313,4.7532,4.793,4.8016,4.8282,4.8572,4.9215,4.9818,5.0212,5.0474,5.0713,5.0844,5.1535,5.1923,5.2024,5.1739,5.1805,5.1865,5.2093,5.1803,5.1534,5.1765,5.2062,5.2383,5.2586,5.2709,5.2826,5.3164,5.263,5.2208,5.2428,5.2093,5.1586,5.1213,5.0559,4.9807,4.885,4.8201,0.0,4.8624,4.8362,4.842,4.903,4.8992,4.8105,4.6024,0.0,0.0,4.7343,4.9661,5.1175,5.1774,5.2805,5.3412,5.3694,5.3348,5.313,5.2826,5.2529,5.209,5.1427,5.1254,5.0809,5.003,4.9843,4.9532,4.9003,4.8835,4.8538,4.8203,4.8281,4.811,4.8167,4.7926,4.7878,4.7648,2.9441,3.0066,3.0567,3.1679,3.2753,3.3541,3.4053,3.5007,3.5754,3.6349,3.6757,3.7277,3.7663,3.8212,3.8629,3.887,3.9355,3.9199,3.829,3.8983,3.9545,3.9815,3.9959,4.0535,4.172,4.1352,4.1756,4.2829,4.324,4.3905,4.4701,4.5453,4.5811,4.5733,4.6288,4.6519,4.6884,4.6711,4.7147,4.8076,4.7724,4.7714,4.804,4.8694,4.9108,4.9291,5.027,5.0955,5.1355,5.1646,5.166,5.1691,5.2517,5.2492,5.2232,5.2488,5.2922,5.3044,5.2571,5.2352,5.2203,5.1954,5.2252,5.2685,5.2862,5.3153,5.3469,5.381,5.3304,5.2826,5.2714,5.2264,5.153,5.0247,4.9728,4.9007,4.7783,0.0,4.8067,4.919,4.9184,4.9386,5.0385,5.0313,4.9624,4.8325,5.0142,5.0696,0.0,5.1511,5.2525,5.1846,5.2541,5.2908,5.2712,5.2982,5.259,5.184,5.2192,5.1664,5.0295,5.0756,5.0287,4.9202,4.9203,4.9128,4.8743,4.8499,4.8086,4.7693,4.7678,4.7581,4.7242,4.692,4.6807,4.6781,3.1524,3.204,3.256,3.3856,3.4109,3.4581,3.5253,3.5474,3.607,3.7107,3.7877,3.8632,3.9308,4.0125,4.0611,4.0684,4.1133,4.0843,3.9623,4.0005,4.0444,4.0736,4.1462,4.2018,4.247,4.2655,4.3078,4.3752,4.4101,4.4768,4.5475,4.6397,4.6717,4.6588,4.7422,4.7749,4.7614,4.7654,4.8315,4.9541,4.8555,4.8836,4.9883,4.9679,4.994,5.0454,5.0663,5.1114,5.1778,5.1778,5.179,5.2078,5.2621,5.3036,5.3243,5.3269,5.3583,5.3737,5.2183,5.2178,5.2577,5.2588,5.3444,5.4185,5.4303,5.4357,5.4456,5.4456,5.395,5.336,5.2798,5.263,5.1646,4.8864,4.8957,4.8651,4.6328,0.0,4.878,4.9277,5.0169,5.0933,5.1033,5.037,4.9893,4.9587,4.9064,4.9166,5.0078,5.0607,5.1142,5.1697,5.2364,5.2385,5.1692,5.2297,5.2094,5.0971,5.1605,5.1247,5.0017,4.9671,4.9109,4.8332,4.8402,4.8163,4.7803,4.7904,4.7648,4.7208,4.698,4.6823,4.6745,4.6355,4.6198,4.6252,3.1895,3.2415,3.3102,3.4239,3.4765,3.5258,3.5885,3.6402,3.6998,3.7892,3.8874,3.9635,4.0187,4.0873,4.1474,4.1424,4.1807,4.1786,4.1163,4.1198,4.1203,4.1645,4.223,4.2958,4.3681,4.4321,4.4746,4.4968,4.5377,4.5886,4.642,4.7205,4.7477,4.7516,4.7981,4.8334,4.8582,4.8297,4.8882,4.9806,4.931,4.9422,5.002,5.0479,5.1086,5.1768,5.2316,5.2987,5.3394,5.3663,5.3472,5.3192,5.3452,5.3479,5.34,5.34,5.3605,5.3752,5.3236,5.3186,5.3266,5.3833,5.4249,5.4607,5.4817,5.4948,5.5074,5.5074,5.4597,5.4063,5.3782,5.3164,5.2014,5.0169,4.9302,0.0,0.0,4.7969,4.8837,4.975,5.0554,5.1041,5.1252,5.0634,5.0068,4.9721,4.9685,4.9803,5.0405,5.1061,5.1534,5.1709,5.1804,5.1476,5.0973,5.1427,5.1046,4.9998,5.0567,5.023,4.8762,4.8911,4.8473,4.7795,4.805,4.8067,4.7767,4.7704,4.7502,4.6891,4.6596,4.6282,4.5879,4.5578,4.5273,4.5047,3.2601,3.3058,3.3534,3.4658,3.5407,3.6088,3.6478,3.7297,3.8028,3.8629,3.9523,4.0308,4.0932,4.1514,4.2059,4.2312,4.2688,4.2841,4.2816,4.2467,4.2518,4.2562,4.3152,4.4031,4.5046,4.5511,4.5939,4.6051,4.6555,4.7091,4.7493,4.8026,4.8246,4.8474,4.859,4.9015,4.9435,4.903,4.9427,5.0138,4.9883,5.0035,5.0479,5.1445,5.2216,5.2878,5.3974,5.4643,5.5022,5.5306,5.4987,5.4393,5.4236,5.3922,5.3583,5.3712,5.3805,5.394,5.4394,5.41,5.4066,5.4937,5.5001,5.492,5.513,5.5373,5.5496,5.5496,5.5131,5.4765,5.4625,5.3696,5.2519,5.1125,0.0,0.0,0.0,4.8686,4.939,5.0481,5.0909,5.127,5.1468,5.096,5.0438,4.9935,5.063,5.0929,5.0835,5.1583,5.191,5.1557,5.1138,5.0867,5.0487,5.0662,5.0081,4.919,4.9744,4.9301,4.7803,4.8088,4.7934,4.7328,4.7605,4.7591,4.749,4.7457,4.7208,4.6596,4.6448,4.6002,4.5405,4.4805,4.4504,4.4112,3.4719,3.4992,3.5118,3.5942,3.6497,3.6942,3.7315,3.8028,3.8766,3.9221,4.024,4.1364,4.2116,4.2616,4.328,4.3999,4.4127,4.405,4.4008,4.4419,4.4208,4.3488,4.4525,4.5552,4.6401,4.5976,4.6262,4.6978,4.7288,4.797,4.8719,4.9198,4.9392,4.9202,4.97,4.9912,4.9854,4.983,5.0258,5.1114,5.0579,5.1092,5.2253,5.2302,5.2903,5.3658,5.41,5.4898,5.556,5.5435,5.5273,5.4942,5.4393,5.4184,5.4131,5.4524,5.4746,5.4826,5.4853,5.4646,5.4692,5.5566,5.5634,5.5557,5.5798,5.5681,5.5496,5.5496,5.5468,5.5271,5.4681,5.4282,5.302,5.0122,0.0,0.0,4.773,4.9755,5.1425,5.1319,5.1755,5.2117,5.2184,5.1571,5.1239,5.1258,5.1281,5.1571,5.2068,5.1897,5.161,5.1168,5.0842,5.0487,5.0129,5.0012,4.9512,4.8649,4.9438,4.9084,4.7886,4.744,4.7214,4.6978,4.6689,4.6495,4.6558,4.6713,4.6596,4.6596,4.5853,4.5405,4.5256,4.4504,4.4201,4.4071,3.4974,3.5339,3.576,3.6442,3.7166,3.7689,3.8158,3.905,4.0046,4.0491,4.1574,4.2591,4.3134,4.3485,4.4058,4.4982,4.5068,4.4947,4.4947,4.5555,4.5642,4.5147,4.6183,4.6917,4.7354,4.7341,4.7774,4.8246,4.839,4.8771,4.9221,4.9365,4.9557,4.9818,5.0009,5.0151,5.0383,5.064,5.0901,5.1211,5.1575,5.1901,5.2377,5.2654,5.3457,5.4606,5.4694,5.5201,5.6029,5.5845,5.5408,5.4994,5.4393,5.4315,5.4576,5.5226,5.5478,5.5525,5.6131,5.5393,5.4855,5.6334,5.639,5.6193,5.68,5.6725,5.6676,5.6437,5.6437,5.6121,5.5269,5.4706,5.3951,5.2559,0.0,5.123,5.0407,5.0685,5.1045,5.1045,5.1238,5.1432,5.1433,5.1044,5.0931,5.1108,5.1258,5.1476,5.1924,5.1689,5.1387,5.0842,5.0487,5.0104,4.9719,4.9906,4.9554,4.867,4.895,4.8772,4.7981,4.744,4.7214,4.7333,4.6842,4.6758,4.6917,4.6366,4.6029,4.5735,4.5144,4.4826,4.4571,4.4247,4.4071,4.3767,3.576,3.5962,3.6348,3.6904,3.7743,3.8514,3.8947,4.0019,4.1104,4.1559,4.2544,4.3505,4.4071,4.4432,4.4963,4.589,4.5996,4.6201,4.6201,4.681,4.7105,4.6618,4.7355,4.7794,4.7941,4.8095,4.8529,4.9124,4.8961,4.9248,4.9818,4.9818,4.9961,5.0246,5.0246,5.053,5.0837,5.1095,5.1352,5.1656,5.2213,5.2515,5.2654,5.2792,5.3759,5.4822,5.5037,5.5632,5.6167,5.619,5.583,5.5282,5.4863,5.4997,5.5471,5.5961,5.6057,5.6185,5.7011,5.6142,5.5426,5.7064,5.7121,5.6926,5.7416,5.7398,5.7136,5.6893,5.6771,5.651,5.585,5.5149,5.4534,5.4101,5.2916,5.2123,5.2034,5.1604,5.1336,5.145,5.1371,5.1261,5.1035,5.0758,5.0667,5.0918,5.1089,5.1296,5.1854,5.1636,5.1346,5.0715,5.0487,4.9976,4.9461,4.947,4.9215,4.8828,4.8391,4.814,4.7981,4.7162,4.6843,4.6962,4.6517,4.6523,4.6499,4.5866,4.5406,4.5227,4.478,4.4379,4.4102,4.4096,4.3767,4.331,3.7421,3.7421,3.7421,3.7421,3.8503,3.9375,3.9785,4.0972,4.1867,4.2309,4.3157,4.3967,4.4857,4.5342,4.589,4.6805,4.7264,4.7444,4.7444,4.8194,4.8294,4.7817,4.7794,4.7941,4.84,4.7895,4.8159,4.9509,4.9015,4.9463,5.0696,5.0696,5.0696,5.0696,5.0696,5.0837,5.1211,5.1211,5.1656,5.2377,5.2377,5.2654,5.2929,5.2929,5.3558,5.4391,5.5318,5.5941,5.6245,5.666,5.6405,5.5909,5.5909,5.6449,5.701,5.6712,5.6509,5.6441,5.7038,5.6766,5.6568,5.7423,5.7756,5.7812,5.7812,5.7339,5.6921,5.6921,5.6648,5.6375,5.6347,5.5538,5.4813,5.4183,5.3833,5.3185,5.2018,5.2579,5.3052,5.2723,5.2416,5.2062,5.1476,5.082,5.0596,5.0949,5.0857,5.1269,5.2068,5.1721,5.1471,5.112,5.0715,5.0078,4.9072,4.8706,4.8714,4.8828,4.7628,4.74,4.7957,4.6514,4.5898,4.5684,4.5236,4.5145,4.5281,4.4779,4.4858,4.5341,4.4464,4.4123,4.4201,4.3767,4.331,4.3004,3.7421,3.7796,3.8303,3.8728,3.9778,4.0762,4.1032,4.2039,4.281,4.3258,4.3937,4.4907,4.5828,4.6315,4.7022,4.8265,4.8074,4.8256,4.8741,4.8674,4.86,4.8758,4.8415,4.84,4.8835,4.8696,4.8961,4.9961,4.9795,5.0103,5.0696,5.0696,5.0696,5.0696,5.0696,5.0696,5.0837,5.1376,5.182,5.2099,5.2515,5.2792,5.2929,5.3204,5.397,5.4705,5.4834,5.5683,5.6608,5.6327,5.6327,5.6536,5.681,5.6927,5.7091,5.7195,5.7131,5.6956,5.7146,5.7493,5.786,5.777,5.7679,5.7795,5.8048,5.8242,5.8297,5.763,5.7724,5.7651,5.6549,5.6123,5.5562,5.4501,5.4338,5.3944,5.3185,5.2978,5.2842,5.2723,5.2298,5.1665,5.0793,5.0345,5.0244,5.0592,5.1118,5.1478,5.1721,5.1497,5.112,5.0715,5.0359,4.9719,4.8706,4.9313,4.9316,4.8426,4.8619,4.8467,4.7981,4.7237,4.6703,4.6133,4.5714,4.5399,4.5213,4.4133,4.4019,4.4267,4.3552,4.332,4.361,4.3339,4.3157,4.2851,3.8495,3.8895,3.9277,3.988,4.1083,4.1967,4.212,4.3126,4.3947,4.437,4.5033,4.5771,4.669,4.7147,4.7766,4.8842,4.8938,4.9163,4.9426,4.9269,4.9171,4.9112,4.8922,4.8812,4.898,4.8938,4.9344,5.0104,4.989,5.0055,5.0696,5.0696,5.0696,5.0696,5.0837,5.0978,5.1119,5.182,5.2099,5.2238,5.2654,5.2929,5.2929,5.3204,5.397,5.4842,5.4963,5.5787,5.6798,5.6641,5.685,5.7111,5.7262,5.7512,5.7597,5.7544,5.7725,5.7852,5.7608,5.8091,5.8603,5.8249,5.84,5.8604,5.8356,5.8576,5.8659,5.7825,5.786,5.7758,5.6794,5.6468,5.6061,5.5328,5.4786,5.4351,5.3999,5.3429,5.3076,5.3076,5.275,5.1971,5.0783,5.0682,5.0738,5.0601,5.1223,5.1596,5.1596,5.1346,5.112,5.0867,5.0359,4.9744,4.8837,4.9145,4.9107,4.8332,4.8511,4.8332,4.8006,4.7167,4.6398,4.5991,4.5303,4.4946,4.4826,4.3577,4.3365,4.3992,4.3068,4.3088,4.3523,4.3055,4.2851,4.2697,4.0318,4.0124,4.0156,4.1042,4.2261,4.3004,4.3065,4.4246,4.5096,4.5607,4.6117,4.6599,4.7497,4.8052,4.8427,4.8864,4.9695,5.0097,4.9602,5.0168,5.0109,4.9352,4.9525,4.9412,4.9194,4.8967,4.9346,5.0104,4.9628,4.9934,5.0696,5.0696,5.0696,5.0696,5.1095,5.1376,5.182,5.2238,5.2654,5.2792,5.298,5.3005,5.3005,5.3055,5.3935,5.5022,5.5483,5.6271,5.6981,5.7529,5.7739,5.7773,5.7525,5.7932,5.8529,5.7759,5.8213,5.8883,5.8313,5.8612,5.9073,5.9019,5.9577,5.9862,5.8756,5.8591,5.84,5.7825,5.754,5.7309,5.7201,5.6794,5.6441,5.6332,5.5383,5.4623,5.4569,5.4107,5.3727,5.3673,5.3673,5.2971,5.1162,5.1443,5.152,5.0909,5.1282,5.1596,5.1596,5.1596,5.1346,5.112,5.0359,4.9719,4.9072,4.8512,4.8324,4.8392,4.7648,4.7515,4.8027,4.6492,4.5794,4.5662,4.4346,4.4035,4.4451,4.3132,4.3157,4.3891,4.3026,4.3106,4.3615,4.3157,4.2697,4.237,4.0358,4.066,4.1062,4.1976,4.2657,4.328,4.3937,4.4473,4.5188,4.6033,4.6862,4.7432,4.8009,4.8514,4.8934,4.9359,5.0165,5.0562,5.0369,5.0469,5.0592,5.0624,5.017,5.0151,5.0433,5.0056,5.0009,5.0554,5.0434,5.0434,5.0696,5.0696,5.0837,5.1095,5.1211,5.1376,5.182,5.2238,5.2515,5.254,5.3217,5.3532,5.3582,5.4315,5.4988,5.5534,5.5915,5.6669,5.7556,5.8131,5.834,5.8314,5.8324,5.8454,5.8552,5.8175,5.8563,5.8831,5.8402,5.8941,5.9589,5.9127,5.9832,6.0239,5.8554,5.82,5.8037,5.7439,5.7933,5.8313,5.7363,5.7472,5.7391,5.6441,5.6088,5.5735,5.5274,5.5111,5.484,5.4351,5.4297,5.3592,5.1803,5.1197,5.1031,5.1154,5.1407,5.1596,5.1596,5.1346,5.112,5.0715,5.0359,4.9615,4.8706,4.8279,4.7871,4.7322,4.7748,4.7703,4.7028,4.6763,4.6284,4.5707,4.5057,4.431,4.3565,4.2942,4.2831,4.3005,4.2585,4.2957,4.3462,4.283,4.2524,4.2216,4.1542,4.1953,4.2637,4.3622,4.4086,4.4461,4.546,4.5721,4.6202,4.7297,4.7891,4.8514,4.914,4.9383,4.9516,4.9852,5.0611,5.1116,5.0995,5.1268,5.1436,5.1757,5.1293,5.1298,5.1441,5.1177,5.0912,5.0954,5.1362,5.1483,5.1341,5.1726,5.199,5.199,5.2147,5.233,5.247,5.2615,5.2654,5.2679,5.3092,5.3482,5.3733,5.4175,5.5051,5.6098,5.6213,5.7136,5.8104,5.8418,5.8664,5.8806,5.8523,5.885,5.9227,5.8684,5.9153,5.9778,5.9211,5.9697,6.024,5.9914,6.0104,5.9941,5.8422,5.8286,5.8259,5.7363,5.7689,5.7933,5.7309,5.7445,5.7445,5.6821,5.6495,5.6197,5.5871,5.5328,5.484,5.4514,5.4243,5.3687,5.2486,5.1557,5.1259,5.1646,5.1688,5.1471,5.1346,5.1246,5.0867,5.0359,4.9847,4.9357,4.86,4.763,4.7098,4.6697,4.7235,4.719,4.6495,4.6207,4.5894,4.5422,4.4365,4.372,4.3271,4.2486,4.2246,4.2376,4.2084,4.2328,4.2981,4.2221,4.1902,4.1773,4.3026,4.3405,4.4102,4.5252,4.5464,4.5805,4.6656,4.7026,4.7576,4.8684,4.9065,4.9381,5.0143,5.0165,5.0165,5.0322,5.0921,5.1493,5.1401,5.2071,5.2458,5.2458,5.2401,5.2381,5.2306,5.2254,5.1913,5.1352,5.1932,5.2201,5.2014,5.2763,5.3176,5.2985,5.3236,5.3321,5.3437,5.3268,5.3206,5.3206,5.3306,5.3607,5.4009,5.4084,5.5138,5.6662,5.6662,5.7397,5.8523,5.8523,5.8806,5.9088,5.8664,5.9342,5.9931,5.9035,5.9663,6.0674,6.0158,6.0239,6.0728,6.0647,6.0321,5.9697,5.8503,5.8557,5.8585,5.7689,5.7418,5.7363,5.7472,5.7418,5.7336,5.7336,5.6848,5.6441,5.6441,5.5573,5.4894,5.4813,5.4162,5.3511,5.3267,5.2199,5.1698,5.2094,5.1826,5.145,5.112,5.0994,5.0614,5.0129,4.9332,4.8837,4.8445,4.7232,4.6405,4.6294,4.6331,4.6265,4.6161,4.54,4.5043,4.5113,4.3589,4.2991,4.3128,4.2031,4.1809,4.2,4.1565,4.1789,4.2078,4.1625,4.1297,4.1055,4.3849,4.406,4.4273,4.4805,4.5252,4.5699,4.623,4.7281,4.8183,4.8842,4.9538,5.0009,5.0165,5.0165,5.0322,5.0633,5.1076,5.1485,5.1652,5.2183,5.2607,5.2928,5.2841,5.3035,5.3376,5.3217,5.2618,5.1681,5.1449,5.1552,5.2014,5.2254,5.269,5.3274,5.3775,5.4035,5.4436,5.4386,5.4336,5.4386,5.4863,5.5089,5.5214,5.5691,5.6403,5.7251,5.7251,5.7733,5.8523,5.8523,5.8806,5.9088,5.8664,5.9342,6.0039,5.9262,5.9873,6.0755,6.0234,6.0261,6.0208,6.0131,6.0048,5.9911,5.8994,5.853,5.8286,5.8666,5.8313,5.8123,5.8666,5.8313,5.796,5.796,5.7445,5.7065,5.7065,5.6929,5.6631,5.6115,5.4808,5.3885,5.3885,5.3183,5.2569,5.2147,5.194,5.1765,5.1146,5.0232,4.9847,5.0104,4.9227,4.8445,4.8026,4.7364,4.6563,4.6025,4.5415,4.5324,4.5685,4.5341,4.5234,4.5158,4.4163,4.3472,4.272,4.2369,4.1937,4.1565,4.1275,4.131,4.161,4.0863,4.069,4.0605,4.4741,4.5319,4.5879,4.692,4.6876,4.7093,4.8298,4.852,4.8808,4.9786,5.0322,5.0633,5.0789,5.0944,5.0985,5.0995,5.1685,5.2073,5.2183,5.2869,5.3336,5.3784,5.369,5.3693,5.3763,5.4022,5.3669,5.2799,5.2635,5.2907,5.3452,5.3799,5.4245,5.4886,5.4877,5.4895,5.5013,5.4687,5.4561,5.4587,5.4838,5.5114,5.5415,5.5666,5.6378,5.7379,5.781,5.8239,5.8523,5.8523,5.8806,5.9088,5.8664,5.9342,6.0039,5.9508,6.0065,6.0755,6.0618,6.0342,6.0261,6.043,6.0291,6.0181,6.0104,5.9534,5.8964,5.8557,5.8259,5.815,5.8422,5.8557,5.8476,5.8123,5.7852,5.7553,5.7228,5.6902,5.6332,5.5383,5.4689,5.424,5.3993,5.3619,5.3137,5.2622,5.2201,5.1715,5.0893,5.0232,4.9719,4.959,4.8967,4.8313,4.7762,4.6965,4.6429,4.589,4.4937,4.4661,4.4886,4.4531,4.4198,4.3774,4.3064,4.2529,4.2052,4.1623,4.1172,4.0905,4.0616,4.061,4.0592,4.0235,4.0151,4.0215]},{"header":{"parameterUnit":"m.s-1","parameterCategory":1,"la1":30.6,"la2":28.766,"lo1":-90.7593,"lo2":-88.6598,"dy":0.0162,"dx":0.0183,"nx":116,"ny":114,"refTime":"2023-11-01T12:00:00:Z","depth":0,"parameterNumber":3,"parameterNumberName":"V-component_of_WINDS"},"data":[0.0,0.0,0.0,0.0,0.0,0.0,0.0,0.0,0.0,0.0,0.0,0.0,0.0,0.0,0.0,0.0,0.0,0.0,0.0,0.0,0.0,0.0,0.0,0.0,0.0,0.0,0.0,0.0,0.0,0.0,0.0,0.0,0.0,0.0,0.0,0.0,0.0,0.0,0.0,0.0,0.0,0.0,0.0,0.0,0.0,0.0,0.0,0.0,0.0,0.0,0.0,0.0,0.0,0.0,0.0,0.0,0.0,0.0,0.0,0.0,0.0,0.0,0.0,0.0,0.0,0.0,0.0,0.0,0.0,0.0,0.0,0.0,0.0,0.0,0.0,0.0,0.0,0.0,0.0,0.0,0.0,0.0,0.0,0.0,0.0,0.0,0.0,0.0,0.0,0.0,0.0,0.0,0.0,0.0,0.0,0.0,0.0,0.0,0.0,0.0,0.0,0.0,0.0,0.0,0.0,0.0,0.0,0.0,0.0,0.0,0.0,0.0,0.0,0.0,0.0,0.0,0.0,0.0,0.0,0.0,0.0,0.0,0.0,0.0,0.0,0.0,0.0,0.0,0.0,0.0,0.0,0.0,0.0,0.0,0.0,0.0,0.0,0.0,0.0,0.0,0.0,0.0,0.0,0.0,0.0,0.0,0.0,0.0,0.0,0.0,0.0,0.0,0.0,0.0,0.0,0.0,0.0,0.0,0.0,0.0,0.0,0.0,0.0,0.0,0.0,0.0,0.0,0.0,0.0,0.0,0.0,0.0,0.0,0.0,0.0,0.0,0.0,0.0,0.0,0.0,0.0,0.0,0.0,0.0,0.0,0.0,0.0,0.0,0.0,0.0,0.0,0.0,0.0,0.0,0.0,0.0,0.0,0.0,0.0,0.0,0.0,0.0,0.0,0.0,0.0,0.0,0.0,0.0,0.0,0.0,0.0,0.0,0.0,0.0,0.0,0.0,0.0,0.0,0.0,0.0,0.0,0.0,0.0,0.0,0.0,0.0,0.0,0.0,0.0,0.0,0.0,0.0,0.0,0.0,0.0,0.0,0.0,0.0,0.0,0.0,0.0,0.0,0.0,0.0,0.0,0.0,0.0,0.0,0.0,0.0,0.0,0.0,0.0,0.0,0.0,0.0,0.0,0.0,0.0,0.0,0.0,0.0,0.0,0.0,0.0,0.0,0.0,0.0,0.0,0.0,0.0,0.0,0.0,0.0,0.0,0.0,0.0,0.0,0.0,0.0,0.0,0.0,0.0,0.0,0.0,0.0,0.0,0.0,0.0,0.0,0.0,0.0,0.0,0.0,0.0,0.0,0.0,0.0,0.0,0.0,0.0,0.0,0.0,0.0,0.0,0.0,0.0,0.0,0.0,0.0,0.0,0.0,0.0,0.0,0.0,0.0,0.0,0.0,0.0,0.0,0.0,0.0,0.0,0.0,0.0,0.0,0.0,0.0,0.0,0.0,0.0,0.0,0.0,0.0,0.0,0.0,0.0,0.0,0.0,0.0,0.0,0.0,0.0,0.0,0.0,0.0,0.0,0.0,0.0,0.0,0.0,0.0,0.0,0.0,0.0,0.0,0.0,0.0,0.0,0.0,0.0,0.0,0.0,0.0,0.0,0.0,0.0,0.0,0.0,0.0,0.0,0.0,0.0,0.0,0.0,0.0,0.0,0.0,0.0,0.0,0.0,0.0,0.0,0.0,0.0,0.0,0.0,0.0,0.0,0.0,0.0,0.0,0.0,0.0,0.0,0.0,0.0,0.0,0.0,0.0,0.0,0.0,0.0,0.0,0.0,0.0,0.0,0.0,0.0,0.0,0.0,0.0,0.0,0.0,0.0,0.0,0.0,0.0,0.0,0.0,0.0,0.0,0.0,0.0,0.0,0.0,0.0,0.0,0.0,0.0,0.0,0.0,0.0,0.0,0.0,0.0,0.0,0.0,0.0,0.0,0.0,0.0,0.0,0.0,0.0,0.0,0.0,0.0,0.0,0.0,0.0,0.0,0.0,0.0,0.0,0.0,0.0,0.0,0.0,0.0,0.0,0.0,0.0,0.0,0.0,0.0,0.0,0.0,0.0,0.0,0.0,0.0,0.0,0.0,0.0,0.0,0.0,0.0,0.0,0.0,0.0,0.0,0.0,0.0,0.0,0.0,0.0,0.0,0.0,0.0,0.0,0.0,0.0,0.0,0.0,0.0,0.0,0.0,0.0,0.0,0.0,0.0,0.0,0.0,0.0,0.0,0.0,0.0,0.0,0.0,0.0,0.0,0.0,0.0,0.0,0.0,0.0,0.0,0.0,0.0,0.0,0.0,0.0,0.0,0.0,0.0,0.0,0.0,0.0,0.0,0.0,0.0,0.0,0.0,0.0,0.0,0.0,0.0,0.0,0.0,0.0,0.0,0.0,0.0,0.0,0.0,0.0,0.0,0.0,0.0,0.0,0.0,0.0,0.0,0.0,0.0,0.0,0.0,0.0,0.0,0.0,0.0,0.0,0.0,0.0,0.0,0.0,0.0,0.0,0.0,0.0,0.0,0.0,0.0,0.0,0.0,0.0,0.0,0.0,0.0,0.0,0.0,0.0,0.0,0.0,0.0,0.0,0.0,0.0,0.0,0.0,0.0,0.0,0.0,0.0,0.0,0.0,0.0,0.0,0.0,0.0,0.0,0.0,0.0,0.0,0.0,0.0,0.0,0.0,0.0,0.0,0.0,0.0,0.0,0.0,0.0,0.0,0.0,0.0,0.0,0.0,0.0,0.0,0.0,0.0,0.0,0.0,0.0,0.0,0.0,0.0,0.0,0.0,0.0,0.0,0.0,0.0,0.0,0.0,0.0,0.0,0.0,0.0,0.0,0.0,0.0,0.0,0.0,0.0,0.0,0.0,0.0,0.0,0.0,0.0,0.0,0.0,0.0,0.0,0.0,0.0,0.0,0.0,0.0,0.0,0.0,0.0,0.0,0.0,0.0,0.0,0.0,0.0,0.0,0.0,0.0,0.0,0.0,0.0,0.0,0.0,0.0,0.0,0.0,0.0,0.0,0.0,0.0,0.0,0.0,0.0,0.0,0.0,0.0,0.0,0.0,0.0,0.0,0.0,0.0,0.0,0.0,0.0,0.0,0.0,0.0,0.0,0.0,0.0,0.0,0.0,0.0,0.0,0.0,0.0,0.0,0.0,0.0,0.0,0.0,0.0,0.0,0.0,0.0,0.0,0.0,0.0,0.0,0.0,0.0,0.0,0.0,0.0,0.0,0.0,0.0,0.0,0.0,0.0,0.0,0.0,0.0,0.0,0.0,0.0,0.0,0.0,0.0,0.0,0.0,0.0,0.0,0.0,0.0,0.0,0.0,0.0,0.0,0.0,0.0,0.0,0.0,0.0,0.0,0.0,0.0,0.0,0.0,0.0,0.0,0.0,0.0,0.0,0.0,0.0,0.0,0.0,0.0,0.0,0.0,0.0,0.0,0.0,0.0,0.0,0.0,0.0,0.0,0.0,0.0,0.0,0.0,0.0,0.0,0.0,0.0,0.0,0.0,0.0,0.0,0.0,0.0,0.0,0.0,0.0,0.0,0.0,0.0,0.0,0.0,0.0,0.0,0.0,0.0,0.0,0.0,0.0,0.0,0.0,0.0,0.0,0.0,0.0,0.0,0.0,0.0,0.0,0.0,0.0,0.0,0.0,0.0,0.0,0.0,0.0,0.0,0.0,0.0,0.0,0.0,0.0,0.0,0.0,0.0,0.0,0.0,0.0,0.0,0.0,0.0,0.0,0.0,0.0,0.0,0.0,0.0,0.0,0.0,0.0,0.0,0.0,0.0,0.0,0.0,0.0,0.0,0.0,0.0,0.0,0.0,0.0,0.0,0.0,0.0,0.0,0.0,0.0,0.0,0.0,0.0,0.0,0.0,0.0,0.0,0.0,0.0,0.0,0.0,0.0,0.0,0.0,0.0,0.0,0.0,0.0,0.0,0.0,0.0,0.0,0.0,0.0,0.0,0.0,0.0,0.0,0.0,0.0,0.0,0.0,0.0,0.0,0.0,0.0,0.0,0.0,0.0,0.0,0.0,0.0,0.0,0.0,0.0,0.0,0.0,0.0,0.0,0.0,0.0,0.0,0.0,0.0,0.0,0.0,0.0,0.0,0.0,0.0,0.0,0.0,0.0,0.0,0.0,0.0,0.0,0.0,0.0,0.0,0.0,0.0,0.0,0.0,0.0,0.0,0.0,0.0,0.0,0.0,0.0,0.0,0.0,0.0,0.0,0.0,0.0,0.0,0.0,0.0,0.0,0.0,0.0,0.0,0.0,0.0,0.0,0.0,0.0,0.0,0.0,0.0,0.0,0.0,0.0,0.0,0.0,0.0,0.0,0.0,0.0,0.0,0.0,0.0,0.0,0.0,0.0,0.0,0.0,0.0,0.0,0.0,0.0,0.0,0.0,0.0,0.0,0.0,0.0,0.0,0.0,0.0,0.0,0.0,0.0,0.0,0.0,0.0,0.0,0.0,0.0,0.0,0.0,0.0,0.0,0.0,0.0,0.0,0.0,0.0,0.0,0.0,0.0,0.0,0.0,0.0,0.0,0.0,0.0,0.0,0.0,0.0,0.0,0.0,0.0,0.0,0.0,0.0,0.0,0.0,0.0,0.0,0.0,0.0,0.0,0.0,0.0,0.0,0.0,0.0,0.0,0.0,0.0,0.0,0.0,0.0,0.0,0.0,0.0,0.0,0.0,0.0,0.0,0.0,0.0,0.0,0.0,0.0,0.0,0.0,0.0,0.0,0.0,0.0,0.0,0.0,0.0,0.0,0.0,0.0,0.0,0.0,0.0,0.0,0.0,0.0,0.0,0.0,0.0,0.0,0.0,0.0,0.0,0.0,0.0,0.0,0.0,0.0,0.0,0.0,0.0,0.0,0.0,0.0,0.0,0.0,0.0,0.0,0.0,0.0,0.0,0.0,0.0,0.0,0.0,0.0,0.0,0.0,0.0,0.0,0.0,0.0,0.0,0.0,0.0,0.0,0.0,0.0,0.0,0.0,0.0,0.0,0.0,0.0,0.0,0.0,0.0,0.0,0.0,0.0,0.0,0.0,0.0,0.0,0.0,0.0,0.0,0.0,0.0,0.0,0.0,0.0,0.0,0.0,0.0,0.0,0.0,0.0,0.0,0.0,0.0,0.0,0.0,0.0,0.0,0.0,0.0,0.0,0.0,0.0,0.0,0.0,0.0,0.0,0.0,0.0,0.0,0.0,0.0,0.0,0.0,0.0,0.0,0.0,0.0,0.0,0.0,0.0,0.0,0.0,0.0,0.0,0.0,0.0,0.0,0.0,0.0,0.0,0.0,0.0,0.0,0.0,0.0,0.0,0.0,0.0,0.0,0.0,0.0,0.0,0.0,0.0,0.0,0.0,0.0,0.0,0.0,0.0,0.0,0.0,0.0,0.0,0.0,0.0,0.0,0.0,0.0,0.0,0.0,0.0,0.0,0.0,0.0,0.0,0.0,0.0,0.0,0.0,0.0,0.0,0.0,0.0,0.0,0.0,0.0,0.0,0.0,0.0,0.0,0.0,0.0,0.0,0.0,0.0,0.0,0.0,0.0,0.0,0.0,0.0,0.0,0.0,0.0,0.0,0.0,0.0,0.0,0.0,0.0,0.0,0.0,0.0,0.0,0.0,0.0,0.0,0.0,0.0,0.0,0.0,0.0,0.0,0.0,0.0,0.0,0.0,0.0,0.0,0.0,0.0,0.0,0.0,0.0,0.0,0.0,0.0,0.0,0.0,0.0,0.0,0.0,0.0,0.0,0.0,0.0,0.0,0.0,0.0,0.0,0.0,0.0,0.0,0.0,0.0,0.0,0.0,0.0,0.0,0.0,0.0,0.0,0.0,0.0,0.0,0.0,0.0,0.0,0.0,0.0,0.0,0.0,0.0,0.0,0.0,0.0,0.0,0.0,0.0,0.0,0.0,0.0,0.0,0.0,0.0,0.0,0.0,0.0,0.0,0.0,0.0,0.0,0.0,0.0,0.0,0.0,0.0,0.0,0.0,0.0,0.0,0.0,0.0,0.0,0.0,0.0,0.0,0.0,0.0,0.0,0.0,0.0,0.0,0.0,5.2251,0.0,0.0,0.0,0.0,0.0,0.0,0.0,0.0,0.0,0.0,0.0,0.0,0.0,0.0,0.0,0.0,0.0,0.0,0.0,0.0,0.0,0.0,0.0,0.0,0.0,0.0,0.0,0.0,0.0,0.0,0.0,0.0,0.0,0.0,0.0,0.0,0.0,0.0,3.3865,3.4488,3.5653,3.7292,3.7925,3.7126,3.5215,0.0,0.0,0.0,0.0,0.0,0.0,0.0,0.0,0.0,0.0,0.0,0.0,0.0,0.0,0.0,0.0,0.0,0.0,0.0,0.0,0.0,0.0,0.0,0.0,0.0,0.0,0.0,0.0,0.0,0.0,0.0,0.0,0.0,0.0,0.0,0.0,0.0,0.0,0.0,0.0,0.0,0.0,0.0,0.0,0.0,0.0,0.0,0.0,0.0,0.0,0.0,0.0,0.0,0.0,0.0,0.0,0.0,0.0,0.0,0.0,0.0,0.0,0.0,0.0,0.0,0.0,0.0,0.0,0.0,0.0,0.0,5.3455,0.0,0.0,0.0,0.0,0.0,0.0,0.0,0.0,0.0,0.0,0.0,0.0,0.0,0.0,0.0,0.0,0.0,0.0,0.0,0.0,0.0,0.0,0.0,3.5442,3.574,3.6656,3.6037,3.5628,0.0,0.0,0.0,0.0,0.0,0.0,0.0,3.4787,3.556,3.6303,3.7095,3.8625,4.0762,4.1549,4.0285,3.7413,3.7333,0.0,0.0,0.0,0.0,0.0,0.0,0.0,0.0,0.0,0.0,0.0,0.0,0.0,0.0,0.0,0.0,0.0,0.0,0.0,0.0,0.0,0.0,0.0,0.0,0.0,0.0,0.0,0.0,0.0,0.0,0.0,0.0,0.0,0.0,0.0,0.0,0.0,0.0,0.0,0.0,0.0,0.0,0.0,0.0,0.0,0.0,0.0,0.0,0.0,0.0,0.0,0.0,0.0,0.0,0.0,0.0,0.0,0.0,0.0,0.0,0.0,0.0,0.0,5.5609,5.6887,5.789,5.8592,5.9775,6.1041,5.7954,5.7417,5.8558,0.0,0.0,0.0,0.0,0.0,0.0,0.0,0.0,0.0,0.0,0.0,0.0,0.0,0.0,0.0,0.0,0.0,0.0,0.0,0.0,0.0,0.0,3.4931,3.5094,3.6658,3.6,3.5814,3.6584,0.0,0.0,0.0,0.0,0.0,3.3979,3.475,3.5789,3.7113,4.0093,4.1765,4.2157,4.3033,4.2828,4.1808,4.0896,4.0459,4.0272,0.0,0.0,0.0,0.0,0.0,0.0,0.0,0.0,0.0,0.0,0.0,0.0,0.0,0.0,0.0,0.0,0.0,0.0,0.0,0.0,0.0,0.0,0.0,0.0,0.0,0.0,0.0,0.0,0.0,0.0,0.0,0.0,0.0,0.0,0.0,0.0,0.0,0.0,0.0,0.0,0.0,4.9061,5.0702,0.0,0.0,0.0,0.0,0.0,0.0,0.0,0.0,0.0,0.0,0.0,0.0,0.0,0.0,5.4765,5.5663,5.7186,5.9414,6.0388,6.1713,6.3269,6.3377,6.3935,6.4739,6.3448,0.0,5.8713,5.6756,0.0,0.0,0.0,0.0,0.0,0.0,0.0,0.0,0.0,0.0,0.0,0.0,0.0,0.0,0.0,0.0,0.0,0.0,0.0,0.0,0.0,3.6422,3.7131,3.8786,3.8626,3.8364,3.8264,3.7378,0.0,0.0,0.0,3.5225,3.4796,3.639,3.8472,4.0951,4.3609,4.5002,4.518,4.581,4.603,4.5909,4.5034,4.3299,4.1,3.9585,0.0,0.0,0.0,0.0,0.0,0.0,0.0,0.0,0.0,0.0,0.0,0.0,0.0,0.0,0.0,0.0,0.0,0.0,0.0,0.0,0.0,0.0,0.0,0.0,0.0,0.0,0.0,0.0,0.0,0.0,0.0,0.0,0.0,0.0,0.0,0.0,0.0,0.0,0.0,4.8532,4.9827,5.0578,5.0427,4.9881,0.0,0.0,0.0,0.0,0.0,0.0,0.0,0.0,0.0,5.484,5.5343,5.64,5.8164,5.9531,6.0742,6.1868,6.2725,6.381,6.4965,6.496,6.5166,6.5416,6.5007,6.367,6.159,5.9322,5.7892,5.6869,0.0,0.0,0.0,0.0,0.0,5.4741,0.0,0.0,0.0,0.0,0.0,0.0,0.0,0.0,0.0,0.0,0.0,0.0,3.7055,3.8203,3.9327,4.0574,4.0701,4.0289,3.9163,3.8413,3.728,3.5677,3.6233,3.6303,3.5736,3.8403,4.1298,4.4395,4.6397,4.7425,4.7574,4.7972,4.8229,4.842,4.7905,4.5754,4.241,4.1434,3.9814,3.7824,0.0,0.0,0.0,0.0,0.0,0.0,0.0,0.0,0.0,0.0,0.0,0.0,0.0,0.0,0.0,0.0,0.0,0.0,0.0,0.0,0.0,0.0,0.0,0.0,0.0,0.0,0.0,0.0,0.0,0.0,0.0,0.0,0.0,0.0,0.0,0.0,0.0,5.0416,5.1171,5.1385,5.2172,5.206,0.0,0.0,0.0,0.0,0.0,0.0,5.5265,5.5531,5.6432,5.82,5.8821,5.984,6.1366,6.2695,6.3434,6.365,6.4314,6.5043,6.5836,6.579,6.5761,6.5738,6.5728,6.5283,6.4415,6.1764,6.0367,5.9697,5.7499,5.6327,5.5924,5.6348,5.6442,5.6571,0.0,0.0,0.0,0.0,0.0,0.0,0.0,0.0,0.0,0.0,0.0,3.7272,3.8244,3.9665,4.0652,4.0778,4.0854,4.0152,3.839,3.8276,3.7502,3.5749,3.641,3.6745,3.663,4.0302,4.3487,4.5954,4.7611,4.8345,4.8233,4.8382,4.8419,4.8306,4.842,4.7607,4.6164,4.496,4.301,4.0586,3.9402,0.0,0.0,0.0,0.0,0.0,0.0,0.0,0.0,0.0,0.0,0.0,0.0,0.0,0.0,0.0,0.0,0.0,0.0,0.0,0.0,0.0,0.0,0.0,0.0,0.0,0.0,0.0,0.0,0.0,0.0,0.0,0.0,0.0,0.0,0.0,0.0,0.0,0.0,5.4853,5.5786,0.0,0.0,0.0,0.0,5.5101,5.6624,5.7957,5.8904,5.9646,6.0898,6.2615,6.2734,6.3163,6.4092,6.4176,6.4602,6.5368,6.5407,6.5902,6.6733,6.6674,6.6642,6.6634,6.6579,6.6464,6.6159,6.3556,6.1438,5.9813,5.8854,5.739,5.5979,5.7597,5.8171,5.828,0.0,0.0,0.0,0.0,0.0,0.0,0.0,0.0,3.5813,3.5551,3.6556,3.7813,3.915,4.0702,4.2083,4.3149,4.3314,4.2573,4.0753,4.0178,3.9427,3.8252,3.7903,3.8939,4.1604,4.396,4.6104,4.8004,4.7974,4.7903,4.7867,4.7721,4.7684,4.7721,4.8273,4.8015,4.7215,4.6314,4.4955,4.3298,4.1871,4.0156,0.0,0.0,0.0,0.0,0.0,0.0,0.0,0.0,0.0,0.0,0.0,0.0,0.0,0.0,0.0,0.0,0.0,0.0,0.0,0.0,0.0,0.0,0.0,0.0,0.0,0.0,0.0,0.0,0.0,0.0,0.0,0.0,0.0,0.0,0.0,0.0,0.0,5.6776,5.8163,0.0,0.0,5.8069,5.8817,5.9363,6.0501,6.1559,6.2419,6.2733,6.3202,6.3827,6.4374,6.4801,6.5146,6.5645,6.6063,6.6343,6.6291,6.6424,6.6732,6.6722,6.6357,6.5764,6.6295,6.6198,6.5575,6.5153,6.4265,6.305,6.1601,6.0597,5.9976,6.0012,6.0311,6.0642,0.0,0.0,0.0,0.0,0.0,0.0,0.0,0.0,3.7058,3.7239,3.8384,3.9899,4.1851,4.3199,4.4272,4.5078,4.5179,4.4033,4.1393,4.1268,4.054,3.8884,3.9288,4.1367,4.5275,4.6255,4.7516,4.9135,4.8178,4.7705,4.7599,4.7198,4.7163,4.7459,4.7978,4.816,4.8039,4.762,4.6675,4.5353,4.4423,4.2913,4.1165,0.0,0.0,0.0,0.0,0.0,0.0,0.0,0.0,0.0,0.0,0.0,0.0,0.0,0.0,0.0,0.0,0.0,0.0,0.0,0.0,0.0,0.0,0.0,0.0,0.0,0.0,0.0,0.0,0.0,0.0,0.0,0.0,0.0,0.0,0.0,5.7166,5.7724,5.9851,6.0838,5.9634,6.085,6.1948,6.2535,6.3397,6.414,6.4726,6.5039,6.5155,6.5152,6.5697,6.6003,6.5993,6.6522,6.6772,6.6775,6.6711,6.6712,6.6708,6.6633,6.627,6.5693,6.6244,6.6101,6.5508,6.6051,6.5896,6.5159,6.3747,6.3011,6.2562,6.1665,6.1612,6.1887,0.0,0.0,0.0,0.0,0.0,0.0,0.0,3.741,3.8805,4.1262,4.2181,4.3586,4.6205,4.7034,4.7062,4.6304,4.6127,4.4297,4.0071,4.135,4.0829,3.7612,4.0646,4.3945,4.7192,4.7041,4.7679,4.9193,4.8338,4.7826,4.7623,4.6908,4.6917,4.749,4.763,4.8113,4.8822,4.9033,4.8236,4.68,4.6982,4.5622,4.3341,0.0,0.0,0.0,0.0,0.0,0.0,0.0,0.0,0.0,0.0,0.0,0.0,0.0,0.0,0.0,0.0,0.0,0.0,0.0,0.0,0.0,0.0,0.0,0.0,0.0,0.0,0.0,0.0,0.0,0.0,0.0,0.0,0.0,5.5031,5.6787,5.7924,5.7972,6.0998,6.2412,6.0774,6.2887,6.4374,6.4375,6.5156,6.5623,6.5654,6.6435,6.6859,6.6813,6.6813,6.68,6.685,6.685,6.683,6.6789,6.6761,6.673,6.6747,6.6567,6.6508,6.6493,6.6411,6.6322,6.6185,6.6185,6.608,6.5804,6.5064,6.4254,6.3315,6.2386,6.2029,6.1851,0.0,0.0,0.0,0.0,0.0,0.0,0.0,3.7926,3.8744,4.0639,4.2005,4.358,4.5554,4.6369,4.6679,4.645,4.5878,4.444,4.1895,4.1613,4.1445,4.114,4.4957,4.7454,4.8275,4.8098,4.8181,4.8604,4.7116,4.6411,4.6373,4.6177,4.6486,4.7185,4.7852,4.8571,4.9225,4.9289,4.9059,4.864,4.813,4.7145,4.5933,0.0,0.0,0.0,0.0,0.0,0.0,0.0,0.0,0.0,0.0,0.0,0.0,0.0,0.0,0.0,0.0,0.0,0.0,0.0,0.0,0.0,0.0,0.0,0.0,0.0,0.0,0.0,0.0,0.0,0.0,0.0,0.0,5.5872,5.6926,5.8592,6.0383,6.2275,6.393,6.4955,6.5116,6.5703,6.6131,6.6166,6.64,6.6513,6.6465,6.6699,6.6813,6.68,6.68,6.7102,6.7748,6.7734,6.8015,6.8593,6.7899,6.7541,6.7447,6.6796,6.6461,6.6358,6.6303,6.6185,6.6123,6.6036,6.5905,6.573,6.5033,6.4523,6.4078,6.3182,6.2387,6.1726,0.0,0.0,0.0,0.0,0.0,0.0,0.0,3.8828,4.0138,4.2499,4.3597,4.4906,4.6981,4.6914,4.6493,4.6127,4.5016,4.3561,4.1705,4.1514,4.2508,4.4786,4.7231,4.8808,4.9449,4.891,4.8655,4.8628,4.6845,4.6214,4.6606,4.6278,4.6682,4.7737,4.8266,4.8862,4.9529,4.9499,4.9469,4.9431,4.9068,4.8332,4.7559,4.818,4.7403,4.6022,4.6249,4.6435,4.6411,4.5179,0.0,0.0,0.0,0.0,0.0,0.0,0.0,0.0,0.0,0.0,0.0,0.0,0.0,0.0,0.0,0.0,0.0,0.0,0.0,0.0,0.0,0.0,0.0,0.0,5.4801,5.7022,5.8196,6.0178,6.2045,6.3581,6.5188,6.6208,6.6328,6.6991,6.7221,6.6898,6.721,6.7399,6.7347,6.7693,6.7883,6.7871,6.7858,6.8078,6.8609,6.8592,6.8642,6.8694,6.8176,6.7658,6.7247,6.671,6.6394,0.0,6.6165,6.6102,6.6052,6.5919,6.5782,0.0,0.0,0.0,0.0,0.0,6.3141,6.2445,0.0,0.0,0.0,0.0,0.0,0.0,0.0,3.9824,4.2005,4.547,4.5854,4.6718,4.9079,4.7998,4.6684,4.5637,4.4196,4.2624,4.102,4.1893,4.4174,4.7966,4.8259,4.901,5.0486,4.9439,4.893,4.8961,4.7137,4.6656,4.7518,4.6762,4.7236,4.8642,4.8718,4.9176,4.9803,4.9721,4.9693,4.9731,4.99,4.94,4.8587,4.9617,4.9164,4.801,4.8262,4.8548,4.872,4.774,0.0,0.0,0.0,0.0,0.0,0.0,0.0,0.0,0.0,0.0,0.0,0.0,0.0,0.0,0.0,0.0,0.0,0.0,0.0,0.0,0.0,0.0,0.0,0.0,5.5781,5.7538,5.9023,6.1483,6.316,6.3163,6.5468,6.668,6.5816,6.7301,6.7958,6.7004,6.7746,6.8245,6.8255,0.0,0.0,0.0,0.0,6.9343,6.9429,6.9351,6.8978,6.8319,6.8125,6.7617,6.692,6.6644,6.6477,6.632,6.614,6.609,6.6088,6.5859,6.569,6.558,6.5635,6.5608,6.5408,6.445,6.3892,6.3398,0.0,0.0,0.0,0.0,0.0,0.0,0.0,4.0184,4.1395,4.5531,4.5987,4.6416,4.7621,4.801,4.7585,4.6046,4.557,4.5183,4.4755,4.6255,4.7546,4.8305,4.956,5.0417,5.0726,4.9118,4.8603,4.9296,4.6929,4.6198,4.7045,4.687,4.7296,4.8241,4.8933,4.9662,5.0329,5.0308,5.0325,5.0396,5.1047,5.0621,4.9703,5.1272,5.1754,5.1699,5.2539,5.3374,5.3766,5.1761,5.052,4.9467,4.7172,4.4932,0.0,0.0,0.0,0.0,0.0,0.0,0.0,0.0,0.0,0.0,0.0,0.0,0.0,0.0,0.0,0.0,0.0,0.0,0.0,5.4954,5.7651,5.9798,6.0105,6.241,6.4055,6.4061,6.6324,6.7531,6.6664,6.8136,6.8791,6.7916,6.8652,6.9114,6.9092,6.9241,0.0,6.9284,6.9284,6.9606,7.0251,6.955,6.9798,7.0937,0.0,0.0,6.9419,6.7968,6.723,6.7106,6.6251,6.6255,6.6821,6.5904,6.5465,6.5352,6.5383,6.5321,6.5182,6.4209,6.3356,6.2534,0.0,0.0,0.0,0.0,0.0,0.0,0.0,4.0078,4.1597,4.5063,4.5469,4.5796,4.6655,4.6729,4.5998,4.4285,4.4487,4.5053,4.5909,4.7592,4.8915,4.9741,5.0564,5.0996,5.0959,4.9666,4.9175,4.9614,4.7443,4.6862,4.7714,4.7727,4.8166,4.8963,4.9364,5.0008,5.072,5.0245,5.0289,5.0696,5.1085,5.0875,5.0511,5.2526,5.3366,5.3593,5.4905,5.5485,5.5369,5.3782,5.305,5.2227,4.9354,4.761,4.6318,0.0,0.0,0.0,0.0,0.0,0.0,0.0,0.0,0.0,0.0,0.0,0.0,0.0,0.0,5.1019,0.0,0.0,5.5517,5.6415,5.9078,6.103,6.1017,6.3243,6.4891,6.4909,6.6781,6.8101,6.8093,6.8898,6.9192,6.8734,6.9514,7.016,7.0552,7.0931,7.1154,7.1171,7.1135,7.1109,7.1095,7.0587,7.0542,7.0943,7.0033,6.9517,6.936,6.806,6.7393,6.72,6.6217,6.6,6.6249,6.5656,6.5321,6.5161,6.5161,6.5128,6.4981,6.4044,6.3407,6.2804,0.0,0.0,0.0,0.0,0.0,0.0,0.0,4.0239,4.1852,4.4323,4.4647,4.4922,4.5625,4.5227,4.4276,4.2708,4.3599,4.4926,4.6487,4.8201,4.9835,5.1386,5.1291,5.1193,5.1125,5.0353,4.9995,5.0079,4.8366,4.7938,4.8786,4.8686,4.9058,4.9839,4.9615,4.9985,5.0759,5.0001,5.0054,5.0662,5.0804,5.0984,5.1344,5.3185,5.3933,5.4254,5.5945,5.6011,5.517,5.4438,5.4128,5.353,5.1034,5.0195,4.9702,4.7531,4.7281,0.0,0.0,0.0,0.0,0.0,0.0,0.0,0.0,0.0,5.0352,5.1367,5.2283,5.3319,5.4708,5.5639,5.6647,5.8058,6.0216,6.1738,6.1836,6.3787,6.54,6.5892,6.7375,6.8619,6.9315,6.9692,6.9779,6.9538,7.0318,7.1104,7.1745,7.2407,7.2744,7.2701,7.2679,7.2336,7.1669,7.1353,7.0931,7.0428,7.006,6.9631,6.9031,6.7872,6.7355,6.7256,6.6384,6.5761,6.5405,6.5474,6.5313,6.4955,6.4955,6.4845,6.4544,6.3676,6.3189,6.2778,0.0,0.0,0.0,0.0,0.0,0.0,0.0,0.0,4.1578,4.3434,4.3695,4.3794,4.3883,4.4485,4.4492,4.3555,4.5663,4.7421,4.8359,5.0038,5.1445,5.2382,5.1716,5.1285,5.1286,5.05,5.0415,5.1115,4.9433,4.904,4.9817,4.9036,4.9153,4.9934,4.9176,4.9318,5.0087,5.0009,4.9997,5.0134,5.0874,5.1608,5.2325,5.2592,5.3029,5.3718,5.5379,5.4972,5.3669,5.36,5.2637,5.1477,5.1952,5.1608,5.0879,4.9946,0.0,4.8309,4.6619,4.6866,4.789,4.9211,4.9673,5.0605,0.0,0.0,5.4918,5.6519,5.7541,5.8203,5.8382,5.9104,5.9737,6.0067,6.0949,6.1859,6.2552,6.3565,6.5085,6.7364,6.8534,6.9216,6.9294,7.0678,7.1182,7.033,7.107,7.1587,7.163,7.1777,7.1801,7.1681,7.1698,7.1681,7.1513,7.068,7.0581,7.1158,6.9585,6.9533,7.0645,6.8244,6.7513,6.8098,6.7055,6.6008,6.5133,6.596,6.5673,6.4743,6.4853,6.4291,6.3314,6.2667,6.1804,6.0792,0.0,0.0,0.0,0.0,0.0,0.0,0.0,0.0,0.0,4.2421,4.2578,4.2645,4.2672,4.2624,4.2426,4.1992,4.485,4.7045,4.7825,5.0472,5.2356,5.3191,5.2425,5.2003,5.2003,5.1193,5.0964,5.1281,5.0109,4.9406,4.9252,4.9408,4.9371,4.9255,4.9372,4.9959,5.0703,5.0234,5.0273,5.0779,5.1127,5.1474,5.1863,5.2362,5.2723,5.3097,5.4214,5.3521,0.0,5.2752,5.2113,5.1278,5.2239,5.16,5.0537,5.0785,4.9863,0.0,4.918,4.988,0.0,0.0,5.2342,5.3933,5.4345,5.5606,5.6831,5.7555,5.8355,5.8929,5.8929,5.9649,6.0222,0.0,6.179,6.313,6.3441,6.5051,6.6594,6.7709,6.8617,6.9539,7.0602,7.0849,7.1004,7.1031,7.1348,7.1741,7.2211,7.2269,7.225,7.2133,7.2153,7.19,7.1313,7.0876,7.0783,7.1081,7.0311,6.9937,6.9951,6.8349,6.7199,6.6407,6.5912,6.5331,6.4853,6.5122,6.4973,6.4633,6.4521,6.3917,6.3048,6.2786,6.1808,6.0529,0.0,0.0,0.0,0.0,0.0,0.0,0.0,0.0,0.0,0.0,4.0756,4.0874,4.1197,4.097,4.078,4.071,4.3723,4.6162,4.7473,5.037,5.2608,5.3874,5.3205,5.265,5.2425,5.1865,5.1452,5.1225,5.0602,4.9939,4.9347,4.9737,4.9712,4.9334,4.9751,5.042,5.118,5.0795,5.0996,5.1586,5.1843,5.1968,5.2007,5.2412,5.2298,5.1991,5.2767,5.1966,5.0587,5.0998,5.0537,5.0036,5.1201,5.0863,5.0168,5.0853,4.9804,4.8827,5.0565,0.0,0.0,5.201,5.4092,5.5825,5.4804,5.6368,5.8013,5.8013,5.8826,5.958,5.9577,6.0098,6.0579,6.0825,6.2199,6.3493,6.4178,6.5623,6.6872,6.7648,6.8217,6.9243,7.0998,7.0649,7.0615,7.1339,7.1358,7.1567,7.2181,7.222,7.2197,7.2128,7.2128,7.1796,7.113,7.1005,7.0898,7.0815,7.0527,6.9988,6.9152,6.805,6.6586,6.4985,6.485,6.4707,6.4633,6.4444,6.4405,6.4443,6.4247,6.3641,6.2925,6.311,6.2024,6.0376,0.0,0.0,0.0,0.0,0.0,0.0,0.0,0.0,0.0,0.0,0.0,0.0,0.0,4.0005,4.0506,4.0506,4.2941,4.5519,4.7989,4.9837,5.1957,5.4465,5.3848,5.3063,5.2244,5.224,5.1851,5.1011,5.0957,5.0957,5.0894,5.0079,5.0157,5.0894,5.0052,5.0192,5.1042,5.1886,5.2236,5.2352,5.3252,5.3613,5.3545,5.2809,5.1479,5.0182,5.1054,5.031,4.8748,4.7924,4.7063,4.6637,4.8358,4.9452,5.0117,5.0115,4.8895,4.79,4.9586,0.0,5.068,5.3126,5.4383,5.5247,5.6041,5.7521,5.8778,5.8778,6.007,6.1259,6.1303,6.1283,6.1524,6.2376,6.1826,6.215,6.4632,6.4325,6.4735,6.7212,6.748,6.8072,0.0,7.0015,7.0406,7.1147,7.1154,7.1081,7.1069,7.1043,7.1017,7.0964,7.1017,7.1017,7.0898,7.0843,7.0729,7.0501,6.9705,6.9196,6.8853,6.7148,6.5755,6.4669,6.4558,6.4483,6.4405,6.4249,6.4169,6.4083,6.4121,6.3472,6.2662,6.3312,6.2004,5.9812,0.0,0.0,0.0,0.0,0.0,0.0,0.0,0.0,0.0,0.0,0.0,0.0,0.0,0.0,0.0,0.0,4.1991,4.4039,4.609,4.8255,5.0406,5.2528,5.2318,5.2127,5.1934,5.1969,5.1541,5.0675,5.1233,5.0962,4.9903,5.0713,5.0675,4.9942,5.1292,5.179,5.1647,5.2481,5.2536,5.2144,5.2423,5.2274,5.1773,5.0894,4.9932,4.8808,0.0,4.6236,4.5382,4.5685,4.5219,4.487,4.7207,4.7322,4.6655,4.6639,4.7813,4.9325,5.0469,0.0,5.2869,5.4891,5.6045,5.6563,5.6304,5.7974,5.9444,5.8891,5.9662,6.0389,6.0406,6.0389,6.0433,6.0631,6.1369,6.2414,6.3763,6.4629,6.5666,6.7085,6.7667,0.0,0.0,0.0,0.0,7.0928,7.0952,7.0898,7.0871,7.0871,7.0843,7.0758,7.0748,7.069,7.0578,7.0515,7.0386,7.0144,6.8631,6.7878,6.7731,6.5842,6.4784,6.4443,6.4287,6.4166,6.4083,6.3958,6.3953,6.3867,6.3736,6.3416,6.3066,6.2586,6.1818,6.0987,0.0,0.0,0.0,0.0,0.0,0.0,0.0,0.0,0.0,0.0,0.0,0.0,0.0,0.0,0.0,0.0,0.0,4.2549,4.4317,4.6417,4.8555,5.0685,5.0456,5.0264,5.0092,4.9854,4.9499,4.8945,4.9827,4.9865,4.9137,5.0555,5.0632,4.9674,5.1552,5.211,5.1732,5.2576,5.2483,5.1777,5.153,5.0951,5.0173,4.9042,4.8121,0.0,4.4912,4.3811,4.3428,4.3474,4.3494,4.3818,4.5521,4.5663,4.5383,4.5982,4.769,4.9815,5.1913,5.321,5.442,5.6156,5.7226,5.7637,5.6761,5.8303,5.9663,5.8861,5.9297,5.9707,5.9416,5.9591,5.9727,5.9629,6.0822,6.2089,6.3152,6.418,6.5359,6.6737,6.7305,0.0,0.0,0.0,0.0,7.0652,7.0669,7.0724,7.103,7.0731,7.07,7.0942,7.0834,7.0615,7.0286,7.0487,7.0343,6.9816,6.83,6.7541,6.7386,6.561,6.4738,6.4612,6.4107,6.3873,6.3786,6.3647,6.3602,6.3647,6.3382,6.3289,6.3168,6.2413,6.2083,6.1875,0.0,0.0,0.0,0.0,0.0,0.0,0.0,0.0,0.0,0.0,0.0,0.0,0.0,0.0,0.0,0.0,0.0,0.0,4.2717,4.4325,4.6338,4.8902,4.8386,4.7692,4.692,4.6365,4.6076,4.6098,4.6972,4.7794,4.858,4.9493,4.9873,4.9873,5.071,5.1052,5.1078,5.1992,5.1929,5.1166,5.0436,4.9723,4.8872,4.7317,4.6254,4.5368,4.3728,4.3166,4.2941,4.1485,4.218,4.3578,4.3663,4.4777,4.6407,4.8114,4.8619,4.9548,5.3654,5.4807,5.5204,5.6923,5.793,5.8279,5.7429,5.8471,5.9377,5.8588,5.8991,5.9198,0.0,0.0,5.9396,5.9396,6.0195,6.1313,6.2924,6.3072,6.3934,0.0,0.0,0.0,0.0,0.0,0.0,7.0276,0.0,7.0594,7.1357,7.0639,7.0527,7.1289,7.118,7.0763,6.9966,7.0649,7.0455,6.9423,6.8631,6.8132,6.7884,6.627,6.5436,6.5105,6.4101,6.3594,6.3557,6.3326,6.3242,6.3336,6.3194,6.3099,6.2953,6.2818,6.2668,6.2384,0.0,0.0,0.0,0.0,0.0,0.0,0.0,0.0,0.0,0.0,0.0,0.0,0.0,0.0,0.0,0.0,0.0,0.0,4.0554,4.2014,4.355,4.5064,4.5579,4.5754,4.5649,4.5677,4.5322,4.4693,4.5576,4.582,4.5536,4.643,4.6506,4.5995,4.7428,4.7786,4.7386,4.8916,4.8742,4.753,4.796,4.7715,4.6991,4.5944,4.5472,4.5246,4.4193,4.3828,4.3711,4.2834,4.4119,4.6211,4.6858,4.7773,4.8787,4.9869,5.1057,5.2337,5.4034,5.544,5.6652,5.767,5.8094,5.8209,5.7978,5.8242,5.8258,5.7495,5.7473,5.712,0.0,0.0,0.0,5.8285,6.0047,0.0,6.349,6.3719,0.0,6.6216,0.0,6.6818,6.8525,6.8489,0.0,0.0,6.9853,7.0004,7.0232,7.0005,7.0005,7.0194,7.0003,6.9811,6.9622,6.9604,6.9353,6.8952,6.8166,6.7703,6.7531,6.6486,6.5613,6.4882,6.4382,6.3881,6.3279,6.3002,6.2904,6.2953,6.2904,6.2755,6.2479,6.1958,6.1938,6.1986,0.0,0.0,0.0,0.0,0.0,0.0,0.0,0.0,0.0,0.0,0.0,0.0,0.0,0.0,0.0,0.0,0.0,0.0,0.0,4.0019,4.1252,4.2697,4.2585,4.2724,4.3254,4.278,4.2493,4.2441,4.3327,4.3722,4.3735,4.4624,4.4803,4.4391,4.5319,4.5565,4.5247,4.6214,4.5923,0.0,0.0,4.5142,4.4531,4.4037,4.4182,4.444,4.3704,4.456,4.6123,4.6564,4.7511,4.8586,4.9083,4.9797,5.0645,5.1511,0.0,5.3503,5.5416,5.6352,5.7119,5.8259,5.8322,5.7963,5.7618,5.7747,5.7569,5.5983,5.6203,0.0,0.0,0.0,0.0,0.0,0.0,0.0,6.2981,6.3816,6.4879,0.0,6.6787,0.0,6.8749,6.8617,6.8715,0.0,6.9498,6.9773,7.0151,6.9771,6.9693,7.007,6.9943,6.9815,6.9648,6.9087,6.8717,6.867,6.8222,6.7989,6.7858,6.6955,6.6267,6.5679,0.0,6.396,6.3419,6.2851,6.2603,6.2552,6.2552,6.2344,6.2095,6.1676,6.1715,6.1768,0.0,0.0,0.0,0.0,0.0,0.0,0.0,0.0,0.0,0.0,0.0,0.0,0.0,0.0,0.0,0.0,0.0,0.0,0.0,0.0,3.9584,4.132,4.0095,3.9768,4.0739,3.9479,3.9191,3.9956,4.0725,4.1489,4.2247,4.3051,4.3453,4.3355,4.3483,4.3513,4.3483,4.3625,4.3266,4.267,4.2745,4.2517,4.2134,0.0,4.2862,4.3691,4.3246,4.5458,4.8878,5.0897,5.1421,5.1209,5.1245,5.1743,5.2464,5.3253,5.3322,5.3823,5.6869,5.7122,5.6916,5.8481,5.8328,5.763,5.6725,5.703,5.6828,5.4358,0.0,5.5206,5.2688,5.4971,5.7004,5.636,0.0,6.1576,6.2365,6.384,6.5313,6.6708,6.7326,6.7941,6.8853,6.8697,6.8633,6.8838,6.9153,6.959,7.0347,6.9691,6.9603,7.0234,7.0105,6.993,6.9644,6.884,6.842,6.8371,6.842,6.842,6.8371,6.7494,6.6975,6.6713,0.0,0.0,6.3816,6.2964,6.2493,6.2313,6.2313,6.2078,6.1784,6.1676,6.16,6.1559,0.0,0.0,0.0,0.0,0.0,0.0,0.0,0.0,0.0,0.0,3.8196,0.0,0.0,0.0,0.0,0.0,0.0,0.0,0.0,0.0,0.0,4.0341,4.0238,4.0275,4.0456,3.9795,3.9163,3.862,3.8862,3.9035,3.9239,3.9553,3.962,3.9553,3.9741,3.9771,3.9778,4.0563,4.0436,3.9797,4.0607,4.1315,4.1873,4.2006,0.0,0.0,4.5881,4.7229,4.8862,5.2125,5.4154,5.532,5.5415,5.5504,5.5538,5.5821,5.5255,5.4848,5.6197,5.6396,5.6413,5.7438,5.759,5.7279,5.6481,5.5835,0.0,0.0,5.2892,5.2551,5.0647,5.3005,5.5655,5.6803,0.0,0.0,0.0,0.0,6.5494,0.0,0.0,0.0,0.0,0.0,0.0,0.0,0.0,6.8828,6.9199,6.9547,6.974,6.9645,6.8977,6.8544,6.824,6.8129,6.7952,6.7847,6.7952,6.7952,6.7847,6.7768,6.7221,6.6333,0.0,0.0,6.4457,6.3997,6.3357,6.2779,6.2779,6.2269,6.1544,6.1007,6.104,6.1221,0.0,0.0,0.0,0.0,0.0,0.0,0.0,0.0,0.0,3.8139,3.9086,3.9573,0.0,0.0,0.0,0.0,0.0,0.0,0.0,0.0,0.0,0.0,3.9082,3.9157,3.9661,3.9184,3.8704,3.8307,0.0,3.8433,3.8428,3.8559,3.8559,3.8491,3.8615,3.8683,3.8689,3.9178,3.9232,3.9003,4.0436,4.1266,4.1733,0.0,0.0,0.0,0.0,4.7934,4.9658,5.1908,5.4377,5.6517,5.689,5.7224,5.743,5.708,5.6543,5.6267,5.7138,5.6721,5.6311,5.7597,5.6884,5.5681,5.4881,0.0,0.0,0.0,5.1541,5.1647,4.9875,5.2316,0.0,5.6018,5.8311,0.0,0.0,0.0,0.0,0.0,0.0,0.0,0.0,0.0,0.0,0.0,0.0,6.8272,6.8602,6.8779,6.8814,6.8661,6.8099,6.7773,6.765,6.7596,6.7542,6.7542,6.7488,6.7433,6.7433,6.7322,6.6992,6.6422,6.5908,0.0,6.4882,6.4252,6.3487,6.2709,6.2709,6.2068,6.1211,6.1306,6.1152,6.0914,0.0,0.0,0.0,0.0,0.0,0.0,0.0,3.7688,3.8205,3.9078,4.0479,4.1173,4.055,4.0527,4.019,0.0,0.0,0.0,0.0,0.0,0.0,0.0,0.0,0.0,0.0,0.0,0.0,3.8528,3.8558,0.0,0.0,0.0,0.0,0.0,3.872,3.8643,3.8465,3.8559,3.8799,0.0,0.0,4.1323,0.0,0.0,0.0,0.0,0.0,4.7802,4.9697,5.1211,5.3414,5.5659,5.6479,5.744,5.8018,5.7289,5.6927,5.7016,5.8072,5.7246,5.6421,5.789,5.65,5.4405,5.3391,5.3053,0.0,0.0,5.0397,5.096,4.9674,0.0,5.4048,0.0,5.7229,5.9881,0.0,0.0,0.0,0.0,0.0,0.0,0.0,0.0,0.0,0.0,0.0,0.0,6.8638,6.8283,6.8198,6.8529,6.7927,6.7541,6.7485,6.7227,6.7154,6.723,6.6983,6.6925,6.704,6.6772,6.6655,6.6559,6.5767,0.0,0.0,6.4627,6.3789,6.2952,6.2892,6.2271,6.1387,6.1965,6.1698,6.1113,0.0,0.0,0.0,0.0,0.0,0.0,0.0,3.8629,4.0008,4.1492,4.2423,4.2714,4.1919,4.1947,4.1499,0.0,0.0,0.0,0.0,0.0,0.0,0.0,0.0,0.0,0.0,0.0,0.0,3.9297,3.9331,0.0,0.0,0.0,0.0,0.0,0.0,3.9061,3.834,3.8401,0.0,0.0,0.0,0.0,0.0,0.0,0.0,0.0,0.0,4.6487,4.7188,5.0408,5.1707,5.2265,5.3901,5.558,5.6776,5.6124,0.0,0.0,5.771,5.7377,5.6743,5.7716,5.6593,5.48,5.3123,0.0,0.0,4.9331,4.9105,4.9437,4.9928,5.0823,5.227,5.465,5.6392,5.8614,6.1908,0.0,0.0,0.0,0.0,0.0,0.0,0.0,0.0,0.0,0.0,0.0,6.9835,6.9045,6.9133,7.0478,6.907,6.8189,6.786,6.7207,6.675,6.6595,6.6572,6.6572,6.6572,6.6512,6.6452,6.633,0.0,0.0,0.0,6.5716,6.5126,6.4412,6.4286,6.3725,6.2986,6.2868,6.264,6.244,0.0,0.0,0.0,0.0,0.0,0.0,0.0,3.7934,3.8721,4.0705,4.1728,4.2121,4.1945,4.2423,4.205,0.0,0.0,0.0,0.0,0.0,0.0,0.0,0.0,0.0,0.0,0.0,0.0,0.0,0.0,0.0,0.0,0.0,0.0,0.0,0.0,3.9152,3.8862,3.8997,0.0,0.0,0.0,0.0,0.0,0.0,0.0,0.0,0.0,0.0,4.6389,4.7824,4.8935,4.9676,4.9449,5.1193,5.3721,0.0,5.6182,5.6556,5.8763,5.8725,5.8086,5.8306,5.6739,5.4689,5.3014,0.0,5.0335,4.908,4.9299,4.9707,4.9898,5.0933,5.237,5.4367,5.5496,5.7287,6.0655,0.0,0.0,0.0,0.0,0.0,0.0,0.0,0.0,0.0,0.0,0.0,6.9345,6.8618,6.816,6.8222,6.7957,6.7547,6.692,6.6632,6.6488,6.6391,6.6269,6.6207,6.6207,6.6021,6.5895,6.5832,0.0,0.0,0.0,6.5545,6.5019,6.4308,6.4244,6.3618,6.2722,6.3115,6.2775,6.2226,0.0,0.0,0.0,0.0,0.0,3.6251,3.7251,3.7546,3.841,4.0455,4.1476,4.2003,4.1945,4.2492,4.2175,4.0492,0.0,0.0,0.0,0.0,0.0,0.0,0.0,0.0,0.0,0.0,0.0,0.0,0.0,0.0,0.0,0.0,0.0,0.0,0.0,0.0,0.0,0.0,0.0,0.0,0.0,0.0,0.0,0.0,0.0,0.0,0.0,0.0,0.0,0.0,0.0,4.7574,4.669,4.8016,5.0601,5.4056,5.5696,5.6886,5.9119,5.964,5.945,5.9022,5.7237,5.5127,0.0,0.0,5.0157,4.9196,4.9529,5.0009,5.0299,5.121,5.2454,5.3983,5.4619,5.6071,5.9383,6.0318,0.0,0.0,0.0,0.0,0.0,0.0,0.0,0.0,0.0,0.0,0.0,6.8166,6.776,6.7436,6.742,6.7079,6.6442,6.6191,6.6021,6.6021,6.5832,6.5832,6.5768,6.551,6.5379,6.5313,0.0,0.0,0.0,6.5046,6.4729,6.4235,6.4235,6.3682,6.3026,6.3448,6.3136,6.2544,0.0,0.0,0.0,0.0,0.0,0.0,0.0,3.7923,3.9953,4.1606,4.2465,4.2771,4.2258,4.2106,4.1843,4.1415,0.0,0.0,0.0,0.0,0.0,0.0,0.0,0.0,0.0,0.0,0.0,0.0,0.0,0.0,0.0,0.0,0.0,0.0,0.0,0.0,0.0,0.0,0.0,0.0,0.0,0.0,0.0,0.0,0.0,0.0,0.0,0.0,0.0,0.0,0.0,0.0,0.0,4.7056,4.7721,5.0601,5.3565,5.633,5.8169,5.9752,6.0609,5.9797,5.8319,5.643,0.0,5.2223,5.082,4.9816,4.9554,4.9951,5.1317,5.1566,5.2025,5.3396,5.3733,5.4869,5.7949,5.9003,0.0,0.0,0.0,0.0,0.0,0.0,0.0,0.0,0.0,0.0,0.0,6.782,6.8342,6.9532,6.8027,6.7039,6.6714,6.5901,6.5445,6.5282,6.5282,6.5282,6.5282,6.5282,6.5216,0.0,0.0,0.0,0.0,6.4463,6.4533,6.4706,6.4463,6.4393,6.4323,6.4002,6.3858,6.382,0.0,0.0,0.0,0.0,0.0,0.0,0.0,3.622,3.707,3.9816,4.0412,4.0954,4.2085,4.2154,4.2146,4.2219,0.0,0.0,0.0,0.0,0.0,0.0,0.0,0.0,0.0,0.0,0.0,0.0,0.0,0.0,0.0,0.0,0.0,0.0,0.0,0.0,0.0,0.0,0.0,0.0,0.0,0.0,0.0,0.0,0.0,0.0,0.0,0.0,0.0,0.0,0.0,0.0,0.0,0.0,0.0,4.8634,5.1106,5.3654,5.5196,5.6491,5.7155,5.6132,5.5184,5.3939,5.2103,5.1253,5.0548,4.9585,5.0195,5.1019,5.1274,5.1729,5.2542,5.4038,5.4711,5.5527,0.0,0.0,0.0,0.0,0.0,0.0,0.0,0.0,0.0,0.0,0.0,0.0,0.0,6.7019,6.6911,6.7429,6.7465,6.7149,6.6483,6.6802,6.666,6.6061,6.6628,6.6807,6.667,6.6496,0.0,0.0,0.0,0.0,0.0,6.4322,6.4217,6.4145,6.4074,6.3858,6.3673,6.3526,6.3721,6.4016,0.0,0.0,0.0,0.0,0.0,0.0,0.0,3.4979,3.5824,3.823,3.9063,4.0075,4.1613,4.1786,4.1881,4.2205,0.0,0.0,0.0,0.0,0.0,0.0,0.0,0.0,0.0,0.0,0.0,0.0,0.0,0.0,0.0,0.0,0.0,0.0,0.0,0.0,0.0,0.0,0.0,0.0,0.0,0.0,4.3894,0.0,0.0,0.0,0.0,0.0,0.0,0.0,0.0,0.0,0.0,0.0,0.0,0.0,4.9227,5.1334,5.3485,5.4781,5.5294,5.4683,5.3778,0.0,5.1458,5.0826,5.041,5.0107,5.07,5.1321,5.1344,5.1754,5.2449,5.3641,5.42,5.5043,0.0,0.0,0.0,0.0,0.0,0.0,0.0,0.0,0.0,0.0,0.0,0.0,0.0,6.6848,6.6742,6.6884,6.6918,6.6777,6.6496,6.6919,6.6919,6.6426,6.6637,6.6673,6.6531,6.6144,0.0,0.0,0.0,0.0,0.0,6.4443,6.4438,6.3974,6.4249,6.4202,6.4008,6.3931,6.4161,6.4381,0.0,0.0,0.0,0.0,0.0,0.0,0.0,0.0,0.0,3.6898,3.8403,3.9824,4.0989,4.1117,4.1279,0.0,0.0,0.0,0.0,0.0,0.0,0.0,0.0,0.0,0.0,0.0,0.0,4.3408,4.3601,4.4071,4.4741,0.0,0.0,0.0,0.0,0.0,0.0,0.0,0.0,0.0,4.3315,4.3973,0.0,0.0,0.0,0.0,0.0,0.0,0.0,0.0,0.0,0.0,0.0,0.0,0.0,0.0,0.0,0.0,0.0,5.4008,0.0,0.0,0.0,0.0,5.1559,5.0853,0.0,5.1067,5.0973,5.1024,5.1494,5.1622,5.1856,5.2378,5.2644,0.0,0.0,0.0,0.0,0.0,0.0,0.0,0.0,0.0,0.0,0.0,0.0,0.0,0.0,6.7213,6.7516,6.762,6.6526,6.6143,6.6732,6.6621,6.6547,6.6442,6.5781,6.5433,6.5291,6.4595,0.0,0.0,0.0,0.0,0.0,6.495,6.4967,6.4186,6.4868,6.5141,6.5141,6.4983,6.4856,6.4924,0.0,0.0,0.0,0.0,0.0,0.0,0.0,0.0,0.0,0.0,3.7335,3.8614,4.02,4.0941,4.138,0.0,0.0,0.0,0.0,0.0,0.0,0.0,0.0,0.0,0.0,0.0,0.0,4.4278,4.4963,4.5633,4.6255,4.5775,0.0,0.0,0.0,0.0,0.0,0.0,0.0,0.0,4.4505,4.4183,0.0,0.0,0.0,0.0,4.3896,4.4654,0.0,0.0,0.0,0.0,0.0,0.0,0.0,0.0,4.7419,4.7886,4.9271,0.0,0.0,4.9422,4.9928,5.0371,0.0,5.0615,5.1477,5.0868,5.1057,5.1307,5.1263,5.1246,5.1441,5.2021,0.0,0.0,0.0,0.0,0.0,0.0,0.0,0.0,0.0,0.0,0.0,0.0,0.0,0.0,0.0,6.6401,6.6789,6.7964,6.7177,6.6948,6.7422,6.7904,6.7591,6.6477,6.686,6.6607,6.5752,6.5579,0.0,0.0,0.0,0.0,6.482,6.5162,6.5039,6.4744,6.4914,6.4903,6.4776,6.4661,6.4952,6.5294,0.0,0.0,0.0,0.0,0.0,0.0,0.0,0.0,0.0,0.0,0.0,0.0,0.0,0.0,0.0,0.0,0.0,0.0,0.0,0.0,0.0,0.0,0.0,0.0,0.0,0.0,0.0,0.0,0.0,4.5811,0.0,0.0,0.0,0.0,0.0,0.0,0.0,0.0,0.0,0.0,4.4903,0.0,0.0,0.0,0.0,0.0,4.3969,4.4795,0.0,4.6506,4.6924,4.7232,0.0,0.0,0.0,0.0,4.7133,4.716,4.7543,4.7992,4.8442,4.8856,4.9241,4.9672,5.019,5.0832,5.1236,5.0945,5.1047,5.1105,5.0819,5.099,0.0,0.0,5.3171,0.0,0.0,0.0,0.0,0.0,0.0,0.0,0.0,0.0,0.0,0.0,0.0,0.0,0.0,6.6519,6.6941,6.7765,6.7422,6.7453,6.7808,6.8111,6.7765,6.6581,6.685,6.6488,6.5568,6.549,0.0,0.0,0.0,0.0,6.4776,6.5488,6.5474,6.4956,6.5294,6.5429,6.5262,6.5262,6.5446,6.5646,0.0,0.0,0.0,0.0,0.0,0.0,0.0,0.0,0.0,0.0,0.0,0.0,0.0,0.0,0.0,0.0,0.0,0.0,0.0,0.0,0.0,0.0,0.0,0.0,0.0,0.0,0.0,0.0,0.0,0.0,0.0,0.0,0.0,0.0,0.0,0.0,0.0,0.0,0.0,0.0,4.4834,0.0,0.0,0.0,0.0,0.0,0.0,0.0,0.0,4.6816,4.759,4.7921,4.8018,0.0,0.0,0.0,0.0,0.0,4.7144,4.7844,4.8768,4.9972,4.9826,4.9884,5.1441,5.1101,5.0535,5.1034,5.091,5.0675,5.0571,5.0899,0.0,0.0,0.0,0.0,0.0,0.0,0.0,0.0,0.0,0.0,0.0,0.0,0.0,0.0,0.0,0.0,0.0,6.6984,6.7277,6.7141,6.7277,6.7475,6.7845,6.7799,6.7342,6.6622,6.6428,6.5858,6.5062,6.4937,6.4924,0.0,0.0,0.0,6.4572,6.5935,6.5932,6.5258,6.5861,6.6095,6.6095,6.6095,6.6022,6.5946,0.0,0.0,0.0,0.0,0.0,0.0,0.0,0.0,0.0,0.0,0.0,0.0,0.0,0.0,0.0,0.0,0.0,0.0,0.0,0.0,0.0,0.0,0.0,0.0,0.0,0.0,0.0,0.0,0.0,0.0,4.6998,4.7568,4.6722,0.0,0.0,0.0,0.0,0.0,0.0,4.3992,4.4219,0.0,0.0,0.0,0.0,0.0,0.0,0.0,0.0,4.6952,4.6829,4.6329,4.7151,0.0,0.0,0.0,0.0,0.0,4.8413,4.9735,5.0307,4.8657,4.9614,5.0838,5.048,5.0593,5.0716,5.0822,5.0675,5.055,5.0921,5.1104,5.1468,0.0,0.0,0.0,0.0,0.0,0.0,0.0,0.0,0.0,0.0,0.0,0.0,0.0,0.0,0.0,0.0,0.0,6.6424,6.5395,6.6221,6.6728,6.6694,6.7312,6.7181,6.6314,6.6187,6.5569,6.4661,6.4695,6.4788,0.0,0.0,6.5581,6.5847,6.6081,6.6029,6.5928,6.6062,6.6095,6.6095,6.6095,6.6356,6.6623,0.0,0.0,0.0,0.0,0.0,0.0,0.0,0.0,0.0,0.0,0.0,0.0,0.0,0.0,0.0,0.0,0.0,0.0,0.0,0.0,0.0,0.0,0.0,0.0,0.0,0.0,0.0,0.0,0.0,4.7472,4.8188,4.7783,4.6838,4.5545,0.0,0.0,0.0,0.0,0.0,4.4606,0.0,0.0,0.0,0.0,0.0,0.0,0.0,0.0,0.0,0.0,4.7178,4.7186,4.7635,0.0,0.0,0.0,0.0,0.0,4.7523,4.9003,5.0329,4.9642,5.1175,5.2992,5.3191,5.2584,5.1899,5.1843,0.0,0.0,0.0,0.0,5.3267,0.0,0.0,0.0,0.0,0.0,0.0,0.0,0.0,0.0,0.0,0.0,0.0,0.0,0.0,0.0,0.0,0.0,6.6134,6.5454,6.5875,6.6042,6.5955,6.6388,6.6323,6.5745,6.5985,6.5649,6.4808,6.5127,6.5292,6.5454,0.0,6.548,6.5514,6.5514,6.5514,6.5392,6.5514,6.5747,6.5965,6.6329,6.6601,6.6773,0.0,0.0,0.0,0.0,0.0,0.0,0.0,0.0,0.0,0.0,0.0,0.0,0.0,0.0,0.0,0.0,0.0,0.0,0.0,0.0,0.0,0.0,0.0,0.0,0.0,0.0,4.5602,4.6952,4.7357,4.8289,4.9554,4.8258,4.7151,0.0,0.0,0.0,0.0,0.0,4.5389,4.4529,0.0,0.0,0.0,0.0,0.0,0.0,0.0,0.0,0.0,0.0,0.0,0.0,0.0,0.0,0.0,4.7002,4.6778,4.6755,4.687,4.8373,5.0083,5.0908,5.2488,5.4161,5.5671,0.0,0.0,0.0,0.0,0.0,0.0,5.3311,0.0,0.0,0.0,0.0,0.0,0.0,0.0,0.0,0.0,0.0,0.0,0.0,0.0,0.0,0.0,0.0,0.0,0.0,6.568,6.5371,6.5537,6.5514,6.5336,6.5514,6.5567,6.5429,6.5828,6.5741,6.5206,6.5601,6.5791,6.5836,6.5581,6.5445,6.5502,6.514,6.5115,6.5193,6.5246,6.5509,6.5881,6.6766,6.69,6.6704,0.0,0.0,0.0,0.0,0.0,0.0,0.0,0.0,0.0,0.0,0.0,0.0,0.0,0.0,0.0,0.0,0.0,0.0,0.0,0.0,0.0,0.0,0.0,0.0,0.0,4.5172,4.5559,4.7348,4.7885,4.903,5.076,4.9898,4.8371,4.6296,0.0,0.0,0.0,0.0,0.0,4.2789,4.2789,0.0,0.0,0.0,0.0,0.0,0.0,0.0,0.0,0.0,0.0,0.0,0.0,0.0,4.6884,4.6813,4.6684,4.6908,4.8161,4.9219,5.0224,5.1465,5.1955,5.2888,5.5749,5.4451,0.0,5.5041,0.0,0.0,0.0,5.4794,0.0,0.0,0.0,0.0,0.0,0.0,0.0,0.0,0.0,0.0,0.0,0.0,0.0,0.0,0.0,0.0,0.0,0.0,0.0,6.4111,6.4523,6.4885,6.5099,6.5099,6.5336,6.5801,6.5746,6.5746,6.5713,6.5746,6.5879,6.6022,6.5634,6.5915,6.6602,6.5259,6.5488,6.6635,6.598,6.575,6.5947,6.7323,6.7229,6.6483,0.0,0.0,0.0,0.0,0.0,0.0,0.0,0.0,0.0,0.0,0.0,0.0,0.0,0.0,0.0,0.0,0.0,0.0,0.0,0.0,0.0,0.0,0.0,4.5301,4.6344,4.6477,4.7587,4.9585,4.978,5.0556,5.1834,4.9892,0.0,0.0,0.0,0.0,0.0,0.0,0.0,4.4741,4.3224,4.3015,0.0,0.0,0.0,0.0,0.0,0.0,0.0,0.0,4.5837,4.6605,4.6936,4.6998,4.6906,4.6731,4.659,4.6552,4.704,4.8679,5.034,5.0899,5.2066,5.3788,5.6342,5.605,5.549,5.6505,5.5995,0.0,0.0,0.0,0.0,0.0,0.0,0.0,0.0,0.0,0.0,0.0,0.0,0.0,0.0,0.0,0.0,0.0,0.0,0.0,0.0,0.0,0.0,6.4218,6.4355,6.4621,6.5017,6.4747,6.5068,6.5951,6.5618,6.5369,6.5369,6.5156,6.5107,6.5279,6.5568,6.5778,6.5894,6.5701,6.5803,6.6129,6.629,6.6453,6.6679,6.7232,6.7199,6.6842,0.0,0.0,0.0,0.0,0.0,0.0,0.0,0.0,0.0,0.0,0.0,0.0,0.0,0.0,0.0,0.0,0.0,0.0,0.0,0.0,0.0,0.0,0.0,4.5671,4.6468,4.7554,4.8916,5.0659,5.0911,5.1302,5.1729,0.0,0.0,0.0,0.0,0.0,0.0,0.0,0.0,0.0,4.3764,4.3412,0.0,0.0,0.0,0.0,0.0,0.0,0.0,0.0,4.54,4.632,4.6774,4.6906,4.6824,4.659,4.68,4.7075,4.7206,4.8609,5.0349,5.1233,5.2542,5.4329,5.7071,5.7182,5.712,5.8492,5.7525,0.0,0.0,0.0,0.0,0.0,0.0,0.0,0.0,0.0,0.0,0.0,0.0,0.0,0.0,0.0,0.0,0.0,0.0,0.0,0.0,0.0,0.0,0.0,6.424,6.4374,6.4766,6.4374,6.4634,6.5416,6.5008,6.4958,6.5154,6.48,6.4708,6.4784,6.5139,6.544,6.5708,6.5546,6.564,6.5924,6.6731,6.696,6.6867,6.7225,6.7292,6.6936,0.0,0.0,0.0,0.0,0.0,0.0,0.0,0.0,0.0,0.0,0.0,0.0,0.0,0.0,0.0,0.0,0.0,0.0,0.0,0.0,0.0,0.0,0.0,4.5671,4.6468,4.8061,4.9293,5.009,5.0983,5.0991,5.0192,5.0192,0.0,0.0,0.0,0.0,0.0,0.0,0.0,0.0,4.4155,4.3917,4.4114,0.0,0.0,0.0,0.0,0.0,0.0,0.0,4.4607,4.4848,4.6361,4.6684,4.659,4.6447,4.7392,4.8609,4.9221,4.9447,5.016,5.2658,5.3329,5.4235,5.774,5.7569,5.7672,6.1195,5.9471,5.7172,0.0,0.0,0.0,0.0,0.0,0.0,0.0,0.0,0.0,0.0,0.0,0.0,0.0,0.0,0.0,0.0,0.0,0.0,0.0,0.0,0.0,0.0,6.4085,6.4085,6.4333,6.4053,6.3991,6.3991,6.3991,6.4536,6.5375,6.4937,6.4817,6.4963,6.4283,6.49,6.6236,6.4828,6.5084,6.6428,6.7132,6.6972,6.6428,6.7438,6.7379,6.6799,0.0,0.0,0.0,0.0,0.0,0.0,0.0,0.0,0.0,0.0,0.0,0.0,0.0,0.0,0.0,0.0,0.0,0.0,0.0,0.0,0.0,0.0,0.0,0.0,0.0,0.0,4.8835,5.009,4.9901,4.9944,0.0,0.0,0.0,4.814,0.0,0.0,0.0,0.0,0.0,0.0,0.0,4.4746,0.0,0.0,0.0,0.0,0.0,0.0,0.0,0.0,0.0,0.0,4.6458,4.6991,4.7117,4.6539,4.6906,4.7335,4.6969,4.8687,5.0748,5.1348,5.3866,0.0,0.0,5.92,0.0,0.0,5.9588,5.815,0.0,0.0,0.0,0.0,0.0,0.0,0.0,0.0,0.0,0.0,0.0,0.0,0.0,0.0,0.0,0.0,0.0,0.0,0.0,0.0,0.0,0.0,6.3612,6.3742,6.4256,6.3742,6.3805,6.4668,6.3773,6.3709,6.4093,6.3962,6.3899,6.3742,6.4031,6.4801,6.566,6.6033,6.6306,6.6511,6.691,6.6982,6.6862,6.6983,6.696,6.6735,0.0,0.0,0.0,0.0,0.0,0.0,0.0,0.0,0.0,0.0,4.1864,4.2047,0.0,0.0,0.0,0.0,0.0,0.0,0.0,0.0,0.0,0.0,0.0,0.0,0.0,4.7365,4.8748,0.0,0.0,0.0,0.0,0.0,0.0,4.8841,0.0,4.9394,0.0,0.0,0.0,4.6777,4.5941,4.5436,4.5156,0.0,0.0,0.0,0.0,0.0,0.0,0.0,0.0,0.0,4.6342,4.6813,4.7125,4.7432,4.7718,4.8258,4.9472,5.0876,5.2364,5.3935,5.603,5.8243,6.0325,0.0,0.0,0.0,0.0,0.0,0.0,0.0,0.0,0.0,0.0,0.0,0.0,0.0,0.0,0.0,0.0,0.0,0.0,0.0,0.0,0.0,0.0,0.0,0.0,0.0,0.0,0.0,6.3325,6.3323,6.364,6.3513,6.3765,6.4393,6.402,6.3962,6.393,6.3837,6.3869,6.3896,6.4498,6.4938,6.5282,6.6425,6.6691,6.6512,6.6723,6.6691,6.6523,6.6735,6.6812,6.6748,0.0,0.0,0.0,0.0,0.0,0.0,0.0,0.0,0.0,0.0,4.1189,4.155,0.0,0.0,0.0,0.0,0.0,0.0,0.0,0.0,0.0,0.0,0.0,0.0,0.0,0.0,0.0,0.0,0.0,0.0,0.0,0.0,5.1128,5.0502,0.0,5.2127,0.0,4.8916,4.8078,4.7075,4.6633,4.5915,4.5111,4.5183,0.0,0.0,0.0,0.0,0.0,0.0,0.0,0.0,4.6007,4.6288,4.678,4.8467,4.9269,5.0349,5.4225,5.4385,5.4436,5.8353,5.8991,0.0,6.2434,6.3194,6.2982,0.0,0.0,0.0,0.0,0.0,0.0,0.0,0.0,0.0,0.0,0.0,0.0,0.0,0.0,0.0,0.0,0.0,0.0,0.0,0.0,0.0,0.0,0.0,0.0,0.0,6.3131,6.3034,6.2903,6.3472,6.3721,0.0,6.4387,6.4736,6.4492,6.437,6.4502,6.4932,6.5457,6.5492,6.5345,6.6322,6.65,6.6287,6.6437,6.6161,6.5808,6.6691,6.6796,6.6691,0.0,0.0,0.0,0.0,0.0,0.0,0.0,0.0,0.0,0.0,0.0,0.0,0.0,0.0,0.0,0.0,0.0,0.0,0.0,0.0,0.0,0.0,0.0,0.0,0.0,0.0,0.0,0.0,0.0,0.0,0.0,0.0,0.0,5.038,0.0,5.0134,4.7223,4.6909,4.6332,4.5771,4.6116,4.5869,4.5269,4.5106,4.4052,0.0,0.0,0.0,0.0,0.0,0.0,0.0,4.5824,4.6323,4.6795,4.7282,4.8633,5.0092,5.0823,5.2929,5.5306,5.6944,5.9659,6.2092,6.3049,6.3557,6.3616,0.0,0.0,0.0,0.0,0.0,0.0,0.0,0.0,0.0,0.0,0.0,0.0,0.0,0.0,0.0,0.0,0.0,0.0,0.0,0.0,0.0,0.0,0.0,0.0,6.2905,6.2513,6.2568,6.3336,6.3091,6.3201,0.0,6.3891,6.4163,6.4695,6.4697,6.4964,6.5488,6.587,6.6469,6.7048,6.713,6.7085,6.6915,6.6135,6.5808,6.5808,6.648,6.6617,6.6628,0.0,0.0,0.0,0.0,0.0,0.0,0.0,0.0,0.0,0.0,0.0,0.0,0.0,0.0,0.0,0.0,0.0,0.0,0.0,0.0,0.0,0.0,0.0,0.0,0.0,0.0,0.0,0.0,0.0,0.0,0.0,0.0,0.0,5.0882,0.0,5.0722,4.7663,4.789,4.7089,4.5761,4.6074,4.6002,0.0,0.0,4.4037,4.3519,4.3387,0.0,0.0,0.0,0.0,0.0,0.0,0.0,4.6586,4.8023,4.8674,4.9574,5.2501,5.4086,5.5621,5.8403,6.1488,6.3733,6.3756,6.4068,6.4137,0.0,0.0,0.0,0.0,0.0,0.0,0.0,0.0,0.0,0.0,0.0,0.0,0.0,0.0,0.0,0.0,0.0,0.0,0.0,0.0,0.0,0.0,6.2531,6.282,6.292,6.2519,6.2731,6.3555,6.3558,6.3797,6.4171,6.4483,6.4827,6.5201,6.5807,6.607,6.6161,6.6852,6.7354,6.7668,6.7668,6.7668,6.7637,6.7291,6.6729,6.6339,6.6878,6.6764,6.6448,0.0,0.0,0.0,0.0,0.0,0.0,0.0,0.0,0.0,0.0,0.0,0.0,0.0,0.0,0.0,0.0,0.0,0.0,0.0,0.0,0.0,0.0,0.0,0.0,0.0,0.0,0.0,0.0,0.0,0.0,0.0,0.0,0.0,5.15,0.0,0.0,4.8489,4.8908,4.7811,4.5809,4.5966,0.0,0.0,0.0,0.0,0.0,4.3748,4.4117,4.4822,4.5054,0.0,0.0,0.0,0.0,4.6031,4.8596,4.869,4.909,5.4393,5.5415,5.6145,6.0839,6.3333,0.0,6.4498,6.4614,6.4589,6.4247,0.0,0.0,0.0,0.0,0.0,0.0,0.0,0.0,0.0,0.0,0.0,0.0,0.0,0.0,0.0,0.0,0.0,0.0,0.0,0.0,6.1699,6.2362,6.2942,6.317,6.2933,6.3142,6.3859,6.4315,6.4551,6.446,6.5235,6.5654,6.5779,6.6698,6.7011,6.6948,6.7731,6.8138,6.8133,6.8232,6.828,6.828,6.8406,6.7716,6.6651,6.7166,6.6865,6.6192,0.0,0.0,0.0,0.0,0.0,0.0,0.0,0.0,0.0,0.0,3.8757,0.0,0.0,0.0,0.0,0.0,0.0,0.0,0.0,0.0,0.0,0.0,0.0,0.0,0.0,0.0,0.0,0.0,0.0,0.0,0.0,0.0,0.0,5.15,0.0,0.0,0.0,0.0,0.0,0.0,0.0,0.0,0.0,0.0,0.0,0.0,0.0,0.0,4.4225,4.5312,4.5231,0.0,0.0,0.0,4.4611,4.6165,4.7796,4.9222,4.9887,5.3449,5.7959,6.2266,6.3809,6.4498,0.0,0.0,6.4961,0.0,0.0,0.0,0.0,0.0,0.0,0.0,0.0,0.0,0.0,0.0,0.0,0.0,0.0,0.0,0.0,0.0,0.0,0.0,0.0,0.0,6.2105,6.2714,6.3161,6.3485,6.3548,6.3891,6.4577,6.4135,6.4336,6.5173,6.5046,6.5386,6.6164,6.6368,6.6852,6.7665,6.7505,6.8189,6.9475,6.8686,6.8324,6.8293,6.7477,6.6714,6.6016,6.6319,6.6184,6.5745,0.0,0.0,0.0,0.0,0.0,0.0,0.0,0.0,0.0,0.0,0.0,3.8452,0.0,0.0,0.0,3.87,3.9128,3.9542,3.9769,4.0523,0.0,0.0,0.0,0.0,0.0,0.0,0.0,0.0,0.0,0.0,0.0,5.0574,5.1061,0.0,0.0,0.0,0.0,0.0,0.0,0.0,0.0,0.0,0.0,0.0,0.0,0.0,0.0,0.0,0.0,0.0,4.4092,4.3802,4.4371,0.0,0.0,0.0,4.6826,4.8422,5.1765,5.5322,5.9046,6.3231,6.3989,6.3916,6.4877,6.4896,6.461,0.0,0.0,0.0,0.0,0.0,0.0,0.0,0.0,0.0,0.0,0.0,0.0,0.0,0.0,0.0,0.0,0.0,0.0,0.0,0.0,6.1409,6.1989,6.2229,6.2829,6.3991,6.3809,6.3964,6.4488,6.421,6.4512,6.5411,6.5187,6.5668,6.6683,6.6683,6.7167,6.8013,6.8013,6.8572,6.9557,6.9162,6.882,6.8531,6.8137,6.7392,6.6461,6.6541,6.6215,6.5638,0.0,0.0,0.0,0.0,0.0,0.0,0.0,0.0,0.0,0.0,0.0,0.0,0.0,0.0,0.0,0.0,3.8517,3.9157,4.0205,4.0547,0.0,0.0,0.0,0.0,0.0,0.0,0.0,0.0,0.0,0.0,5.0927,5.0141,5.0963,0.0,5.1326,0.0,0.0,0.0,0.0,0.0,0.0,0.0,0.0,0.0,0.0,0.0,0.0,0.0,0.0,0.0,0.0,0.0,0.0,0.0,0.0,0.0,0.0,4.6982,5.2572,5.5325,5.7705,6.2179,6.299,6.3042,0.0,0.0,6.454,0.0,0.0,0.0,0.0,0.0,0.0,0.0,0.0,0.0,0.0,0.0,0.0,0.0,0.0,0.0,0.0,0.0,0.0,0.0,0.0,6.1138,6.1919,6.224,6.3101,6.4414,6.4305,6.4305,6.4445,6.4359,6.4657,6.5033,6.5299,6.5963,6.6905,6.6866,6.735,6.8236,6.8011,6.8467,6.924,6.9085,6.8798,6.8562,6.8562,6.7753,6.6572,6.6572,6.6105,6.5592,0.0,0.0,0.0,0.0,0.0,0.0,0.0,0.0,0.0,0.0,0.0,0.0,0.0,3.881,3.895,3.9017,3.8404,3.8488,3.9588,4.044,4.1581,0.0,0.0,0.0,0.0,0.0,0.0,0.0,0.0,0.0,5.1117,5.0927,5.1977,5.4034,5.2243,4.9989,4.7529,0.0,0.0,0.0,0.0,0.0,0.0,0.0,0.0,0.0,0.0,0.0,0.0,0.0,0.0,0.0,0.0,0.0,0.0,0.0,0.0,0.0,4.9024,5.0626,5.245,5.8215,6.0294,6.1627,0.0,0.0,0.0,0.0,0.0,0.0,0.0,0.0,0.0,0.0,0.0,0.0,0.0,0.0,0.0,0.0,0.0,0.0,0.0,0.0,0.0,0.0,0.0,6.195,6.2303,6.3487,6.4414,6.4826,6.5156,6.5156,6.4826,6.4493,6.43,6.4054,6.4972,6.5948,6.6847,6.6967,6.728,6.7968,6.6894,6.7427,6.8828,6.7979,6.7733,6.7935,6.7935,6.7104,6.5903,6.5903,6.5695,6.5297,0.0,0.0,0.0,0.0,0.0,0.0,0.0,0.0,0.0,0.0,0.0,0.0,0.0,3.8182,3.8312,3.8436,3.8814,3.9201,3.9637,4.0465,4.1355,4.234,0.0,0.0,0.0,0.0,0.0,0.0,0.0,4.6725,4.9492,4.8788,4.9698,5.1883,5.1092,5.0439,4.9703,4.8055,0.0,0.0,0.0,0.0,0.0,0.0,0.0,0.0,0.0,0.0,0.0,0.0,0.0,0.0,0.0,0.0,0.0,0.0,0.0,4.4999,4.8721,4.9654,5.083,5.6042,5.8011,5.9452,6.2077,6.3563,6.4484,0.0,0.0,0.0,0.0,0.0,0.0,0.0,0.0,0.0,0.0,0.0,0.0,0.0,0.0,0.0,0.0,0.0,0.0,0.0,0.0,0.0,6.3193,6.3687,6.4258,6.4888,6.4998,6.4777,6.4331,6.3538,6.3524,6.4371,6.5037,6.5971,6.6968,6.7387,6.7752,6.7909,6.688,6.7238,6.8298,6.8172,6.7678,6.6912,6.6882,6.62,6.5257,6.5003,6.4961,6.4998,0.0,0.0,0.0,0.0,0.0,0.0,0.0,0.0,0.0,0.0,0.0,0.0,0.0,0.0,3.8718,3.8565,3.9489,4.0075,4.0113,4.0879,4.1619,4.2302,4.3751,0.0,0.0,0.0,0.0,0.0,0.0,0.0,0.0,4.7793,4.8703,5.089,4.9919,5.0069,0.0,0.0,0.0,4.7772,0.0,0.0,4.9818,0.0,0.0,0.0,0.0,0.0,0.0,0.0,0.0,0.0,0.0,0.0,0.0,0.0,0.0,0.0,4.691,4.7582,4.8723,5.3713,5.524,5.6461,6.0708,6.2148,6.2839,6.3933,0.0,0.0,0.0,0.0,0.0,0.0,0.0,0.0,0.0,0.0,0.0,0.0,0.0,0.0,0.0,0.0,0.0,0.0,0.0,0.0,6.2995,6.324,6.3701,6.4518,6.4764,6.4463,6.3659,6.3192,6.3297,6.4056,6.4834,6.5736,6.6642,6.7304,6.7637,6.7578,6.7125,6.7305,6.8148,6.7691,6.7108,6.6399,6.6155,6.5626,6.483,6.4473,6.4799,6.5391,0.0,0.0,0.0,0.0,0.0,0.0,0.0,0.0,0.0,0.0,0.0,0.0,0.0,0.0,0.0,3.9627,4.0489,4.1052,4.1052,4.1732,4.2446,4.3182,4.4573,0.0,0.0,0.0,0.0,0.0,0.0,0.0,0.0,0.0,4.9314,5.1383,4.8877,4.8996,5.0984,0.0,4.9493,4.9496,0.0,4.9745,4.8146,0.0,0.0,0.0,4.8743,4.7872,0.0,0.0,0.0,0.0,0.0,0.0,0.0,0.0,0.0,0.0,0.0,0.0,0.0,5.1115,5.1645,5.287,6.036,6.0697,6.0297,6.3148,0.0,0.0,0.0,0.0,0.0,0.0,0.0,0.0,0.0,0.0,0.0,0.0,0.0,0.0,0.0,0.0,0.0,0.0,0.0,6.1386,6.1416,6.2058,6.284,6.3841,6.4549,6.4248,6.3022,6.3659,6.3652,6.3079,6.4056,6.5049,6.5951,6.6731,6.6974,6.6969,6.7365,6.7819,6.8295,6.666,6.6229,6.6338,6.5666,6.5163,6.4843,6.4544,6.5268,6.6246,0.0,0.0,0.0,0.0,0.0,0.0,0.0,0.0,0.0,0.0,0.0,0.0,0.0,0.0,0.0,4.1316,4.2145,4.2396,4.1691,4.2377,4.2885,4.2967,4.4915,4.5453,4.4202,4.5952,4.5956,4.4195,4.4526,4.4931,0.0,0.0,0.0,0.0,4.8562,4.8992,4.9758,4.7742,0.0,0.0,4.8976,4.9642,0.0,0.0,0.0,0.0,0.0,4.9674,0.0,0.0,4.753,4.4687,0.0,0.0,0.0,0.0,0.0,0.0,4.2875,0.0,0.0,0.0,0.0,0.0,5.3377,5.5345,5.7301,6.0647,0.0,0.0,0.0,0.0,0.0,0.0,0.0,0.0,0.0,0.0,0.0,0.0,0.0,0.0,0.0,0.0,0.0,0.0,6.137,6.1706,6.2411,6.3087,6.3763,6.458,6.4351,6.4127,6.372,6.3448,6.3309,6.3079,6.3824,6.4303,6.4575,6.5802,6.6222,6.6311,6.6911,6.7335,6.7668,6.7336,6.661,6.5702,6.5521,6.5243,6.4904,6.4637,6.5353,6.6399,0.0,0.0,0.0,0.0,0.0,0.0,0.0,0.0,0.0,0.0,0.0,0.0,0.0,0.0,0.0,0.0,4.3624,4.3624,4.3427,4.3445,4.3431,4.3379,4.4827,4.5358,4.477,4.5956,4.5883,4.4382,4.4747,4.4853,4.4815,0.0,0.0,0.0,0.0,0.0,0.0,0.0,0.0,0.0,4.9089,0.0,0.0,5.1459,5.2045,0.0,0.0,0.0,4.9358,5.0676,4.8635,0.0,0.0,0.0,0.0,0.0,0.0,0.0,0.0,0.0,0.0,0.0,0.0,0.0,5.1234,5.3034,5.4972,0.0,6.0062,0.0,0.0,0.0,0.0,0.0,0.0,0.0,0.0,0.0,0.0,0.0,0.0,0.0,0.0,0.0,0.0,6.1199,6.1063,6.1263,6.1936,6.2717,6.3421,6.4095,6.4066,6.3993,6.3766,6.3424,6.3194,6.3079,6.3438,6.377,6.4189,6.5114,6.5771,6.6186,6.6398,6.6702,6.6793,6.6402,6.5952,6.5201,6.4631,6.4627,6.4748,6.4709,6.5754,6.696,0.0,0.0,0.0,0.0,0.0,0.0,0.0,0.0,0.0,0.0,0.0,0.0,0.0,0.0,0.0,0.0,4.5021,4.4797,4.5431,4.4532,0.0,4.3955,4.4617,4.5254,4.5918,4.5957,4.5882,4.5735,4.5467,4.5309,4.5269,0.0,0.0,0.0,0.0,0.0,0.0,0.0,0.0,4.8014,5.0048,4.9907,0.0,0.0,5.2424,0.0,5.1548,5.1424,5.0754,5.0818,4.9354,0.0,0.0,0.0,0.0,0.0,4.2692,0.0,0.0,0.0,0.0,0.0,0.0,0.0,5.1067,5.1878,5.2639,5.7359,5.8897,0.0,0.0,0.0,0.0,0.0,0.0,0.0,0.0,0.0,0.0,0.0,0.0,0.0,0.0,6.1135,6.1004,6.0438,6.0377,6.0471,6.0819,6.1625,6.2293,6.293,6.3629,6.3766,6.3538,6.3424,6.3309,6.3079,6.3079,6.3444,6.4308,6.4726,6.5381,6.6272,6.607,6.5981,6.5862,6.4844,6.4546,6.4755,6.3471,6.3682,6.4606,6.4951,6.63,6.7907,0.0,0.0,0.0,0.0,0.0,0.0,0.0,0.0,0.0,0.0,0.0,0.0,0.0,0.0,0.0,0.0,0.0,4.5866,0.0,0.0,4.3865,4.3701,4.5068,4.5551,4.493,4.6102,4.6316,4.5388,4.5349,4.5228,4.506,0.0,0.0,0.0,0.0,0.0,0.0,0.0,0.0,4.8102,4.9237,0.0,4.9884,5.2417,5.3238,5.2997,5.3239,5.2668,5.1562,0.0,4.9726,4.9327,0.0,0.0,0.0,0.0,0.0,0.0,0.0,0.0,0.0,0.0,0.0,0.0,4.5064,4.5898,4.7304,5.0788,5.1476,0.0,0.0,0.0,0.0,0.0,0.0,0.0,0.0,0.0,0.0,0.0,0.0,0.0,6.0992,6.0586,6.0253,6.0047,6.0092,6.0289,6.0633,6.1516,6.2293,6.2961,6.3403,6.3538,6.3538,6.3309,6.2963,6.2731,6.2731,6.2733,6.303,6.4189,6.4636,6.4516,6.5592,6.5712,6.5054,6.3891,6.3624,6.3862,6.3594,6.3981,6.4665,6.5229,6.6458,6.8059,0.0,0.0,0.0,0.0,0.0,0.0,0.0,0.0,0.0,0.0,0.0,0.0,0.0,0.0,0.0,0.0,0.0,0.0,0.0,0.0,4.4107,4.3566,4.4636,4.5224,4.5113,4.6166,4.6444,4.5807,4.6038,4.5868,4.5336,4.5818,0.0,0.0,0.0,0.0,0.0,0.0,4.6152,4.6949,4.9403,0.0,5.1296,5.3886,5.4384,5.3751,5.3991,5.3618,5.2805,5.1393,5.0589,0.0,0.0,4.7243,4.6684,0.0,4.4463,4.4691,0.0,0.0,0.0,4.266,0.0,0.0,0.0,4.4316,4.541,4.8743,4.9164,4.9786,5.2435,0.0,0.0,0.0,0.0,0.0,0.0,0.0,0.0,0.0,0.0,0.0,5.9615,5.9711,5.9817,5.9697,5.9773,5.9938,6.0494,6.1187,6.17,6.2031,6.2912,6.3014,6.257,6.2784,6.2731,6.2351,6.2351,6.2411,6.2647,6.3654,6.407,6.407,6.5114,6.5323,6.4875,6.4189,6.395,6.404,6.3595,6.4039,6.5141,6.598,6.6971,6.812,4.3081,0.0,0.0,0.0,0.0,0.0,0.0,0.0,0.0,0.0,0.0,0.0,0.0,0.0,0.0,0.0,0.0,0.0,0.0,0.0,0.0,0.0,4.4601,4.5219,4.5981,4.6477,4.6597,4.6392,4.6811,4.6585,4.5808,4.6177,0.0,0.0,0.0,0.0,0.0,0.0,0.0,4.6886,0.0,5.1371,5.1691,5.4415,5.47,5.3753,5.4362,5.4421,5.3966,5.2853,0.0,5.0109,4.8888,4.7964,0.0,0.0,0.0,0.0,0.0,0.0,0.0,0.0,0.0,4.2236,0.0,0.0,0.0,4.7103,0.0,0.0,0.0,0.0,0.0,0.0,0.0,0.0,0.0,0.0,0.0,0.0,0.0,0.0,0.0,5.8385,5.8922,5.9315,5.8954,5.9027,6.0066,6.0535,6.0671,6.0671,6.1948,6.2251,6.149,6.2023,6.2233,6.1969,6.1969,6.2144,6.2432,6.3149,6.3564,6.3708,6.4456,6.4726,6.4606,6.4516,6.4634,6.4694,6.3771,6.4215,6.5618,6.6732,6.7575,6.8363,4.4005,4.4154,0.0,0.0,0.0,0.0,0.0,0.0,0.0,0.0,0.0,0.0,0.0,0.0,0.0,0.0,0.0,0.0,4.9416,0.0,0.0,0.0,0.0,0.0,4.7451,4.7434,4.7255,4.69,4.6972,4.6835,4.6495,4.6315,0.0,0.0,4.7648,0.0,0.0,0.0,4.8723,0.0,5.0788,4.9846,0.0,5.1162,5.2666,5.3687,5.469,5.4907,5.4489,0.0,5.2026,5.1361,0.0,4.8996,0.0,0.0,0.0,0.0,0.0,0.0,0.0,0.0,4.355,0.0,0.0,0.0,4.1525,4.1725,0.0,0.0,0.0,0.0,0.0,0.0,0.0,0.0,0.0,0.0,0.0,0.0,0.0,0.0,0.0,5.5967,5.6426,5.8654,5.671,5.6533,5.8803,5.9266,5.9398,5.9398,6.0137,6.0757,6.1259,6.1348,6.141,6.1613,6.1613,6.1642,6.173,6.2465,6.2585,6.2411,6.371,6.3888,6.3386,6.3976,6.4659,6.5347,6.4694,6.4872,6.5677,6.7004,6.8031,6.9063,4.4092,4.4354,0.0,0.0,4.5357,0.0,0.0,0.0,0.0,0.0,0.0,0.0,0.0,0.0,0.0,0.0,0.0,0.0,0.0,0.0,0.0,0.0,0.0,0.0,0.0,4.7276,4.7098,4.687,4.6731,4.6495,4.6253,4.6055,0.0,0.0,4.8238,0.0,5.0179,0.0,0.0,0.0,0.0,0.0,0.0,5.2876,5.4488,5.4768,5.5073,5.5156,5.484,0.0,5.2524,0.0,0.0,0.0,0.0,0.0,0.0,0.0,0.0,0.0,0.0,0.0,0.0,0.0,0.0,0.0,3.989,0.0,0.0,0.0,0.0,0.0,0.0,0.0,4.4024,0.0,0.0,0.0,0.0,0.0,0.0,0.0,0.0,0.0,0.0,0.0,5.5771,5.6013,5.7823,5.8504,5.883,5.8608,5.9865,6.0402,6.0323,6.0734,6.0999,6.1404,6.1404,6.1404,6.1404,6.1786,6.2201,6.2497,6.3558,6.415,6.4268,6.5162,6.5729,6.609,6.6455,6.6547,6.6458,6.7245,6.8152,6.9184,4.4205,0.0,0.0,0.0,0.0,0.0,0.0,0.0,0.0,0.0,0.0,0.0,5.4053,5.3862,0.0,0.0,0.0,5.3645,0.0,0.0,5.0289,0.0,0.0,0.0,0.0,0.0,4.6824,4.6684,4.6447,4.6309,4.6253,4.5942,4.6794,0.0,0.0,4.9889,5.161,0.0,0.0,5.0198,5.1321,5.1327,5.0995,5.4615,5.5829,5.5501,5.5589,5.5632,5.5587,5.424,5.3139,0.0,5.19,0.0,0.0,0.0,0.0,0.0,4.5403,0.0,0.0,0.0,0.0,0.0,0.0,0.0,0.0,0.0,0.0,0.0,0.0,0.0,0.0,0.0,0.0,0.0,0.0,0.0,0.0,0.0,0.0,0.0,0.0,0.0,0.0,5.4699,5.4282,5.4861,5.6819,5.7458,5.7782,5.7739,5.8873,5.9526,5.9596,6.0093,6.0704,6.1454,6.1454,6.1542,6.1716,6.1928,6.2282,6.2779,6.3696,6.4347,6.4941,6.5991,6.65,6.6832,6.7653,6.7901,6.7814,6.8118,6.8848,6.9732,4.4428,4.519,0.0,0.0,0.0,0.0,0.0,0.0,0.0,0.0,0.0,0.0,0.0,0.0,0.0,0.0,0.0,5.8244,5.653,0.0,5.3772,0.0,0.0,0.0,0.0,0.0,0.0,0.0,4.6266,4.644,4.6987,4.6031,4.6464,0.0,4.9137,5.0001,5.0769,5.2013,5.3619,5.5063,5.3683,5.4037,5.5322,0.0,5.5065,5.5413,5.6105,0.0,0.0,5.4378,5.3915,0.0,0.0,0.0,0.0,0.0,0.0,0.0,0.0,0.0,0.0,0.0,0.0,0.0,0.0,0.0,4.0558,0.0,0.0,0.0,0.0,0.0,0.0,0.0,0.0,0.0,0.0,0.0,0.0,0.0,0.0,0.0,0.0,0.0,0.0,5.3011,5.151,5.2034,5.5733,5.5692,5.5765,5.6403,5.649,5.739,5.9277,5.9306,6.0264,6.2064,6.2064,6.2412,6.3022,6.3022,6.3051,6.3109,6.3748,6.426,6.4568,6.5617,6.6642,6.7456,6.7832,6.8595,6.9476,7.0139,7.0633,7.11,0.0,0.0,0.0,0.0,0.0,0.0,0.0,4.9548,0.0,0.0,0.0,0.0,0.0,0.0,5.7516,0.0,0.0,5.8665,5.7824,5.5825,0.0,0.0,0.0,4.9686,0.0,0.0,0.0,0.0,0.0,4.6323,4.6864,4.6014,4.6358,4.7692,0.0,5.0878,0.0,0.0,0.0,0.0,0.0,5.4585,5.6348,0.0,0.0,5.5679,5.5908,5.5977,0.0,5.4875,5.4083,5.3455,5.3245,5.2377,5.1322,5.0995,5.0778,0.0,0.0,0.0,4.859,4.4758,0.0,0.0,0.0,0.0,0.0,0.0,0.0,0.0,0.0,0.0,0.0,0.0,0.0,0.0,0.0,0.0,0.0,0.0,0.0,0.0,0.0,0.0,0.0,4.9802,5.0366,5.1621,5.3946,5.4546,5.5271,5.6374,5.6403,5.7332,5.9277,5.8809,5.9731,6.2093,6.1849,6.2196,6.308,6.308,6.3312,6.3719,6.4172,6.4648,6.5212,6.6487,6.7152,6.7545,6.8817,6.955,6.9856,6.9898,7.0456,7.1566,4.6312,0.0,0.0,0.0,0.0,0.0,0.0,0.0,0.0,0.0,5.3604,0.0,5.6964,0.0,5.8263,0.0,5.9713,5.9502,5.8906,5.7406,0.0,5.6795,5.3401,0.0,0.0,0.0,0.0,0.0,0.0,4.6898,4.7444,4.6596,4.6797,4.7877,0.0,5.1201,5.2702,0.0,5.664,0.0,0.0,5.5575,0.0,0.0,5.5913,5.5685,0.0,5.5685,5.5633,5.5467,5.4966,5.4301,5.4857,5.3882,5.2618,5.241,5.1902,5.0938,4.9426,4.957,0.0,0.0,4.543,0.0,0.0,0.0,0.0,0.0,0.0,0.0,0.0,0.0,0.0,0.0,0.0,0.0,0.0,3.752,0.0,0.0,0.0,0.0,0.0,0.0,4.6742,4.8094,4.8824,5.0255,0.0,0.0,5.4487,5.5916,5.5945,5.6988,5.9132,5.8663,5.9846,6.2441,6.2224,6.2687,6.3777,6.3777,6.4096,6.4706,6.5086,6.5718,6.6461,6.7382,6.8088,6.8512,6.9759,7.0397,7.0675,7.0477,7.107,7.2151,0.0,0.0,0.0,0.0,4.9571,0.0,0.0,0.0,5.212,0.0,5.4568,5.5632,5.7174,5.8538,5.9553,6.0298,6.0916,0.0,5.9868,5.976,0.0,0.0,5.6185,5.5411,5.6056,0.0,0.0,0.0,0.0,0.0,4.8575,4.7649,4.7626,4.8446,4.9699,0.0,5.2538,5.5232,5.7055,5.8141,5.7475,5.707,5.6824,5.6376,0.0,5.5539,5.5457,5.5795,5.6176,5.6091,5.6285,5.6423,5.6125,5.5978,5.5646,5.4507,5.3989,5.3284,5.1111,5.0605,5.0035,4.716,0.0,0.0,0.0,0.0,4.4873,0.0,0.0,0.0,0.0,0.0,0.0,0.0,0.0,0.0,0.0,0.0,0.0,0.0,0.0,0.0,0.0,4.1325,4.2953,4.7572,4.6764,4.7903,0.0,0.0,5.3279,5.4892,5.5008,5.6246,5.8869,5.8752,6.0168,6.3051,6.308,6.3748,6.4938,6.4967,6.5315,6.5896,6.6283,6.7049,6.7894,6.8279,6.9049,6.9931,7.0314,7.1087,7.1916,7.1977,7.2483,7.3107,4.8325,4.9211,4.9973,0.0,4.9865,4.9973,0.0,0.0,0.0,0.0,5.6583,5.815,6.0361,6.075,6.1359,6.2595,6.2765,0.0,0.0,0.0,0.0,6.16,5.8449,5.7175,5.8193,5.3892,0.0,5.1268,0.0,0.0,4.8575,4.7649,4.7568,4.8201,0.0,0.0,5.301,5.4577,5.6734,5.8955,5.8067,5.7865,0.0,0.0,5.7022,5.6691,5.652,5.621,5.5901,5.6034,5.6144,5.6125,5.5677,5.578,5.5907,5.5039,5.4915,5.4599,5.3404,5.297,5.2322,5.0206,4.8889,4.7641,0.0,0.0,0.0,0.0,0.0,0.0,0.0,0.0,0.0,0.0,0.0,0.0,0.0,0.0,0.0,0.0,0.0,0.0,3.7936,4.0102,4.214,4.3547,4.4717,0.0,0.0,0.0,0.0,5.4554,5.532,5.682,5.9161,5.8427,5.9337,6.2014,6.2227,6.2859,6.389,6.4636,6.5083,6.5228,6.5865,6.65,6.7216,6.785,6.8615,6.9243,6.937,6.9838,7.0735,7.2241,7.2983,7.3355,4.977,0.0,0.0,5.1764,0.0,0.0,5.2974,0.0,0.0,5.6307,5.7537,0.0,6.0478,6.1665,6.2668,6.342,6.3657,0.0,0.0,0.0,0.0,6.2506,6.1025,6.007,5.9873,5.6554,0.0,5.2899,0.0,0.0,4.8821,4.7894,4.7581,4.7841,4.8619,5.0048,5.21,5.4516,5.6698,5.8638,5.813,0.0,0.0,5.7936,5.7409,5.6957,5.7331,5.6885,5.6208,5.6645,5.6599,5.6392,5.6309,5.631,5.6213,5.544,5.5122,5.4795,5.4061,5.3495,5.2927,5.1795,5.0669,4.9406,4.7557,4.7444,4.7527,0.0,0.0,0.0,0.0,0.0,0.0,0.0,0.0,0.0,0.0,0.0,0.0,0.0,0.0,0.0,3.5536,3.8256,4.0372,4.1442,0.0,0.0,0.0,0.0,0.0,5.3568,5.4754,5.645,5.9015,5.8427,5.9251,6.1877,6.1977,6.2611,6.3786,6.4289,6.5007,6.5659,6.6168,6.693,6.7648,6.8154,6.877,6.9226,6.9476,6.9973,7.077,7.1905,7.2643,7.2982,0.0,0.0,0.0,0.0,0.0,0.0,0.0,5.506,0.0,5.7413,0.0,5.9044,5.9711,6.2026,6.3566,0.0,0.0,6.3942,6.3298,6.425,6.4179,6.2639,6.3418,6.3154,6.1317,5.9474,0.0,0.0,0.0,0.0,4.9135,4.8301,4.7787,4.7642,4.8274,0.0,0.0,5.4797,5.7003,0.0,5.7995,5.8227,5.8341,5.8076,5.7484,5.6924,5.7923,5.7512,5.6677,5.7317,5.7267,5.6901,5.7308,5.7084,5.648,5.5704,5.5098,5.4586,5.4014,5.3473,5.2981,5.2653,5.2222,5.1338,4.961,4.9364,4.9342,4.8834,4.8256,0.0,0.0,0.0,0.0,0.0,0.0,0.0,0.0,0.0,0.0,0.0,0.0,0.0,0.0,3.6373,3.8416,0.0,0.0,0.0,0.0,0.0,0.0,5.2709,5.4023,0.0,5.8723,0.0,5.9554,6.1977,6.2064,6.255,6.3651,6.3951,6.4872,6.6177,6.6677,6.747,6.8318,6.8638,6.8955,6.9299,6.9946,7.0523,7.1123,7.1123,7.1738,7.2448,0.0,0.0,0.0,0.0,0.0,5.6478,5.7884,5.8381,5.8903,5.9742,6.0995,0.0,6.2793,6.3165,6.3875,6.5032,6.5149,0.0,0.0,0.0,0.0,6.547,6.5014,6.4245,6.2925,6.0032,5.7508,0.0,0.0,0.0,4.9135,4.8179,4.8057,4.8505,4.7784,0.0,5.196,5.5398,0.0,5.7644,5.8668,5.8952,5.8812,5.86,5.8355,5.826,5.824,5.7614,5.6864,5.737,5.7308,5.7024,5.6988,5.6761,5.6439,5.6219,5.5797,5.54,5.498,5.4649,5.4345,5.3774,5.3187,5.2442,5.146,5.0509,4.9717,4.9364,4.8869,4.8048,4.6943,0.0,0.0,0.0,0.0,0.0,0.0,0.0,0.0,0.0,0.0,0.0,0.0,0.0,0.0,0.0,0.0,0.0,0.0,0.0,0.0,0.0,5.4873,0.0,0.0,0.0,5.9233,6.0976,6.1495,6.1747,6.213,6.3669,6.4531,6.489,6.6073,6.704,6.7605,6.7691,6.794,6.8304,6.8634,6.8991,6.9346,6.993,7.1089,7.2418,0.0,0.0,0.0,0.0,0.0,0.0,0.0,6.096,0.0,6.1117,6.1506,6.2157,6.2801,6.3838,6.4722,6.5249,6.5802,6.6137,6.6174,6.6403,6.6238,6.5614,6.4986,0.0,6.3171,0.0,5.8626,5.5568,0.0,0.0,0.0,4.745,4.7133,4.7287,4.8231,4.9714,0.0,0.0,0.0,5.742,5.8695,5.9196,5.9398,5.9656,5.9598,5.9505,5.9223,5.8719,5.8279,5.8216,5.793,5.7611,5.7545,5.691,5.6176,5.6176,5.5922,5.5658,5.5453,5.5308,5.4961,5.4504,5.3791,5.2857,5.1775,5.1088,5.0494,4.9716,4.9332,4.837,4.5813,4.3172,0.0,0.0,0.0,0.0,0.0,0.0,0.0,0.0,0.0,0.0,0.0,0.0,0.0,0.0,0.0,0.0,0.0,0.0,0.0,0.0,0.0,0.0,0.0,0.0,0.0,6.0952,6.1559,6.2,6.2424,6.3801,6.4634,6.5064,6.6209,6.7055,6.7571,6.785,6.8059,6.8298,6.8772,6.9123,6.9472,6.9933,7.1268,7.2748,0.0,5.6774,0.0,0.0,5.9176,0.0,6.0709,6.2695,6.3606,6.2228,6.1989,6.2129,6.2803,6.4577,6.5669,6.5586,6.6567,6.6779,6.5911,6.6209,6.6003,6.5125,6.4813,6.4148,6.3275,6.2335,5.9979,0.0,0.0,0.0,0.0,0.0,0.0,0.0,0.0,0.0,0.0,0.0,5.6356,5.7611,5.8716,5.937,5.979,6.0329,6.0297,5.9977,5.9659,5.943,5.9363,5.8871,5.8429,5.8009,5.7757,5.6966,5.5979,5.588,5.573,5.5619,5.5515,5.5459,5.5409,5.4914,5.4035,5.3039,5.183,5.145,5.096,4.9803,4.9392,4.8244,4.518,4.3165,0.0,0.0,0.0,0.0,0.0,0.0,0.0,0.0,0.0,0.0,0.0,0.0,0.0,0.0,0.0,0.0,0.0,0.0,0.0,0.0,0.0,5.5452,5.7708,0.0,5.9927,0.0,6.1687,6.2341,6.3148,6.3906,6.4558,6.5347,6.6368,6.7215,6.7699,6.8148,6.8505,6.8623,6.924,6.9588,6.9933,7.0161,7.1434,7.2889,0.0,0.0,0.0,0.0,0.0,0.0,0.0,6.3179,6.4221,6.3491,6.393,6.4472,6.4946,6.5826,6.6571,6.698,6.7582,6.7781,6.7164,6.7024,6.6496,6.5583,6.5334,6.4841,6.4111,6.3134,6.1187,0.0,0.0,0.0,0.0,0.0,0.0,0.0,0.0,0.0,0.0,5.5518,5.7011,5.8514,5.9309,5.9728,5.985,5.975,5.9456,5.9135,5.8514,5.8504,5.8739,5.8091,5.7875,5.7654,5.6843,5.6305,5.588,5.5381,5.5424,5.5515,5.4778,5.5138,5.5604,5.4783,5.4242,5.3812,5.2795,5.1731,5.0729,4.9803,4.8491,4.6944,4.4609,4.4958,4.459,0.0,0.0,0.0,0.0,0.0,0.0,0.0,0.0,0.0,0.0,0.0,0.0,0.0,0.0,0.0,0.0,0.0,0.0,4.9643,0.0,5.3522,5.5879,5.808,0.0,6.1613,6.1342,6.1932,6.3089,6.3207,6.371,6.4814,6.6042,6.7274,6.8268,6.8386,6.8772,6.9356,6.9387,6.9703,7.0275,7.0275,7.1087,7.2189,0.0,0.0,0.0,0.0,0.0,0.0,0.0,6.431,6.4882,6.4498,6.4635,6.5143,6.6315,6.6558,6.6868,6.739,6.7475,6.7094,6.6356,6.6108,6.565,6.4811,6.4561,6.4277,6.4072,6.2914,6.1036,0.0,0.0,0.0,0.0,0.0,0.0,0.0,0.0,5.4099,5.5486,5.7043,5.8313,5.9281,6.0107,6.0515,6.0603,6.0746,6.0602,6.0338,5.9858,5.9747,5.9563,5.8787,5.8023,5.7419,5.6946,5.6586,5.6285,5.6083,5.6288,5.6563,5.6133,5.6275,5.6239,5.553,5.4734,5.3831,5.2715,5.132,5.0214,4.9911,4.8707,4.7136,4.5576,4.4514,4.396,0.0,0.0,0.0,0.0,0.0,0.0,0.0,0.0,0.0,0.0,0.0,0.0,0.0,0.0,0.0,0.0,0.0,0.0,4.8546,0.0,5.412,5.5478,5.8446,6.0272,6.1346,6.1783,6.2408,6.3118,6.3654,6.4517,6.5528,6.6458,6.7025,6.7488,6.7887,6.8304,6.8537,6.8851,6.9444,7.0047,7.0645,7.1505,7.2461,6.1385,0.0,6.1654,0.0,6.332,6.3639,6.4654,6.5357,6.5705,6.5519,6.551,6.5946,6.6939,6.7242,6.7472,6.7833,6.7517,6.7057,6.6244,6.5781,6.5256,6.4491,6.4239,0.0,6.3854,6.2935,6.14,5.905,5.7374,0.0,0.0,0.0,0.0,0.0,5.4762,5.6131,5.7002,5.8409,5.9376,6.0107,6.0798,6.1007,6.1058,6.1426,6.1206,6.0794,6.0475,6.0175,5.9666,5.8789,5.8043,5.7355,5.7152,5.7051,5.6847,5.6539,5.6793,5.7114,5.6925,5.6839,5.6764,5.6107,5.5025,5.3866,5.2658,5.1266,5.0078,4.9579,4.846,4.7244,4.6089,4.4598,4.394,0.0,0.0,0.0,0.0,0.0,0.0,0.0,0.0,3.8564,3.8358,0.0,0.0,0.0,0.0,0.0,0.0,0.0,0.0,0.0,0.0,0.0,0.0,5.8462,6.0409,6.1226,6.1961,6.2647,6.3292,6.407,6.4961,6.5723,6.6508,6.6858,6.6981,6.7742,6.7927,6.7972,6.8613,6.9327,6.9879,7.0886,7.1743,7.2426,6.1734,6.2304,6.2961,6.3664,6.4712,6.5424,6.5285,6.6191,6.6809,6.6683,6.6984,6.7127,6.6723,6.8069,6.8856,6.8399,6.8291,6.8001,6.7631,6.6711,6.5833,0.0,0.0,6.4358,6.36,6.3377,6.259,6.1197,0.0,0.0,5.6614,0.0,5.4333,5.5653,5.6021,5.7248,5.9004,5.9465,6.0202,6.0949,6.098,6.109,6.1206,6.1206,6.0721,5.9925,5.954,5.9058,5.8444,5.7781,5.754,5.754,5.754,5.754,5.7333,5.6598,5.6721,5.7034,5.6152,5.639,5.6766,5.6193,5.5026,5.3867,5.2959,5.179,5.0326,4.86,4.7541,4.6625,4.5822,4.5845,4.5704,4.4826,0.0,0.0,0.0,0.0,0.0,0.0,3.7672,3.6405,3.6677,0.0,0.0,0.0,0.0,0.0,0.0,0.0,0.0,4.6736,5.0051,0.0,5.5112,5.8115,6.0409,6.1613,6.1613,6.2322,6.3565,6.4183,6.4649,6.5025,6.6009,6.6545,6.695,6.7972,6.8075,6.7884,6.8907,6.9493,6.9778,7.0838,7.1424,7.1644,6.3906,6.4051,6.4185,6.4838,6.5019,6.532,6.6272,6.6459,6.666,6.6848,6.7482,6.7725,6.7335,6.7901,6.832,0.0,6.7566,6.6959,0.0,6.5773,6.5034,6.5156,6.4599,6.4384,6.4658,6.3835,6.3069,6.2514,0.0,0.0,0.0,5.7409,5.7709,5.8894,5.871,5.9174,6.0198,6.0614,6.0895,6.1011,6.1283,6.1325,6.1206,6.1,6.069,6.0272,5.9953,5.9546,5.9061,5.8744,5.8578,5.8578,5.8578,5.8171,5.76,5.728,5.7399,5.7459,5.7013,5.682,5.6651,5.5538,5.4686,5.3866,5.2686,5.1514,5.0131,4.849,4.819,4.7832,4.7024,4.6857,4.6716,4.6062,0.0,0.0,0.0,0.0,0.0,0.0,0.0,3.8666,0.0,3.847,0.0,0.0,0.0,0.0,0.0,0.0,0.0,0.0,5.074,0.0,5.5303,5.8036,6.01,6.1613,6.185,6.244,6.3262,6.3609,6.3954,6.4327,6.5307,6.5791,6.5899,6.6579,6.7237,6.7821,6.8374,6.9335,7.0521,7.1218,7.1644,7.197,6.4712,6.4894,6.5105,6.5669,6.5705,6.5939,6.7094,6.7156,6.713,6.7338,6.7928,6.8234,6.7968,6.8009,0.0,6.8593,6.7211,6.66,6.7281,6.5945,6.5231,6.5471,6.5107,6.4858,6.4822,0.0,0.0,6.3299,6.2164,6.1054,5.9989,5.9758,6.0064,6.0811,6.0259,6.0454,6.1122,6.1182,6.1235,6.1189,6.1426,6.1308,6.1,6.0897,6.0586,6.0377,6.0092,5.9773,5.9422,5.9207,5.9099,5.9099,5.8991,5.8505,5.7853,5.7853,5.779,5.7528,5.7191,5.6678,5.5966,5.5225,5.4234,5.3247,5.2073,5.1098,5.0102,4.8789,4.8649,4.8507,4.7695,4.7664,4.7601,4.7013,0.0,4.6612,0.0,0.0,0.0,0.0,0.0,0.0,0.0,3.9979,0.0,0.0,0.0,0.0,0.0,0.0,0.0,4.7851,5.1928,0.0,5.6435,5.827,6.0019,6.1613,6.2116,6.2615,6.3309,6.3538,6.388,6.4218,6.5228,6.5584,6.5359,6.6261,6.6854,6.7324,6.8123,6.9177,7.0252,7.131,7.197,7.2187,6.438,6.5062,0.0,0.0,6.6638,0.0,6.7749,6.7941,6.8036,6.792,6.8363,6.8551,6.8397,6.8353,6.8388,6.8319,0.0,0.0,0.0,6.6839,6.6187,6.6011,6.6106,6.5603,6.4337,6.4518,6.427,6.3663,6.2969,6.2436,6.1951,6.1741,6.1556,6.1556,6.1057,6.1122,6.1725,6.1239,6.1252,6.1676,6.1339,6.1031,6.0855,6.0824,6.0586,6.0377,6.0092,5.9773,5.9422,5.9207,5.9099,5.9021,5.8833,5.8504,5.8254,5.8225,5.7722,5.7133,5.6936,5.588,5.4941,5.4941,5.3839,5.2379,5.1266,5.0793,5.0293,4.9359,4.9,4.8588,4.805,4.8177,4.8299,4.788,4.7853,4.7205,4.5467,0.0,0.0,0.0,0.0,0.0,0.0,4.0478,4.1383,0.0,0.0,0.0,0.0,0.0,4.7476,5.0544,5.3138,5.5702,5.7923,5.8731,6.0081,6.1732,6.2351,6.2963,6.3538,6.388,6.4188,6.4524,6.5726,6.5885,6.5437,6.6635,6.6789,6.6488,6.8318,6.9072,6.9435,7.1284,7.2046,7.2187,0.0,0.0,6.6602,6.6595,6.6443,6.6774,6.794,6.7478,6.7287,6.7981,6.8137,6.8083,6.7719,6.807,6.8173,6.7787,6.7113,6.685,6.7277,6.6384,6.5967,6.6373,6.5665,6.5362,6.5421,6.4681,6.4332,6.4087,6.3995,6.3627,6.3191,6.2907,6.2716,6.2524,6.2136,6.2003,6.1964,6.1765,6.1871,6.2053,6.1423,6.1309,6.1502,6.1009,6.0586,6.0377,6.0092,5.9773,5.9422,5.9207,5.8991,5.8862,5.9258,5.9073,5.8508,5.8039,5.7319,5.6495,5.5935,5.5251,5.4542,5.4093,5.3528,5.2936,5.2429,5.1728,5.1031,5.0612,5.0005,4.954,4.9293,4.9373,4.9319,4.8273,4.7734,4.6959,4.5441,0.0,0.0,0.0,4.1957,4.1956,4.1879,4.2242,4.221,0.0,0.0,0.0,0.0,4.7197,4.9307,5.1456,5.3995,5.6204,5.8132,5.8896,6.0267,6.2351,6.2963,6.3424,6.3538,6.4075,6.4493,6.4746,6.5232,6.567,6.6009,6.6274,6.6847,6.7589,6.8118,6.9234,7.0578,7.1113,7.1916,7.2721,6.5242,6.6153,6.6952,6.7114,6.7127,6.7446,6.8533,6.8064,6.7614,6.8059,6.8004,6.7879,6.7557,6.8076,6.8266,6.7891,6.7448,6.7243,6.718,6.6474,6.6154,6.6302,6.5813,6.5554,6.5425,6.5028,6.4638,6.4333,6.4659,6.4539,6.4095,6.4126,6.3898,6.3316,6.3019,6.2688,6.2456,6.2041,6.2019,6.2167,6.1382,6.1113,6.1348,6.1182,6.0971,6.0791,6.0775,6.0434,6.0106,5.9887,5.9377,5.9007,5.9546,5.9207,5.8545,5.8224,5.7536,5.6849,5.6108,5.531,5.4544,5.3839,5.3443,5.3073,5.2816,5.2251,5.1686,5.1339,5.0824,5.0417,5.0189,5.0086,4.9599,4.8177,4.7561,4.665,4.5156,4.4362,0.0,4.3781,4.3546,4.3598,4.4147,4.4306,4.3888,4.2918,0.0,0.0,4.6119,4.9444,5.185,5.2686,5.4681,5.6531,5.8086,5.951,6.085,6.24,6.3159,6.3471,6.3507,6.4148,6.4451,6.4614,6.525,6.5731,6.6224,6.6299,6.6807,6.7578,6.8001,6.9029,7.0083,7.072,7.1317,7.1988,6.574,6.6358,6.7074,6.755,6.7904,6.839,6.9052,6.8705,6.8319,6.8004,6.8051,6.7946,6.7598,6.8232,6.8625,6.8354,6.8166,6.7895,6.7335,6.6846,6.647,6.6263,6.6176,6.5825,6.5173,6.5222,6.4918,6.4402,6.502,6.5092,6.4738,6.5215,6.4821,6.3821,6.371,6.3444,6.2786,6.1988,6.2001,6.2372,6.136,6.1071,6.1212,6.1492,6.1462,6.1416,6.1528,6.1267,6.0932,6.0737,5.9954,5.9203,5.9621,5.9331,5.8779,5.855,5.8263,5.7888,5.6623,5.5652,5.4771,5.4036,5.3639,5.3379,5.3093,5.2691,5.2315,5.1964,5.1475,5.1014,5.0905,5.0471,4.9545,4.7891,4.719,4.6303,4.4754,0.0,4.4045,4.5074,4.4676,4.4859,4.5967,4.6104,4.5872,4.5261,4.8001,4.9171,0.0,5.1737,5.3918,5.3923,5.5366,5.6737,5.8032,6.0149,6.1575,6.2055,6.3033,6.3516,6.3513,6.4095,6.4364,6.4412,6.5295,6.579,6.6173,6.6448,6.6796,6.7173,6.8092,6.8588,6.9059,7.022,7.0717,7.1015,6.5721,6.6426,6.713,6.7536,6.7671,6.7869,6.8447,6.8509,6.8197,6.7638,6.8686,6.8982,6.7742,6.8803,6.9288,6.8383,6.8797,6.8652,6.7603,6.7242,6.6978,6.6801,6.6353,6.5956,6.5712,6.4752,6.4471,6.4866,6.4771,6.4834,6.5247,6.565,6.4894,6.3248,6.4381,6.3944,6.2333,6.2105,6.2681,6.341,6.2148,6.2226,6.2993,6.2456,6.1947,6.1478,6.1459,6.1186,6.0624,6.0624,5.9841,5.8863,5.9477,5.9422,5.9132,5.9161,5.951,5.9159,5.6451,5.5225,5.4683,5.4456,5.4385,5.4422,5.4303,5.3417,5.2588,5.2588,5.2099,5.1529,5.0987,5.0824,4.9874,4.7188,4.6866,4.6168,4.3963,0.0,4.5289,4.5154,4.5972,4.6468,4.6763,4.6561,4.673,4.7677,4.8215,4.9166,5.0738,5.2405,5.3893,5.5196,5.5909,5.7168,5.8943,6.0694,6.1535,6.1558,6.3161,6.3853,6.3732,6.4151,6.4582,6.502,6.5114,6.5387,6.5796,6.6543,6.7109,6.742,6.7722,6.8447,6.9302,6.9704,7.0463,7.1221,6.5759,6.6461,6.7125,6.7561,6.7863,6.8093,6.8206,6.8463,6.8498,6.8008,6.871,6.8996,6.8223,6.9043,6.9367,6.8942,6.9578,6.9544,6.8506,6.7892,6.7568,6.7297,6.6931,6.6467,6.5994,6.5094,6.4802,6.5124,6.5411,6.5532,6.5682,6.6179,6.5647,6.4214,6.4842,6.4433,6.3313,6.2941,6.3131,6.3749,6.2549,6.2411,6.2884,6.2616,6.2526,6.2521,6.2625,6.2314,6.1966,6.1733,6.0706,5.9597,5.9888,5.9655,5.9306,5.9306,5.9015,5.8404,5.7339,5.6046,5.5159,5.5261,5.4964,5.4607,5.4341,5.3763,5.3185,5.3185,5.2723,5.2208,5.1936,5.1339,5.0449,4.8872,4.8027,0.0,0.0,4.5921,4.6142,4.6596,4.6937,4.7389,4.7793,4.7424,4.7512,4.8436,4.9253,5.024,5.1293,5.3107,5.4544,5.5451,5.6534,5.7674,5.8637,5.9948,6.0835,6.1195,6.2445,6.2866,6.2977,6.3455,6.4035,6.4591,6.4936,6.5555,6.6352,6.6878,6.7213,6.7593,6.7797,6.8295,6.8989,6.9188,6.9714,7.0371,6.6109,6.6668,6.726,6.7655,6.8016,6.8231,6.8245,6.8692,6.8959,6.8625,6.9151,6.9465,6.9144,6.9434,6.9654,6.9729,7.0003,6.991,6.9191,6.8626,6.8042,6.7784,6.741,6.684,6.6159,6.5603,6.5304,6.5464,6.5873,6.602,6.5972,6.6406,6.6101,6.4914,6.507,6.4751,6.4135,6.3609,6.3549,6.3886,6.2993,6.2622,6.2616,6.2686,6.3063,6.3579,6.3475,6.3416,6.3295,6.2787,6.1608,6.0409,6.0235,5.9887,5.951,5.9392,5.8462,5.7591,5.8075,5.701,5.5743,5.6149,5.5483,5.4681,5.4413,5.3942,5.3592,5.3592,5.3239,5.2886,5.275,5.2081,5.1162,5.0241,0.0,0.0,0.0,4.7428,4.7487,4.8325,4.8101,4.823,4.927,4.8784,4.8707,4.9501,5.063,5.16,5.2184,5.4121,5.5424,5.6019,5.7295,5.8003,5.8335,5.9317,6.0216,6.0745,6.1703,6.2258,6.2581,6.2953,6.361,6.4547,6.4925,6.5805,6.6887,6.7149,6.742,6.7797,6.7899,6.8201,6.86,6.8994,6.9188,6.9577,6.7052,6.7219,6.7461,6.7955,6.7925,6.804,6.8726,6.9316,6.9578,6.9322,7.0405,7.0929,7.044,7.023,7.0282,7.0756,6.9938,6.9478,6.9412,6.9057,6.8728,6.8262,6.759,6.6902,6.6268,6.566,6.5459,6.5861,6.5687,6.5723,6.6142,6.5884,6.5249,6.4412,6.5064,6.4754,6.381,6.3779,6.4039,6.4259,6.3587,6.3376,6.3388,6.3448,6.3609,6.3947,6.3624,6.3712,6.3914,6.2934,6.1928,6.1019,6.0409,6.0177,6.0119,5.9764,5.8708,5.7775,5.7803,5.7084,5.6388,5.6791,5.6121,5.5315,5.5072,5.4242,5.3592,5.3592,5.3565,5.3375,5.2805,5.2879,5.2103,4.9255,0.0,0.0,4.773,4.8681,4.9878,5.0211,4.9761,4.9891,5.1058,5.0679,5.0793,5.1933,5.2184,5.2939,5.463,5.5168,5.6076,5.7581,5.7974,5.8335,5.8694,5.9867,6.0331,6.0077,6.1599,6.2825,6.3548,6.2955,6.3806,6.5861,6.5155,6.5485,6.6492,6.7336,6.7797,6.7797,6.8301,6.86,6.8699,6.9188,6.9382,6.9511,6.7184,6.7169,6.7256,6.7822,6.8096,6.8344,6.8486,6.9374,7.0066,7.0487,7.0579,7.0884,7.1788,7.0614,7.0166,7.1292,7.0404,6.9878,6.9878,6.9483,6.8958,6.8209,6.7512,6.7004,6.6695,6.6369,6.6058,6.6101,6.5996,6.591,6.5915,6.5808,6.5467,6.4925,6.5173,6.5063,6.4487,6.4236,6.4279,6.4382,6.3689,6.3524,6.3538,6.3309,6.3707,6.4219,6.3476,6.3502,6.3608,6.257,6.1808,6.1077,6.0409,6.0059,5.9821,5.9222,5.8718,5.8512,5.8636,5.7612,5.6556,5.7076,5.6636,5.5949,5.5332,5.5018,5.4731,5.4978,5.4978,5.491,5.4551,5.4231,5.3716,5.2789,0.0,5.1905,5.1071,5.0906,5.0822,5.0822,5.0572,5.0542,5.0986,5.1044,5.1377,5.2463,5.3079,5.4007,5.5197,5.6162,5.7071,5.7974,5.8335,5.8664,5.8991,6.0006,6.0651,6.0913,6.1539,6.2425,6.3672,6.2955,6.3806,6.575,6.567,6.6161,6.7004,6.7149,6.7286,6.7486,6.7883,6.8046,6.8307,6.9121,6.9511,6.9703,6.7256,6.7281,6.7295,6.7616,6.809,6.8421,6.849,6.9316,7.0131,7.0906,7.0456,7.0648,7.2271,7.0761,7.0239,7.1687,7.0828,7.0134,7.0134,6.9399,6.8538,6.7829,6.7317,6.7005,6.6901,6.6501,6.6185,6.6085,6.5866,6.5652,6.5515,6.5515,6.5406,6.5187,6.5187,6.4967,6.4777,6.4524,6.427,6.4075,6.3622,6.3424,6.3309,6.3194,6.3503,6.4189,6.3592,6.3436,6.3486,6.268,6.2006,6.1396,6.0932,6.0547,6.0008,5.9229,5.8814,5.8692,5.9036,5.8137,5.7145,5.7564,5.7121,5.6431,5.5932,5.5671,5.566,5.5908,5.6032,5.6019,5.585,5.5391,5.5011,5.5054,5.4083,5.3273,5.3415,5.2743,5.224,5.2128,5.1821,5.171,5.1933,5.1877,5.2238,5.319,5.3836,5.4768,5.585,5.6846,5.7528,5.8085,5.8335,5.8773,5.9207,6.0012,6.0775,6.1386,6.1383,6.2174,6.3672,6.2871,6.3594,6.5536,6.5517,6.6135,6.7342,6.6735,6.7001,6.7687,6.7655,6.8012,6.8564,6.9217,6.9703,6.9988,6.751,6.751,6.751,6.751,6.7709,6.8199,6.891,6.9211,6.9678,7.0415,7.0082,7.0361,7.1786,7.0832,7.0664,7.2073,7.107,7.0338,7.0338,6.8828,6.7705,6.7037,6.7005,6.6901,6.6617,6.5922,6.5681,6.57,6.5045,6.4754,6.4888,6.4888,6.4888,6.4888,6.4888,6.4777,6.4382,6.4382,6.4075,6.3538,6.3538,6.3309,6.3079,6.3079,6.3265,6.3684,6.3917,6.3789,6.3573,6.3204,6.2645,6.2093,6.2093,6.1603,6.0869,6.0024,5.9031,5.8446,5.9064,5.8783,5.8323,5.869,5.7756,5.6812,5.6812,5.6346,5.5936,5.5936,5.6156,5.6375,5.6347,5.627,5.5778,5.5137,5.5261,5.5074,5.3866,5.3974,5.4222,5.4597,5.3806,5.3443,5.4007,5.3553,5.355,5.4398,5.4537,5.5221,5.6822,5.7191,5.7416,5.7781,5.8085,5.8634,5.9529,5.988,6.0426,6.1386,6.1236,6.2053,6.3641,6.2574,6.3173,6.5244,6.4604,6.5381,6.7132,6.6388,6.7135,6.8502,6.8143,6.8597,6.9382,6.9703,6.9988,7.0176,6.751,6.7837,6.8046,6.776,6.8553,6.9199,6.9312,6.962,7.0203,7.0937,7.0656,7.0831,7.2282,7.132,7.1043,7.2234,7.1609,7.0873,7.0588,6.8872,6.7822,6.7419,6.6944,6.6617,6.6299,6.611,6.5866,6.5406,6.5188,6.5001,6.4888,6.4888,6.4888,6.4888,6.4888,6.4888,6.4777,6.43,6.3993,6.3766,6.3424,6.3194,6.3079,6.2847,6.2913,6.3208,6.2526,6.2662,6.3146,6.2558,6.2558,6.279,6.2542,6.1853,6.0955,6.0535,5.968,5.898,5.9177,5.9276,5.9137,5.8787,5.8439,5.8048,5.7795,5.7988,5.8043,5.7882,5.823,5.8411,5.7796,5.7612,5.7285,5.6192,5.6024,5.5861,5.5074,5.4622,5.4481,5.4597,5.3921,5.3501,5.3525,5.3518,5.388,5.473,5.5785,5.6673,5.7191,5.7445,5.7781,5.8085,5.8445,5.8991,5.988,6.0897,6.1446,6.1704,6.2792,6.345,6.3672,6.3546,6.3987,6.4975,6.4984,6.5443,6.6093,6.5739,6.6191,6.7198,6.7385,6.7998,6.8785,6.9694,7.0082,7.027,6.7353,6.7709,6.803,6.8041,6.9054,6.9846,6.9754,7.0376,7.1018,7.1353,7.1029,7.116,7.2241,7.1569,7.1487,7.2411,7.1874,7.1199,7.0588,6.9072,6.7989,6.7597,6.6721,6.6268,6.6192,6.5835,6.5482,6.5297,6.5018,6.494,6.4888,6.4888,6.4888,6.4888,6.4777,6.4666,6.4554,6.3993,6.3766,6.3652,6.3309,6.3079,6.3079,6.2847,6.2913,6.3089,6.2673,6.2779,6.308,6.2906,6.3138,6.3428,6.2765,6.2216,6.1765,6.0904,6.03,5.9907,5.9654,5.9893,6.0158,5.9794,5.9428,5.9117,5.8868,5.909,5.9173,5.8843,5.9137,5.9291,5.8812,5.8474,5.8053,5.7294,5.6732,5.6283,5.5917,5.5327,5.4962,5.4962,5.4625,5.429,5.3749,5.4112,5.4648,5.5464,5.664,5.7303,5.7303,5.7528,5.7781,5.8003,5.8445,5.9021,5.9773,6.1233,6.2013,6.2421,6.322,6.3848,6.4288,6.4035,6.445,6.5076,6.47,6.5092,6.5836,6.5218,6.5828,6.7099,6.7279,6.7961,6.898,6.9916,7.027,7.0363,6.71,6.7443,6.7833,6.8305,6.9303,7.0176,7.0276,7.1154,7.182,7.1589,7.1355,7.1415,7.176,7.1577,7.1796,7.2443,7.197,7.1215,7.0512,6.9051,6.8029,6.7616,6.6322,6.587,6.6179,6.5277,6.4893,6.5297,6.4677,6.449,6.4888,6.4888,6.4888,6.4888,6.4524,6.43,6.3993,6.3652,6.3309,6.3194,6.3139,6.3169,6.3169,6.3228,6.3149,6.3295,6.3826,6.3603,6.3283,6.3893,6.4125,6.3883,6.3053,6.2945,6.2765,6.1399,6.1076,6.0975,6.0385,6.0694,6.1172,6.1116,6.0626,6.0124,5.979,5.9623,5.9428,5.8843,5.9067,5.9345,5.9233,5.8812,5.8446,5.8334,5.735,5.6564,5.6507,5.603,5.5636,5.558,5.558,5.5334,5.4626,5.5166,5.5734,5.6292,5.6955,5.7303,5.7303,5.7303,5.7528,5.7781,5.8445,5.8991,5.9529,6.0988,6.213,6.3065,6.2945,6.3631,6.4905,6.4286,6.4498,6.5212,6.4224,6.4674,6.5902,6.4858,6.5825,6.791,6.7537,6.8319,6.9798,7.0082,7.0363,7.0515,6.7167,6.7669,6.8339,6.8836,6.961,7.0282,7.0656,7.0828,7.093,7.1224,7.1476,7.1662,7.1512,7.1925,7.2207,7.2154,7.1644,7.0885,6.9966,6.8831,6.806,6.7793,6.6277,6.5654,6.6323,6.553,6.5173,6.4998,6.4844,6.4844,6.4888,6.4888,6.4777,6.4524,6.4382,6.43,6.3993,6.3652,6.3424,6.3454,6.3704,6.3797,6.3857,6.4159,6.4099,6.3885,6.3759,6.3772,6.3922,6.4561,6.4793,6.4764,6.4492,6.3792,6.3064,6.2934,6.1983,6.1188,6.1274,6.157,6.1706,6.1228,6.1688,6.1837,6.037,6.0005,5.9837,5.922,5.9992,6.0385,5.9402,5.9514,5.943,5.8446,5.8081,5.7716,5.7238,5.7069,5.6788,5.6283,5.6226,5.5983,5.531,5.5872,5.6181,5.607,5.6843,5.7303,5.7303,5.7528,5.7781,5.8085,5.8445,5.9129,5.988,6.0425,6.0997,6.1671,6.3652,6.4173,6.3555,6.4957,6.5491,6.5276,6.5252,6.5384,6.5508,6.5498,6.627,6.7504,6.7493,6.8413,6.9893,7.0236,7.0423,7.0608,6.7131,6.7796,6.8566,6.9471,6.9871,7.0466,7.1359,7.1424,7.1486,7.1798,7.2014,7.1925,7.1499,7.1853,7.2046,7.1862,7.1282,7.0679,7.0188,6.897,6.8258,6.8064,6.6846,6.5954,6.5842,6.5503,6.5165,6.4635,6.4861,6.5014,6.5126,6.532,6.536,6.536,6.4684,6.4334,6.422,6.3544,6.3309,6.3339,6.3554,6.3737,6.4036,6.4277,6.4456,6.4533,6.4381,6.4297,6.4532,6.488,6.4868,6.474,6.4996,6.4224,6.3236,6.3207,6.2608,6.1902,6.1852,6.2089,6.238,6.2043,6.224,6.2071,6.0497,6.0357,6.0329,5.9402,5.9739,5.9992,5.9345,5.9486,5.9486,5.884,5.8502,5.8193,5.7856,5.7294,5.6788,5.6451,5.617,5.5838,5.5794,5.6019,5.6185,5.6361,5.6904,5.7416,5.7528,5.7669,5.8003,5.8445,5.8882,5.9345,6.0016,6.069,6.1103,6.141,6.3255,6.4066,6.3994,6.4779,6.524,6.5475,6.5158,6.5123,6.5375,6.5423,6.5995,6.6839,6.7023,6.8069,6.9456,6.9921,7.0431,7.0916,6.7213,6.7805,6.8564,6.9682,7.0009,7.0533,7.1844,7.2069,7.2222,7.2517,7.2401,7.2187,7.1612,7.1644,7.1644,7.1534,7.106,7.055,7.0424,6.9101,6.8365,6.8365,6.7372,6.6445,6.5757,6.5399,6.4972,6.427,6.4706,6.5041,6.539,6.5742,6.5961,6.6314,6.5158,6.4684,6.4537,6.3764,6.3408,6.3408,6.3528,6.3887,6.4366,6.4455,6.4844,6.5182,6.5182,6.5161,6.4996,6.4996,6.474,6.4483,6.4868,6.4196,6.3431,6.3308,6.3147,6.283,6.2296,6.2652,6.2886,6.2802,6.2464,6.1818,6.0582,6.0638,6.0666,5.9739,5.9458,5.9402,5.9514,5.9458,5.9373,5.9373,5.8868,5.8446,5.8446,5.7547,5.6845,5.676,5.6086,5.5898,5.6131,5.6222,5.6419,5.6851,5.7306,5.7644,5.7781,5.7892,5.8225,5.8694,5.9315,5.9773,6.0092,6.1,6.1582,6.1714,6.2613,6.3678,6.4716,6.4537,6.4929,6.564,6.4928,6.4952,6.5469,6.5345,6.5626,6.6245,6.6519,6.753,6.9002,6.9276,7.0108,7.1109,6.7845,6.7847,6.8175,6.8994,6.9682,7.037,7.1189,7.1434,7.1772,7.2411,7.2079,7.1753,7.1644,7.1644,7.1534,7.1314,7.0949,7.0217,6.9171,6.8624,6.825,6.8051,6.7028,6.6674,6.7102,6.5425,6.4401,6.4106,6.4392,6.481,6.539,6.5399,6.565,6.6083,6.5525,6.5259,6.4874,6.4814,6.4755,6.4814,6.5383,6.5652,6.5802,6.637,6.6332,6.586,6.586,6.5543,6.4996,6.4996,6.474,6.4483,6.4868,6.4196,6.3545,6.411,6.3647,6.2914,6.3197,6.3225,6.3169,6.2268,6.2727,6.2858,6.1357,6.061,6.0357,6.075,6.0385,6.0188,6.075,6.0385,6.002,6.002,5.9486,5.9093,5.9093,5.8952,5.8643,5.8109,5.7253,5.6783,5.6783,5.7282,5.7369,5.6908,5.7939,5.8253,5.781,5.8555,5.8882,5.8664,5.9452,6.0092,6.0377,6.0897,6.1512,6.1916,6.2509,6.3249,6.4048,6.5055,6.5509,6.5705,6.6095,6.5991,6.5783,6.587,6.6146,6.6519,6.6699,6.7412,6.8235,6.8685,6.9423,7.0331,6.8242,6.847,6.8989,6.989,7.0155,7.048,7.127,7.1261,7.1348,7.1766,7.1534,7.1314,7.1203,7.1092,7.0822,7.0188,7.0168,6.9734,6.8624,6.859,6.8575,6.8224,6.7801,6.7199,6.6391,6.5827,6.5106,6.4051,6.4136,6.4468,6.5132,6.5555,6.6098,6.6583,6.5982,6.5712,6.5562,6.5173,6.5024,6.5054,6.5353,6.5682,6.6041,6.634,6.6302,6.6007,6.563,6.5251,6.4996,6.4996,6.474,6.4483,6.4868,6.4196,6.3545,6.4095,6.3573,6.2914,6.3046,6.331,6.3225,6.2577,6.2981,6.3141,6.224,6.165,6.1059,6.0638,6.0329,6.0216,6.0497,6.0638,6.0554,6.0188,5.9907,5.9598,5.9261,5.8924,5.8334,5.735,5.688,5.666,5.6896,5.7249,5.7484,5.7427,5.823,5.8454,5.8033,5.8555,5.8991,5.9099,5.9667,6.0197,6.0586,6.1206,6.1613,6.2016,6.271,6.3194,6.3513,6.4191,6.461,6.4898,6.5372,6.5488,6.5377,6.5651,6.5889,6.6101,6.6279,6.6923,6.7892,6.8648,6.9194,6.9654]}]]